[[{"header":{"parameterUnit":"m.s-1","parameterCategory":1,"la1":30.6,"la2":29.2853,"lo1":-89.7004,"lo2":-87.6739,"dy":0.0162,"dx":0.0183,"nx":112,"ny":82,"refTime":"2023-03-14T06:00:00:Z","depth":0,"parameterNumber":2,"parameterNumberName":"U-component_of_WINDS"},"data":[0.0,0.0,0.0,0.0,0.0,0.0,0.0,0.0,0.0,0.0,0.0,0.0,0.0,0.0,0.0,0.0,0.0,0.0,0.0,0.0,0.0,0.0,0.0,0.0,0.0,0.0,0.0,0.0,0.0,0.0,0.0,0.0,0.0,0.0,0.0,0.0,0.0,0.0,0.0,0.0,0.0,0.0,0.0,0.0,0.0,0.0,0.0,0.0,0.0,0.0,0.0,0.0,0.0,0.0,0.0,0.0,0.0,0.0,0.0,0.0,0.0,0.0,0.0,0.0,0.0,0.0,0.0,0.0,0.0,0.0,0.0,0.0,0.0,0.0,0.0,0.0,0.0,0.0,0.0,0.0,0.0,0.0,0.0,0.0,0.0,0.0,0.0,0.0,0.0,0.0,-7.94,-8.4439,-9.1864,-9.648,-9.648,-9.3903,-8.9479,-8.2901,0.0,0.0,0.0,0.0,0.0,0.0,0.0,0.0,0.0,0.0,0.0,0.0,0.0,0.0,0.0,0.0,0.0,0.0,0.0,0.0,0.0,0.0,0.0,0.0,0.0,0.0,0.0,0.0,0.0,0.0,0.0,0.0,0.0,0.0,0.0,0.0,0.0,0.0,0.0,0.0,0.0,0.0,0.0,0.0,0.0,0.0,0.0,0.0,0.0,0.0,0.0,0.0,0.0,0.0,0.0,0.0,0.0,0.0,0.0,0.0,0.0,0.0,0.0,0.0,0.0,0.0,0.0,0.0,0.0,0.0,0.0,0.0,0.0,0.0,0.0,0.0,0.0,0.0,0.0,0.0,0.0,0.0,0.0,0.0,0.0,0.0,0.0,0.0,0.0,0.0,0.0,0.0,0.0,0.0,0.0,0.0,0.0,0.0,0.0,0.0,0.0,0.0,0.0,0.0,-8.1593,-9.021,-9.4864,-9.7326,-9.7326,-9.3672,-8.9094,-8.3747,0.0,0.0,0.0,0.0,0.0,0.0,0.0,0.0,0.0,0.0,0.0,0.0,0.0,0.0,0.0,0.0,0.0,0.0,0.0,0.0,0.0,0.0,0.0,0.0,0.0,0.0,0.0,0.0,0.0,0.0,0.0,0.0,0.0,0.0,0.0,0.0,0.0,0.0,0.0,0.0,0.0,0.0,0.0,0.0,0.0,0.0,0.0,0.0,0.0,0.0,0.0,0.0,0.0,0.0,0.0,0.0,0.0,0.0,0.0,0.0,0.0,0.0,0.0,0.0,0.0,0.0,0.0,0.0,0.0,0.0,0.0,0.0,0.0,0.0,0.0,0.0,0.0,0.0,0.0,0.0,0.0,0.0,0.0,0.0,0.0,0.0,0.0,0.0,0.0,0.0,0.0,0.0,0.0,0.0,0.0,0.0,0.0,0.0,0.0,0.0,0.0,0.0,0.0,-8.0246,-8.4824,-9.2364,-9.5365,-9.6865,-9.6865,-9.2941,-8.8517,-8.3901,-7.9977,0.0,0.0,0.0,0.0,0.0,0.0,0.0,0.0,0.0,0.0,0.0,0.0,0.0,0.0,0.0,0.0,0.0,0.0,0.0,0.0,0.0,0.0,0.0,0.0,0.0,0.0,0.0,0.0,0.0,0.0,0.0,0.0,0.0,0.0,0.0,0.0,0.0,0.0,0.0,0.0,0.0,0.0,0.0,0.0,0.0,0.0,0.0,0.0,0.0,0.0,0.0,0.0,0.0,0.0,0.0,0.0,0.0,0.0,0.0,0.0,0.0,0.0,0.0,0.0,0.0,0.0,0.0,0.0,0.0,0.0,0.0,0.0,0.0,0.0,0.0,0.0,0.0,0.0,0.0,0.0,0.0,0.0,0.0,0.0,0.0,0.0,0.0,0.0,0.0,0.0,0.0,0.0,0.0,0.0,0.0,0.0,0.0,0.0,0.0,0.0,0.0,0.0,-8.4747,-8.7902,-9.3403,-9.5557,-9.6519,-9.6326,-9.2556,-8.8402,-8.417,-7.9939,0.0,0.0,0.0,0.0,0.0,0.0,0.0,0.0,0.0,0.0,0.0,0.0,0.0,0.0,0.0,0.0,0.0,0.0,0.0,0.0,0.0,0.0,0.0,0.0,0.0,0.0,0.0,0.0,0.0,0.0,0.0,0.0,0.0,0.0,0.0,0.0,0.0,0.0,0.0,0.0,0.0,0.0,0.0,0.0,0.0,0.0,0.0,0.0,0.0,0.0,0.0,0.0,0.0,0.0,0.0,0.0,0.0,0.0,0.0,0.0,0.0,0.0,0.0,0.0,0.0,0.0,0.0,0.0,0.0,0.0,0.0,0.0,0.0,0.0,0.0,0.0,0.0,0.0,0.0,0.0,0.0,0.0,0.0,0.0,0.0,0.0,0.0,0.0,0.0,0.0,0.0,0.0,0.0,0.0,0.0,0.0,0.0,0.0,0.0,0.0,0.0,0.0,-8.594,-9.0094,-9.4441,-9.6403,-9.7096,-9.6365,-9.3095,-8.9325,-8.5093,-8.0785,0.0,0.0,0.0,0.0,0.0,0.0,0.0,0.0,0.0,0.0,0.0,0.0,0.0,0.0,0.0,0.0,0.0,0.0,0.0,0.0,0.0,0.0,0.0,0.0,0.0,0.0,0.0,0.0,0.0,0.0,0.0,0.0,0.0,0.0,0.0,0.0,0.0,0.0,0.0,0.0,0.0,0.0,0.0,0.0,0.0,0.0,0.0,0.0,0.0,0.0,0.0,0.0,0.0,0.0,0.0,0.0,0.0,0.0,0.0,0.0,0.0,0.0,0.0,0.0,0.0,0.0,0.0,0.0,0.0,0.0,0.0,0.0,0.0,0.0,0.0,0.0,0.0,0.0,0.0,0.0,0.0,0.0,0.0,0.0,0.0,0.0,0.0,0.0,0.0,0.0,0.0,0.0,0.0,0.0,0.0,0.0,0.0,0.0,0.0,0.0,0.0,0.0,-8.5901,-9.0133,0.0,-9.6673,-9.6826,-9.7019,-9.3441,-8.9402,-8.517,0.0,0.0,0.0,0.0,0.0,0.0,0.0,0.0,0.0,0.0,0.0,0.0,0.0,0.0,0.0,0.0,0.0,0.0,0.0,0.0,0.0,0.0,0.0,0.0,0.0,0.0,0.0,0.0,0.0,0.0,0.0,0.0,0.0,0.0,0.0,0.0,0.0,0.0,0.0,0.0,0.0,0.0,0.0,0.0,0.0,0.0,0.0,0.0,0.0,0.0,0.0,0.0,0.0,0.0,0.0,0.0,0.0,0.0,0.0,0.0,0.0,0.0,0.0,0.0,0.0,0.0,0.0,0.0,0.0,0.0,0.0,0.0,0.0,0.0,0.0,0.0,0.0,0.0,0.0,0.0,0.0,0.0,0.0,0.0,0.0,0.0,0.0,0.0,0.0,0.0,0.0,0.0,0.0,0.0,0.0,0.0,0.0,0.0,0.0,0.0,0.0,0.0,-8.3285,-8.644,-9.0479,0.0,-9.6865,-9.6673,-9.6711,-9.3056,-8.921,-8.5517,0.0,0.0,0.0,0.0,0.0,0.0,0.0,0.0,0.0,0.0,0.0,0.0,0.0,0.0,0.0,0.0,0.0,0.0,0.0,0.0,0.0,0.0,0.0,0.0,0.0,0.0,0.0,0.0,0.0,0.0,0.0,0.0,0.0,0.0,0.0,0.0,0.0,0.0,0.0,0.0,0.0,0.0,0.0,0.0,0.0,0.0,0.0,0.0,0.0,0.0,0.0,0.0,0.0,0.0,0.0,0.0,0.0,0.0,0.0,0.0,0.0,0.0,0.0,0.0,0.0,0.0,0.0,0.0,0.0,0.0,0.0,0.0,0.0,0.0,0.0,0.0,0.0,0.0,0.0,0.0,0.0,0.0,0.0,0.0,0.0,0.0,0.0,0.0,0.0,0.0,0.0,0.0,0.0,0.0,0.0,0.0,0.0,0.0,0.0,0.0,0.0,0.0,-8.4247,-8.7825,-9.1556,-9.5865,-9.7019,-9.6826,-9.5172,-9.1864,-8.8825,0.0,0.0,0.0,0.0,0.0,0.0,0.0,0.0,0.0,0.0,0.0,0.0,0.0,0.0,0.0,0.0,0.0,0.0,0.0,0.0,0.0,0.0,0.0,0.0,0.0,0.0,0.0,0.0,0.0,0.0,0.0,0.0,0.0,0.0,0.0,0.0,0.0,0.0,0.0,0.0,0.0,0.0,0.0,0.0,0.0,0.0,0.0,0.0,0.0,0.0,0.0,0.0,0.0,0.0,0.0,0.0,0.0,0.0,0.0,0.0,0.0,0.0,0.0,0.0,0.0,0.0,0.0,0.0,0.0,0.0,0.0,0.0,0.0,0.0,0.0,0.0,0.0,0.0,0.0,0.0,0.0,0.0,0.0,0.0,0.0,0.0,0.0,0.0,0.0,0.0,0.0,0.0,0.0,0.0,0.0,0.0,0.0,0.0,0.0,0.0,0.0,0.0,0.0,-8.4324,-8.7825,-9.1748,-9.6634,-9.6865,-9.6673,-9.6749,-9.2556,-8.9094,-8.7132,0.0,0.0,0.0,0.0,0.0,0.0,0.0,0.0,0.0,0.0,0.0,0.0,0.0,0.0,0.0,0.0,0.0,0.0,0.0,0.0,0.0,0.0,0.0,0.0,0.0,0.0,0.0,0.0,0.0,0.0,0.0,0.0,0.0,0.0,0.0,0.0,0.0,0.0,0.0,0.0,0.0,0.0,0.0,0.0,0.0,0.0,0.0,0.0,0.0,0.0,0.0,0.0,0.0,0.0,0.0,0.0,0.0,0.0,0.0,0.0,0.0,0.0,0.0,0.0,0.0,0.0,0.0,0.0,0.0,0.0,0.0,0.0,0.0,0.0,0.0,0.0,0.0,0.0,0.0,0.0,0.0,0.0,0.0,0.0,0.0,0.0,0.0,0.0,0.0,0.0,0.0,0.0,0.0,0.0,0.0,0.0,0.0,0.0,0.0,0.0,0.0,0.0,-8.5286,-8.8556,-9.2133,-9.6557,-9.6596,-9.6365,-9.648,-9.2133,-8.8825,-8.7478,0.0,0.0,0.0,0.0,0.0,0.0,0.0,0.0,0.0,0.0,0.0,0.0,0.0,0.0,0.0,0.0,0.0,0.0,0.0,0.0,0.0,0.0,0.0,0.0,0.0,0.0,0.0,0.0,0.0,0.0,0.0,0.0,0.0,0.0,0.0,0.0,0.0,0.0,0.0,0.0,0.0,0.0,0.0,0.0,0.0,0.0,0.0,0.0,0.0,0.0,0.0,0.0,0.0,0.0,0.0,0.0,0.0,0.0,0.0,0.0,0.0,0.0,0.0,0.0,0.0,0.0,0.0,0.0,0.0,0.0,0.0,0.0,0.0,0.0,0.0,0.0,0.0,0.0,0.0,0.0,0.0,0.0,0.0,0.0,0.0,0.0,0.0,0.0,0.0,0.0,0.0,0.0,0.0,0.0,0.0,0.0,0.0,0.0,0.0,0.0,0.0,0.0,-8.6748,-8.971,-9.2595,-9.5942,-9.6288,-9.598,-9.5172,-9.1325,-8.8517,-8.7594,0.0,0.0,0.0,0.0,0.0,0.0,0.0,0.0,0.0,0.0,0.0,0.0,0.0,0.0,0.0,0.0,0.0,0.0,0.0,0.0,0.0,0.0,0.0,0.0,0.0,0.0,0.0,0.0,0.0,0.0,0.0,0.0,0.0,0.0,0.0,0.0,0.0,0.0,0.0,0.0,0.0,0.0,0.0,0.0,0.0,0.0,0.0,0.0,0.0,0.0,0.0,0.0,0.0,0.0,0.0,0.0,0.0,0.0,0.0,0.0,-8.2684,0.0,0.0,0.0,0.0,0.0,0.0,0.0,0.0,0.0,0.0,0.0,0.0,0.0,0.0,0.0,0.0,0.0,0.0,0.0,0.0,0.0,0.0,0.0,0.0,0.0,0.0,0.0,0.0,0.0,0.0,0.0,0.0,0.0,0.0,0.0,0.0,0.0,0.0,0.0,0.0,0.0,-8.6901,-9.021,-9.3287,-9.6019,-9.6288,-9.6211,-9.6057,-9.2749,-9.0017,-8.8517,-8.4863,0.0,0.0,0.0,0.0,0.0,0.0,0.0,0.0,0.0,0.0,0.0,0.0,0.0,0.0,0.0,0.0,0.0,0.0,0.0,0.0,0.0,0.0,0.0,0.0,0.0,0.0,0.0,0.0,0.0,0.0,0.0,0.0,0.0,0.0,0.0,0.0,0.0,0.0,0.0,0.0,0.0,0.0,0.0,0.0,0.0,0.0,0.0,0.0,0.0,0.0,0.0,0.0,0.0,0.0,0.0,0.0,0.0,0.0,0.0,0.0,-8.4519,0.0,0.0,0.0,0.0,0.0,0.0,0.0,0.0,0.0,0.0,0.0,0.0,0.0,0.0,0.0,0.0,0.0,0.0,0.0,0.0,0.0,0.0,0.0,0.0,0.0,0.0,0.0,0.0,0.0,0.0,0.0,0.0,0.0,0.0,0.0,0.0,0.0,0.0,0.0,0.0,-8.7594,-9.0633,-9.3633,-9.6557,-9.6519,-9.648,-9.6826,-9.3787,-9.1095,-8.9363,-8.6094,0.0,0.0,0.0,0.0,0.0,0.0,0.0,0.0,0.0,0.0,0.0,0.0,0.0,0.0,0.0,0.0,0.0,0.0,0.0,0.0,0.0,0.0,0.0,0.0,0.0,0.0,0.0,0.0,0.0,0.0,0.0,0.0,0.0,0.0,0.0,0.0,0.0,0.0,0.0,0.0,0.0,0.0,0.0,0.0,0.0,0.0,0.0,0.0,0.0,0.0,0.0,0.0,0.0,-8.9633,-9.096,-9.2678,-9.3497,-9.3849,-9.3654,-9.0257,-8.7674,-8.5895,0.0,0.0,0.0,0.0,0.0,0.0,0.0,0.0,0.0,0.0,0.0,0.0,0.0,0.0,0.0,0.0,0.0,0.0,0.0,0.0,0.0,0.0,0.0,0.0,0.0,-8.4247,-8.4055,0.0,0.0,0.0,0.0,0.0,0.0,0.0,0.0,0.0,0.0,0.0,0.0,-8.8286,-9.1171,-9.4095,-9.7173,-9.6903,-9.6788,-9.7442,-9.4826,-9.2287,-9.0287,-8.7248,-8.4632,0.0,0.0,0.0,0.0,0.0,0.0,0.0,0.0,0.0,0.0,0.0,0.0,0.0,0.0,0.0,0.0,0.0,0.0,0.0,0.0,0.0,0.0,0.0,0.0,0.0,0.0,0.0,0.0,0.0,0.0,0.0,0.0,-7.8116,-7.8194,0.0,0.0,0.0,0.0,0.0,0.0,0.0,0.0,0.0,0.0,0.0,0.0,0.0,-8.8852,-9.0609,-9.1194,-9.2365,-9.4083,-9.4981,-9.6308,-9.8026,-9.8885,-9.9275,-9.9275,-9.9392,0.0,-9.0034,-8.9443,0.0,0.0,0.0,0.0,0.0,0.0,0.0,0.0,0.0,0.0,0.0,0.0,0.0,0.0,0.0,0.0,0.0,0.0,0.0,0.0,0.0,0.0,-8.5632,-8.5747,-8.694,-8.7748,0.0,-8.4824,-8.3054,-8.2285,0.0,0.0,0.0,0.0,0.0,0.0,0.0,0.0,-8.844,-9.2172,-9.5403,-9.7288,-9.7403,-9.7365,-9.748,-9.6442,-9.4441,-9.1248,-8.9248,-8.6748,-8.3555,-8.2477,0.0,0.0,0.0,0.0,0.0,0.0,0.0,0.0,0.0,0.0,0.0,0.0,0.0,0.0,0.0,0.0,0.0,0.0,0.0,0.0,0.0,0.0,0.0,0.0,0.0,0.0,0.0,0.0,0.0,-7.8741,-7.9873,-7.9873,-8.0615,-8.0966,0.0,0.0,0.0,0.0,0.0,0.0,0.0,0.0,0.0,-9.1624,-9.2561,-9.3849,-9.5606,-9.6464,-9.7753,-9.9431,-10.029,-10.1891,-10.4116,-10.4506,-10.4897,-10.5404,-10.5209,-10.2504,-9.7908,-9.4742,-9.1342,-8.7941,0.0,0.0,0.0,0.0,-8.5324,-8.5786,-8.6286,-8.6748,0.0,0.0,0.0,0.0,0.0,0.0,0.0,0.0,0.0,0.0,0.0,0.0,0.0,-8.8748,-8.9556,-9.0133,-9.0248,-8.9017,-8.7055,0.0,-8.2978,-8.217,-8.1823,0.0,0.0,0.0,0.0,-8.744,-8.9133,-9.2672,-9.5634,-9.7326,-9.7096,-9.7019,-9.7442,-9.6749,-9.5249,-9.2749,-9.1018,-8.8786,-8.5863,-8.4478,-8.2978,0.0,0.0,0.0,0.0,0.0,0.0,0.0,0.0,0.0,0.0,0.0,0.0,0.0,0.0,0.0,0.0,0.0,0.0,0.0,0.0,0.0,0.0,0.0,0.0,0.0,0.0,0.0,0.0,-8.0263,-8.1552,-8.1356,-8.2879,-8.3426,0.0,0.0,0.0,0.0,0.0,0.0,-9.0218,-9.0765,-9.2756,-9.6621,-9.7792,-9.9314,-10.1305,-10.2203,-10.3413,-10.5092,-10.599,-10.7512,-10.9581,-10.9894,-11.0284,-11.0909,-10.9905,-10.8094,-10.5321,-9.98,-9.505,-9.1151,-8.9973,-8.8141,-8.6286,-8.7363,-8.8286,-8.9094,-8.9517,-9.0056,-9.0441,-8.9594,0.0,-8.744,-8.5709,0.0,0.0,0.0,0.0,-8.6671,-8.7248,-8.8863,-9.0556,-9.1595,-9.2326,-9.2864,-9.3095,-9.2441,-9.071,0.0,-8.4978,-8.3785,-8.3362,0.0,0.0,0.0,0.0,-8.8902,-9.0402,-9.3557,-9.6134,-9.7365,-9.7173,-9.7096,-9.748,-9.6942,-9.5865,-9.4134,-9.2441,-9.0479,-8.8132,-8.6209,-8.4401,-8.267,0.0,0.0,0.0,0.0,0.0,0.0,0.0,0.0,0.0,0.0,0.0,0.0,0.0,0.0,0.0,0.0,0.0,0.0,0.0,0.0,0.0,0.0,0.0,0.0,0.0,0.0,0.0,0.0,0.0,-8.2332,-8.5885,0.0,0.0,0.0,0.0,-8.8383,-9.0687,-9.2873,-9.4669,-9.6347,-9.8455,-10.111,-10.2789,-10.4897,-10.7512,-10.841,-10.9699,-11.1416,-11.2197,-11.3095,-11.411,-11.4891,-11.5281,-11.5316,-11.4184,-11.2702,-11.0503,-10.3501,-9.8916,-9.613,-9.4189,-9.3323,-9.3095,-9.2441,-9.2672,-9.3287,-9.2556,-9.2326,-9.2633,-9.4134,-9.3518,-9.1864,-9.0133,-8.9594,0.0,0.0,-9.021,-9.0902,-9.0941,-9.2787,-9.448,-9.3749,-9.5403,-9.6749,-9.5211,-9.4172,-9.2787,0.0,-8.8979,-8.7863,-8.6209,0.0,-8.5863,-8.5901,-8.8825,-9.1325,-9.2249,-9.5288,-9.7403,-9.748,-9.8211,-9.8365,-9.7557,-9.7442,-9.6711,-9.5018,-9.3364,-9.1633,-8.9863,-8.7363,-8.5247,-8.3555,-8.267,0.0,0.0,0.0,0.0,0.0,0.0,0.0,0.0,0.0,0.0,0.0,0.0,0.0,0.0,0.0,0.0,0.0,0.0,0.0,0.0,0.0,0.0,0.0,0.0,0.0,0.0,0.0,0.0,-8.8774,-9.217,0.0,-9.2404,-9.3615,-9.4473,-9.4473,-9.6386,-9.8494,-10.0798,-10.2008,-10.4116,-10.72,-10.8996,-11.0596,-11.2119,-11.3017,-11.368,-11.4305,-11.4617,-11.5091,-11.5705,-11.551,-11.5611,-11.591,-11.489,-11.3794,-11.2487,-10.929,-10.5108,-10.0496,-9.8113,-9.6772,-9.6095,-9.5826,-9.5903,-9.6172,-9.6442,-9.6172,-9.5634,-9.5172,-9.421,-9.3172,-9.2518,-9.2364,-9.2364,-9.2364,-9.2979,-9.3787,-9.4326,-9.5557,-9.6673,-9.6903,-9.7673,-9.8173,-9.7557,-9.7211,-9.6557,-9.5095,-9.1902,-8.9286,-8.8671,-8.8132,-8.794,-8.8479,-9.0556,-9.2326,-9.3172,-9.5288,-9.6749,-9.6749,-9.7019,-9.7057,-9.6749,-9.6749,-9.6249,-9.5057,-9.3903,-9.2249,-8.9979,-8.8517,-8.644,-8.3632,-8.3285,-8.2593,0.0,0.0,0.0,0.0,0.0,0.0,0.0,0.0,0.0,0.0,0.0,0.0,0.0,0.0,0.0,0.0,0.0,0.0,0.0,0.0,0.0,0.0,0.0,0.0,0.0,0.0,-9.2678,-9.4083,-9.8104,-10.0017,-9.8299,-9.9705,-10.0681,-10.0681,-10.2398,-10.4311,-10.6614,-10.7512,-10.9191,-11.1689,-11.3212,-11.4383,-11.5281,-11.5906,-11.6296,-11.6608,-11.6608,-11.6808,-11.7108,-11.6484,-11.6499,-11.6795,-11.569,-11.49,-11.4291,-11.3086,-11.0321,-10.6403,-10.3181,-10.138,-10.0519,-10.0212,-10.0096,-9.9981,-9.975,-9.9288,-9.8519,-9.6826,-9.5903,-9.5365,-9.5057,-9.5172,-9.5365,-9.5057,-9.5595,-9.6442,-9.698,-9.775,-9.8442,-9.8711,-9.9019,-9.9173,-9.8865,-9.8788,-9.8634,-9.8057,-9.4749,-9.1864,-9.1287,-9.0748,-9.0556,-9.1095,-9.2672,-9.4057,-9.4864,-9.6249,-9.7019,-9.6749,-9.6711,-9.6596,-9.6326,-9.6288,-9.5788,-9.4634,-9.348,-9.1864,-8.9594,-8.8402,-8.6632,-8.4093,-8.4055,-8.3054,-8.1093,0.0,0.0,0.0,0.0,0.0,0.0,0.0,0.0,0.0,0.0,0.0,0.0,0.0,0.0,0.0,0.0,0.0,0.0,0.0,0.0,0.0,0.0,0.0,-8.9047,-9.3419,-9.7011,-9.7948,-10.3296,-10.5599,-10.2203,-10.5014,-10.7005,-10.7005,-10.8605,-11.0284,-11.2002,-11.2783,-11.368,-11.4617,-11.5398,-11.6296,-11.7116,-11.7116,-11.7506,-11.8404,-11.8404,-11.8404,-11.8317,-11.8317,-11.8312,-11.8218,-11.6713,-11.6105,-11.6011,-11.4607,-11.4099,-11.3599,-10.9483,-10.729,-10.6521,-10.5597,-10.5213,-10.4789,-10.2289,-10.1404,-10.1096,-9.9481,-9.8942,-9.8788,-9.7942,-9.8288,-9.8788,-9.7904,-9.825,-9.8904,-9.8904,-9.9481,-9.9904,-9.9058,-9.9519,-9.9904,-9.9058,-9.8865,-9.8865,-9.8865,-9.7519,-9.5826,-9.4095,-9.3787,-9.3787,-9.3787,-9.5211,0.0,-9.7403,-9.825,-9.8442,-9.7596,-9.7519,-9.7173,-9.6365,-9.6249,-9.548,-9.371,-9.2056,-9.0364,-8.8632,-8.6978,-8.567,-8.4863,-8.4786,-8.3555,-8.1093,0.0,0.0,0.0,0.0,0.0,0.0,0.0,0.0,0.0,0.0,0.0,0.0,0.0,0.0,0.0,0.0,0.0,0.0,0.0,0.0,0.0,0.0,-9.381,-9.4239,-9.9275,-10.3687,-10.5912,-10.9191,-11.0987,-11.0011,-11.1885,-11.3212,-11.3212,-11.4813,-11.6296,-11.7311,-11.7584,-11.8092,-11.899,-11.9302,-11.9497,-11.981,-11.981,-11.9888,-12.0083,-12.0083,-11.9913,-11.9399,-11.8904,-11.8385,-11.7901,-11.6808,-11.6402,-11.6382,-11.5978,-11.5484,-11.4714,-11.2291,-11.0791,-11.0021,-10.9098,-10.7598,-10.5905,-10.4482,-10.3712,-10.3097,-10.2597,-10.2481,-10.2481,-10.2212,-10.2289,-10.2289,-10.1404,-10.1404,-10.1404,-10.0789,-10.0789,-10.0904,-10.0712,-10.0789,-10.0904,-10.0712,-10.0596,-10.0404,-9.9865,-9.8865,-9.775,-9.6634,-9.598,-9.5595,-9.5595,-9.598,0.0,-9.7403,-9.7711,-9.7788,-9.7519,-9.7519,-9.7173,-9.6365,-9.5134,-9.3672,-9.1979,-9.0325,-8.8363,-8.6055,-8.5478,-8.4516,-8.3054,-8.2439,-8.1785,0.0,0.0,0.0,0.0,0.0,0.0,0.0,0.0,0.0,0.0,0.0,0.0,0.0,0.0,0.0,0.0,0.0,0.0,0.0,0.0,0.0,0.0,-9.5822,-9.9645,-10.2004,-10.5287,-10.8488,-11.1104,-11.3993,-11.5593,-11.5281,-11.6804,-11.778,-11.778,-11.8795,-11.9614,-12.0005,-12.0005,-12.0317,-12.0785,-12.0785,-12.0785,-12.0785,-12.0785,-12.0785,-12.0785,-12.0785,-12.0601,-12.0092,-11.9586,-11.9,0.0,-11.7501,-11.6995,-11.6686,-11.6611,-11.6176,0.0,0.0,0.0,0.0,0.0,-10.929,-10.779,-10.6213,-10.529,-10.4789,-10.4097,-10.4097,-10.4289,-10.3982,-10.4097,-10.4212,-10.2904,-10.2597,-10.2404,-10.152,-10.1289,-10.1289,-10.1289,-10.1289,-10.1289,-10.1289,-10.1289,-10.1212,-10.0712,0.0,0.0,-9.8673,-9.7596,-9.6673,-9.6365,-9.6903,-9.7519,-9.798,-9.8057,-9.8173,-9.8557,-9.7942,-9.7326,-9.6826,-9.5211,0.0,0.0,0.0,-8.6863,-8.3939,-8.3824,0.0,0.0,0.0,-8.1439,0.0,0.0,0.0,0.0,-8.1208,-8.1131,0.0,0.0,0.0,0.0,0.0,0.0,0.0,0.0,0.0,0.0,0.0,0.0,0.0,0.0,0.0,0.0,-10.0697,-10.6216,-11.0588,-11.1416,-11.2392,-11.4695,-11.7701,-11.9419,-11.8716,-12.0005,-12.0903,-12.0903,-12.0981,-12.1098,-12.1098,0.0,0.0,0.0,0.0,-12.1098,-12.1215,-12.1098,-12.1098,-12.1215,-12.1098,-12.0909,-12.0605,-12.041,-11.9804,-11.8709,-11.8207,-11.7598,-11.6884,-11.6582,-11.6484,-11.6407,-11.5599,-11.4291,-11.2714,-11.1098,-11.0406,0.0,0.0,0.0,0.0,-10.4789,-10.4789,-10.5213,-10.4405,-10.4713,-10.4905,-10.3289,-10.2789,-10.252,-10.1712,-10.1404,-10.1289,-10.1289,-10.1289,-10.1289,-10.1289,-10.1289,-10.1289,-10.1289,-10.0712,-10.0096,-10.0096,-9.875,-9.7403,-9.6673,-9.7865,-9.8827,-9.8942,-9.8942,-9.925,-9.9981,0.0,0.0,-9.7519,-9.5865,-9.3826,-9.1518,-8.8863,-8.6017,-8.2862,-8.2631,-8.2593,-8.2593,-8.2516,-8.2093,-8.1362,-8.1362,-8.1323,-8.1246,-8.1862,-8.1785,0.0,0.0,0.0,0.0,0.0,0.0,0.0,0.0,0.0,0.0,0.0,0.0,0.0,0.0,0.0,-10.0285,-10.5102,-11.0002,-11.5008,-11.6882,-11.7897,-11.8482,-11.9692,-12.0512,-12.0317,-12.1215,-12.18,-12.18,-12.2503,-12.2894,-12.2894,-12.2894,-12.2894,-12.2894,-12.2894,-12.3206,-12.3909,-12.3206,-12.3284,-12.3909,0.0,0.0,-12.1988,-12.0718,-11.9719,-11.8902,-11.7506,-11.6693,-11.6577,-11.649,-11.6484,-11.6407,-11.5599,-11.4714,-11.3599,-11.2599,-11.1406,-11.0098,-10.9598,-10.8983,-10.829,-10.729,-10.7098,-10.7021,-10.6213,-10.602,0.0,-10.4905,-10.4097,-10.3405,-10.2597,-10.1789,-10.1289,-10.1289,-10.1289,-10.1289,-10.1289,-10.1289,-10.1289,-10.1289,-10.0712,-10.0096,-10.0096,-9.925,-9.8481,-9.8327,-9.8596,-9.9058,-9.975,-9.9827,-9.9904,-10.0096,-9.9173,-9.825,-9.7557,-9.5326,-9.3441,-9.2326,-8.921,-8.6786,-8.544,-8.4747,-8.4401,-8.4401,-8.3708,-8.3247,-8.3131,-8.3131,-8.2747,-8.2054,-8.1554,-8.1246,0.0,0.0,0.0,0.0,0.0,0.0,0.0,0.0,0.0,0.0,0.0,-9.0866,0.0,0.0,-10.0794,-10.5687,-10.9387,-11.319,-11.7614,-11.9692,-12.0785,-12.0785,-12.1996,-12.2815,-12.2815,-12.3518,-12.4104,-12.4104,-12.4104,-12.4182,-12.4689,-12.3909,-12.3596,-12.3987,-12.3596,-12.3596,-12.3987,-12.4104,-12.4104,-12.3987,-12.3887,-12.3283,-12.2489,-12.1022,-11.9897,-11.8985,-11.7715,-11.6907,-11.6484,-11.6484,-11.6484,-11.6407,-11.5599,-11.4984,-11.4484,-11.3214,-11.2214,-11.1291,-11.0483,-10.9598,-10.879,-10.7982,-10.7405,-10.7021,-10.6521,-10.6405,-10.6097,-10.4905,-10.4482,-10.4212,-10.2904,-10.2289,-10.202,-10.202,-10.1597,-10.1289,-10.1289,-10.1289,-10.1289,-10.1289,-10.1019,-10.0712,-10.0712,-10.0289,-9.9788,-9.8942,-9.9173,-9.9596,-9.9981,-10.0096,-10.0289,-10.0712,-9.9558,-9.8634,-9.8173,-9.5403,-9.3172,-9.1941,-8.9825,-8.8094,-8.6786,-8.6363,-8.594,-8.5517,-8.5055,-8.4863,-8.4863,-8.4439,-8.4247,-8.417,-8.2477,-8.1708,0.0,0.0,0.0,0.0,0.0,0.0,0.0,-8.8108,-8.9351,-9.2459,-9.4052,-9.5917,-9.9374,-10.27,-10.6288,-11.0814,-11.3693,-11.6484,-11.9795,-12.18,-12.2894,-12.3089,-12.4182,-12.4885,-12.4689,-12.5509,-12.6017,-12.6017,-12.5197,-12.5002,-12.5704,-12.4299,-12.3791,-12.4689,-12.3987,-12.3713,-12.3909,-12.4416,-12.4299,-12.3713,-12.3894,-12.3414,-12.2514,-12.1099,-12.0013,-11.8985,-11.7984,-11.71,-11.6484,-11.6484,-11.6484,-11.6407,-11.5599,-11.5291,-11.5099,-11.3291,-11.2599,-11.2291,-11.0906,-10.9983,-10.9213,-10.829,-10.7521,-10.679,-10.6521,-10.6405,-10.6097,-10.4789,-10.4713,-10.4789,-10.3405,-10.2789,-10.2597,-10.2597,-10.1904,-10.1289,-10.152,-10.1597,-10.1597,-10.1789,-10.1789,-10.1789,-10.1789,-10.1789,-10.1212,-9.9558,-9.9865,-10.0289,-10.0289,-10.0289,-10.0596,-10.1212,-9.9788,-9.8673,-9.8327,-9.5788,-9.3557,-9.2018,-9.1287,-9.021,-8.8671,-8.8325,-8.7825,-8.7094,-8.6786,-8.6594,-8.6594,-8.594,-8.5901,-8.6324,-8.4401,-8.3285,-8.8419,-8.7603,-8.6943,-8.6749,-8.7292,-8.8302,0.0,-9.2148,-9.4363,-9.6228,-9.852,-10.12,-10.4697,-10.751,-11.0819,-11.5295,-11.8185,-12.0707,-12.2689,-12.4494,-12.5782,-12.6485,-12.6212,-12.5587,-12.4806,-12.5509,-12.6017,-12.6017,-12.5197,-12.4689,-12.4806,-12.3909,-12.3791,-12.4689,-12.4611,-12.4885,-12.5704,-12.5002,-12.4689,-12.4489,-12.3496,-12.2908,-12.2397,-12.0479,-11.9395,-11.8985,-11.7407,-11.6599,-11.6484,-11.6484,-11.6484,-11.6407,-11.5599,-11.5291,-11.5099,-11.3291,-11.2214,-11.1598,-11.1406,-11.1291,-11.0906,-10.929,-10.8713,-10.829,-10.6905,-10.6405,-10.6405,-10.6213,-10.5597,-10.5097,-10.4905,-10.3712,-10.2597,-10.2597,-10.1904,-10.152,-10.2289,-10.252,-10.2712,-10.3482,-10.3597,-10.3597,-10.3597,-10.3597,-10.2981,-10.1289,-10.1096,-10.1212,-10.1212,-10.1212,-10.1212,-10.1289,-9.9788,-9.8211,-9.6711,-9.6249,-9.5595,-9.4634,-9.448,-9.398,-9.3018,-9.1556,-9.0748,-9.0633,-8.9171,-8.8402,-8.8402,-8.8325,-8.7902,-8.7286,-8.7748,-8.6786,-8.9079,-8.838,-8.8108,-8.9584,-9.0633,-9.1954,-9.4674,-9.6538,-9.8442,-10.1084,-10.3686,-10.6406,-10.9397,-11.24,-11.549,0.0,-12.0678,-12.2388,-12.3313,-12.4885,-12.5392,-12.3713,-12.4494,-12.5704,-12.6797,-12.6797,-12.668,-12.668,-12.59,-12.5509,-12.5509,-12.4104,-12.3791,-12.4689,-12.4182,-12.4104,-12.4494,-12.4611,-12.4416,-12.3904,-12.3585,-12.2804,-12.1698,-11.9975,-11.8684,-11.7484,-11.6792,-11.6484,-11.6484,-11.6484,-11.6484,-11.6407,-11.5599,-11.4984,-11.4407,-11.3214,-11.2522,-11.2099,-11.1714,-11.1214,-11.0483,-10.929,-10.8906,-10.8598,-10.6905,-10.679,-10.6905,-10.5905,-10.5713,-10.5713,-10.5213,-10.4597,-10.4097,-10.4097,-10.302,-10.2212,-10.252,-10.2212,-10.2097,-10.2981,-10.3097,-10.3289,-10.3789,-10.3905,-10.3712,-10.2904,-10.2404,-10.2097,-10.2097,-10.1597,-10.0904,-9.9942,-9.9211,-9.8134,-9.6442,-9.6288,-9.6134,-9.5788,-9.5749,-9.5365,-9.448,-9.3787,-9.3172,-9.2672,-9.1979,-9.1595,-9.1595,-9.0633,-9.021,-9.0325,-8.8709,-8.7902,-8.9118,-8.9274,-8.9895,-9.2226,-9.4013,-9.5994,-9.918,-10.0812,-10.2599,-10.6289,-10.8504,-11.0679,-11.3787,-11.639,-11.8813,-12.0887,-12.2717,-12.3909,-12.4089,-12.5002,-12.4416,-12.1215,-12.1918,-12.3518,-12.5782,-12.629,-12.6602,-12.6915,-12.629,-12.59,-12.5704,-12.4416,-12.3987,-12.4689,-12.4104,-12.3791,-12.3791,-12.4416,-12.4299,-12.3401,-12.3414,-12.2697,-12.1077,-11.9491,-11.7907,-11.6484,-11.6484,-11.6484,-11.6484,-11.6484,-11.6484,-11.6407,-11.5291,-11.4599,-11.3907,-11.3022,-11.2599,-11.2291,-11.1714,-11.1098,-11.0406,-10.9483,-10.9098,-10.8598,-10.7213,-10.7021,-10.7098,-10.579,-10.5905,-10.629,-10.5597,-10.529,-10.5097,-10.5097,-10.3982,-10.302,-10.3212,-10.2789,-10.2597,-10.352,-10.3597,-10.3789,-10.4482,-10.4597,-10.4597,-10.4597,-10.3789,-10.3097,-10.2712,-10.1789,-10.0712,-9.9288,-9.9173,-9.8481,-9.6788,-9.6634,-9.6557,-9.6326,-9.6288,-9.6019,-9.5365,-9.5134,-9.4711,-9.4057,-9.3826,-9.371,-9.371,-9.2479,-9.2095,-9.2441,-9.0171,-8.9556,-8.8108,-9.0128,-9.242,-9.4169,-9.7121,-10.0307,-10.2909,-10.4813,-10.7183,-11.1495,-11.2388,-11.3787,-11.7983,-11.8915,-11.9901,-12.2601,-12.451,-12.5702,-12.5884,-12.5197,-12.3791,-12.1098,-11.8716,-11.7897,0.0,-12.2815,-12.5119,-12.6017,-12.6017,-12.5587,-12.4806,-12.4689,-12.4689,-12.4689,-12.4689,-12.4689,-12.4689,-12.4689,-12.4299,-12.3401,-12.278,-12.2101,-12.1115,-11.8912,-11.7292,-11.6484,-11.6484,-11.6484,-11.6484,-11.6484,-11.6484,-11.6292,-11.4714,-11.3984,-11.3907,-11.3022,-11.2214,-11.1522,-11.1522,-11.1522,-11.1291,-11.0406,-10.9598,-10.8713,-10.7905,-10.7098,-10.6405,-10.6405,-10.6405,-10.6405,-10.6405,-10.5713,-10.5097,-10.5097,-10.4482,-10.4097,-10.4905,-10.4982,-10.5213,-10.6097,-10.629,-10.629,-10.629,-10.629,-10.629,-10.629,-10.5597,-10.4405,-10.2789,-10.1789,-10.1019,-10.0096,-10.0115,-9.9365,-9.7596,-9.7442,-9.7134,-9.6365,-9.6288,-9.6288,-9.6249,-9.5441,-9.498,-9.496,-9.4134,-9.371,-9.371,-9.3633,-9.3249,-9.2518,-9.3172,-9.2672,-9.1138,-9.3547,-9.6305,-9.9763,-10.2288,-10.4891,-10.7999,-10.9591,-11.099,-11.301,-11.2505,-11.2,-11.2894,-11.4018,-11.5485,-11.7594,-12.0898,-12.3502,-12.4211,-12.4494,-12.2894,-11.8014,-11.7701,0.0,0.0,0.0,0.0,-12.4104,-12.4806,-12.4806,-12.3909,-12.4416,-12.4416,-12.3909,-12.3791,-12.3791,-12.3791,-12.3791,-12.3599,-12.2989,-12.1285,-11.9987,-11.8893,-11.76,-11.6792,-11.6484,-11.6484,-11.6484,-11.6484,-11.6484,-11.6484,-11.6407,-11.5907,-11.5291,-11.4791,-11.3907,-11.3022,-11.2291,-11.2291,-11.1906,-11.1406,-11.0483,-11.0406,-11.0406,-10.8906,-10.8713,-10.879,-10.8213,-10.8098,-10.8098,-10.8098,-10.779,-10.7482,-10.6982,-10.6213,-10.5482,-10.5213,-10.4713,-10.4482,-10.5405,-10.5482,-10.5713,-10.629,-10.6405,-10.6405,-10.6405,-10.5213,-10.3905,-10.2712,-10.1789,-10.1019,-10.0173,-9.9558,-9.875,-9.7596,-9.7019,-9.6596,-9.6326,-9.6288,-9.6288,-9.6288,-9.6019,-9.5865,-9.5865,-9.5557,-9.5441,-9.5403,-9.4826,-9.4403,-9.4134,-9.3826,-9.3403,-9.3974,-9.751,-10.12,-10.458,-10.7183,-10.9708,-11.2505,-11.3088,-11.3282,-11.4098,-11.1883,-10.972,-10.9213,-10.9283,-11.0206,-11.2298,-11.5595,-11.8607,-12.0815,-12.1098,-11.9614,-11.571,-11.571,-11.5203,0.0,0.0,0.0,-12.1683,-12.3401,-12.3909,-12.3011,-12.4104,-12.4299,-12.3401,-12.3401,-12.3401,-12.3401,-12.3401,-12.3009,-12.2285,-12.0417,-11.8893,-11.7792,-11.6907,-11.6484,-11.6484,-11.6484,-11.6484,-11.6484,-11.6484,-11.6484,-11.6484,-11.6176,-11.5792,-11.5215,-11.4714,-11.3714,-11.2714,-11.2406,-11.1906,-11.1406,-11.0791,-11.0791,-11.0791,-10.9713,-10.9483,-10.9598,-10.9098,-10.8906,-10.879,-10.8482,-10.8482,-10.829,-10.7405,-10.679,-10.6213,-10.5713,-10.5213,-10.4905,-10.5482,-10.5597,-10.5713,-10.629,-10.6405,-10.6405,-10.6405,-10.5213,-10.3982,-10.3212,-10.202,-10.1096,-10.0596,-9.9981,-9.9365,-9.8481,-9.7673,-9.7057,-9.6749,-9.648,-9.6288,-9.6288,-9.6288,-9.6288,-9.6288,-9.6288,-9.6288,-9.6288,-9.5749,-9.5288,-9.498,-9.4749,-9.4287,-9.6694,-10.2016,-10.6911,-10.8504,-11.1417,-11.4292,-11.6001,-11.4991,-11.3904,-11.4603,-11.0601,-10.6986,0.0,0.0,-10.4385,-10.7203,-10.9414,-11.2208,-11.6599,-11.5789,-11.4695,-11.45,-11.3095,0.0,-11.3017,0.0,0.0,-11.9107,0.0,-12.2894,-12.2191,-12.3791,-12.4299,-12.3401,-12.3401,-12.3401,-12.3401,-12.3318,-12.2599,-12.1104,-11.9992,-11.8777,-11.7715,-11.6907,-11.6484,-11.6484,-11.6484,-11.6484,-11.6484,-11.6484,-11.6484,-11.6407,-11.5676,-11.5407,-11.5407,-11.5291,-11.4214,-11.2599,-11.1791,-11.1522,-11.1522,-11.1522,-11.0906,-11.0214,-11.0214,-10.9598,-10.8983,-10.8983,-10.8983,-10.8906,-10.8098,-10.7905,-10.7713,-10.6713,-10.6521,-10.6521,-10.6405,-10.6405,-10.6405,-10.6405,-10.6405,-10.6405,-10.6405,-10.6405,-10.6405,-10.6405,-10.5597,-10.4789,-10.3982,-10.2404,-10.1289,-10.1289,-10.1289,-10.0904,-10.0096,-9.9211,-9.8365,-9.748,-9.6711,-9.6288,-9.6288,-9.6288,-9.6288,-9.6288,-9.6288,-9.6288,-9.6288,-9.6288,-9.5865,-9.5095,-9.5903,-9.5403,-10.2404,-10.6911,-11.0407,-11.2117,-11.3593,-11.4914,-11.5302,-11.4098,-11.2194,-10.9902,-10.5299,-10.1009,-9.8511,-9.9647,0.0,-10.5402,-11.1217,0.0,-11.9419,-12.0005,0.0,-11.571,-11.6101,-11.571,-11.329,-11.4891,0.0,0.0,-12.0395,-12.1918,-12.3011,-12.4104,-12.4299,-12.3401,-12.3401,-12.3401,-12.3401,-12.2605,-12.1179,-11.9304,-11.8813,-11.7889,-11.6792,-11.6599,-11.6484,-11.6484,-11.6484,-11.6484,-11.6484,-11.6484,-11.6484,-11.6484,-11.6292,-11.6176,-11.5984,-11.4791,-11.4099,-11.3483,-11.2022,-11.1522,-11.1522,-11.1522,-11.0906,-11.0214,-11.0214,-10.9983,-10.9906,-10.9906,-11.0291,-11.0791,-11.0598,-11.0521,-11.0098,-10.8598,-10.829,-10.7905,-10.6713,-10.6405,-10.6405,-10.6405,-10.6405,-10.6405,-10.6405,-10.6405,-10.6405,-10.6405,-10.5097,-10.4097,-10.3905,-10.2904,-10.202,-10.1404,-10.0789,-10.0096,-9.9211,-9.8327,-9.748,-9.6673,-9.6403,-9.6288,-9.6288,-9.6288,-9.6288,-9.6288,-9.6288,-9.6288,-9.6288,-9.6288,-9.6172,-9.598,-9.6211,-9.6057,-10.7804,-11.2,-11.5302,-11.5496,-11.6196,-11.6312,-11.4409,-11.2117,-10.9215,-10.5493,-10.061,-9.6282,-9.3671,-9.5135,-9.789,0.0,0.0,0.0,-11.6804,-11.8209,-11.8209,-11.6999,-11.8014,-11.8092,-11.6101,-11.7194,-11.8599,0.0,-12.0512,-12.141,-12.2815,-12.3713,-12.3909,-12.3401,-12.3401,-12.3206,-12.2815,-12.1908,-12.0508,-11.8682,-11.8174,-11.7514,-11.6484,-11.6484,-11.6484,-11.6484,0.0,-11.6484,-11.6484,-11.6484,-11.6484,-11.6484,-11.6484,-11.6484,-11.6407,-11.5407,-11.4907,-11.4407,-11.3483,-11.2714,-11.2022,-11.1598,-11.1214,-11.0791,-11.0791,-11.0483,-11.0291,-11.0714,-11.0791,-11.0906,-11.0906,-11.0906,-11.0483,-10.879,-10.8406,-10.7982,-10.6713,-10.6405,-10.6405,-10.6405,-10.6405,-10.6405,-10.6405,-10.6405,-10.6405,-10.6405,-10.529,-10.4289,-10.3905,-10.2789,-10.1789,-10.1404,-10.0904,-10.0404,-9.9942,-9.8788,-9.7865,-9.7442,-9.6711,-9.6288,-9.6288,-9.6288,-9.6288,-9.6288,-9.6288,-9.6288,-9.6288,-9.6288,-9.6288,-9.6288,-9.6288,-9.6288,-11.301,-11.7089,-12.008,-11.8488,-11.8293,-11.7516,-11.3088,-10.9293,-10.5521,-10.1097,-9.6428,-9.2643,-9.0941,-9.1671,-9.3847,-9.7749,0.0,-10.7083,-11.3095,-11.4695,-11.6101,-11.8287,-11.9302,-11.981,-11.9692,-11.981,-12.0512,-12.1996,-12.141,-12.141,-12.2191,-12.3011,-12.3401,-12.3401,-12.3401,-12.3011,-12.2113,-12.1491,-12.0316,-11.8682,-11.8102,-11.7287,-11.6484,-11.6484,-11.6484,-11.6484,0.0,0.0,-11.6484,-11.6484,-11.6484,-11.6484,-11.6484,-11.6484,-11.6484,-11.6407,-11.5907,-11.5291,-11.4984,-11.3984,-11.2599,-11.1906,-11.1522,-11.1291,-11.1291,-11.0791,-11.0406,-11.1098,-11.0906,-11.0406,-11.0406,-11.0406,-10.9983,-10.8406,-10.7905,-10.7598,-10.679,-10.6597,-10.6597,-10.6597,-10.6597,-10.6521,-10.6405,-10.6405,-10.6405,-10.6405,-10.5597,-10.4713,-10.3982,-10.252,-10.1404,-10.1289,-10.1289,-10.1289,-10.1096,-9.9712,-9.875,-9.8634,-9.7173,-9.6288,-9.6288,-9.6288,-9.6288,-9.6288,-9.6288,-9.6288,-9.6288,-9.6288,-9.6288,-9.6288,-9.6288,-9.6288,-11.8682,-12.1091,-12.1906,-12.0197,-11.8293,-11.5496,-11.0485,-10.6205,0.0,-9.5982,-9.3063,-9.078,-8.8384,-9.1041,-9.5403,-10.0993,-10.6107,-11.1494,-11.7506,-11.9107,-11.9888,0.0,-12.1098,-12.141,-12.059,-12.1215,0.0,0.0,0.0,-12.2308,-12.3089,-12.3284,-12.3401,-12.3401,-12.3401,-12.3011,-12.2113,-12.1296,-12.0085,-11.8695,-11.7885,-11.7088,-11.6484,-11.6484,-11.6484,-11.6484,0.0,0.0,-11.6484,-11.6484,-11.6484,-11.6484,-11.6484,-11.6484,-11.6407,-11.5792,-11.5407,-11.5099,-11.3714,-11.2983,-11.2714,-11.2522,-11.1598,-11.0406,-11.0406,-11.0291,-11.0214,-11.0406,-11.0791,-11.1291,-11.1291,-11.1291,-11.1021,-10.9983,-10.9213,-10.8482,-10.7713,-10.7521,-10.7521,-10.7521,-10.7521,-10.7213,-10.6521,-10.6405,-10.6405,-10.6405,-10.5097,-10.4097,-10.3905,-10.2981,-10.2097,-10.1404,-10.1289,-10.1019,-10.0404,-9.9365,-9.8481,-9.7788,-9.6826,-9.6288,-9.6288,-9.6288,-9.6288,-9.6288,-9.6288,-9.6288,-9.6288,-9.6288,-9.6288,-9.6288,-9.6288,-9.6288,-12.2411,-12.482,-12.5403,-12.2295,-11.8993,-11.4603,-10.761,0.0,0.0,-9.1926,-8.9963,-8.875,-8.7568,-9.052,-9.4512,-9.8768,-10.2984,-10.8098,-11.4617,-11.6608,-11.8287,-12.0512,-12.1996,-12.2581,-12.2191,-12.2503,-12.2815,0.0,0.0,-12.3011,-12.3401,-12.3401,-12.3206,-12.2698,-12.2698,-12.2113,-12.0785,-12.018,-11.9318,-11.7983,-11.7515,-11.6986,-11.6806,-11.6806,-11.6806,-11.6806,-11.6806,0.0,-11.6484,-11.6484,-11.6484,-11.6484,-11.6484,-11.6484,-11.6484,-11.6099,-11.5907,-11.5792,-11.4984,-11.4099,-11.3483,-11.3907,-11.2599,-11.0906,-11.0906,-11.0598,-11.0291,-11.0714,-11.0906,-11.0791,-11.0791,-11.0791,-11.0598,-10.9713,-10.9213,-10.8713,-10.7905,-10.7713,-10.7713,-10.7713,-10.729,-10.6905,-10.6521,-10.6405,-10.6405,-10.6405,-10.4982,-10.3905,-10.3905,-10.2712,-10.1789,-10.1289,-10.1289,-10.1096,-10.0789,-9.9942,-9.9096,-9.8211,-9.7403,-9.6749,-9.6326,-9.6288,-9.6288,-9.6288,-9.6288,-9.6288,-9.6288,-9.6288,-9.6288,-9.6288,-9.6288,-9.6288,-12.5286,-12.7617,-12.8316,-12.4315,-11.9381,-11.3515,-10.5396,-9.8772,0.0,-8.9065,-8.7738,-8.733,-8.7401,-8.975,-9.2678,-9.5645,-9.8846,-10.3491,-11.0792,-11.329,-11.6101,0.0,-12.2308,0.0,-12.3401,-12.3401,0.0,0.0,0.0,0.0,-12.3401,-12.3401,-12.3011,-12.2113,-12.2113,-12.141,-11.981,-11.9399,-11.8715,-11.7711,-11.7306,-11.7092,-11.6975,-11.7102,-11.7097,-11.7097,-11.7011,0.0,0.0,-11.649,-11.6484,-11.6484,-11.6484,-11.6484,-11.6484,-11.6484,-11.6484,-11.6484,-11.6292,-11.5407,-11.4407,-11.4907,-11.3483,-11.1791,-11.2022,-11.1406,-11.0906,-11.1791,-11.1291,-11.0483,-11.0714,-11.0598,-11.0214,-10.9213,-10.879,-10.8482,-10.779,-10.7713,-10.7713,-10.7713,-10.7098,-10.6597,-10.6405,-10.6405,-10.6405,-10.6405,-10.5097,-10.4097,-10.3905,-10.252,-10.152,-10.1289,-10.1289,-10.1289,-10.1289,-10.0596,-9.9788,-9.9096,-9.825,-9.7403,-9.6596,-9.6557,-9.648,-9.6288,-9.6288,-9.6288,-9.6288,-9.6288,-9.6288,-9.6288,-9.6288,-9.6288,-12.7695,-12.9016,-12.8511,-12.5791,-11.8993,-11.1301,-10.5007,0.0,-9.1559,-8.8027,-8.7341,-8.7401,-8.7404,-8.8305,-9.0413,-9.4552,-9.7479,-10.2203,-11.0596,-11.329,-11.6296,-12.141,0.0,0.0,0.0,0.0,0.0,0.0,0.0,0.0,-12.3401,-12.3401,-12.3011,-12.2113,-12.2113,-12.1605,-12.0707,-11.9917,-11.9199,-11.8618,-11.8009,-11.7517,-11.6993,-11.7306,-11.7398,-11.7306,0.0,0.0,0.0,-11.6582,-11.6484,-11.6484,-11.6484,-11.6484,-11.6484,-11.6484,-11.6484,-11.6407,-11.5676,-11.5291,-11.5099,-11.4407,-11.3407,-11.2714,-11.3483,-11.3214,-11.2714,-11.3483,-11.2599,-11.1522,-11.2291,-11.1906,-11.1021,-10.929,-10.829,-10.779,-10.7713,-10.7713,-10.7713,-10.7713,-10.7598,-10.729,-10.6521,-10.6405,-10.6405,-10.6405,-10.5597,-10.4713,-10.3982,-10.3097,-10.2212,-10.1404,-10.1289,-10.1289,-10.1289,-10.0596,-10.0115,-9.9981,-9.9173,-9.8288,-9.7442,-9.7403,-9.7057,-9.6326,-9.6288,-9.6288,-9.6288,-9.6288,-9.6288,-9.6288,-9.6288,-9.6288,-12.6801,-12.9909,-13.0492,-12.6296,-11.8915,-11.1015,-10.5011,0.0,-9.0216,-8.8389,-8.7716,-8.7404,-8.7404,-8.811,-8.9242,-9.096,-9.299,-9.6464,-10.2515,-10.5209,-10.9308,-11.6608,-11.8404,0.0,0.0,0.0,0.0,0.0,0.0,0.0,-12.2581,-12.2581,-12.2191,-12.1293,-12.0785,-12.0083,-11.9302,-11.899,-11.8594,-11.8186,-11.7917,-11.7711,-11.7491,-11.7597,-11.7602,-11.74,0.0,0.0,0.0,-11.6611,-11.6484,-11.6484,-11.6484,-11.6484,-11.6484,-11.6484,-11.6484,-11.6484,-11.6099,-11.5676,-11.5291,-11.5484,-11.4907,-11.4214,-11.4099,-11.3791,-11.3599,-11.3907,-11.3099,-11.2214,-11.2022,-11.1406,-11.0406,-10.9213,-10.9098,-10.9098,-10.8482,-10.8021,-10.7713,-10.7713,-10.729,-10.679,-10.6521,-10.6405,-10.6405,-10.6405,-10.5713,-10.4789,-10.3982,-10.3097,-10.2289,-10.1404,-10.1289,-10.1289,-10.1289,-10.1019,-10.0596,-10.0096,-9.975,-9.9173,-9.8327,-9.7788,-9.7365,-9.7019,-9.6557,-9.6288,-9.6288,-9.6288,-9.6288,-9.6288,-9.6288,-9.6288,-12.4315,-12.8511,-13.022,-12.6607,-11.8515,-11.0209,0.0,0.0,-8.9898,-8.913,-8.8353,-8.7798,-8.7798,-8.8305,-8.8618,-8.8344,-8.9984,-9.2795,-9.7089,-9.9705,-10.4116,0.0,0.0,-11.6491,0.0,0.0,0.0,0.0,0.0,0.0,0.0,-12.1605,-12.102,-12.0395,-11.981,-11.9107,-11.8287,-11.8287,-11.8112,-11.7798,-11.7896,-11.7888,-11.7807,-11.7896,-11.778,-11.7477,0.0,0.0,0.0,-11.6512,-11.6484,-11.6484,-11.6484,-11.6484,-11.6484,-11.6484,-11.6484,-11.6484,-11.6484,-11.6099,-11.5676,-11.6292,-11.5984,-11.5176,-11.4599,-11.4407,-11.4407,-11.4407,-11.3599,-11.2522,-11.1714,-11.0906,-10.9983,-10.9406,-10.9598,-10.9598,-10.8983,-10.829,-10.7713,-10.7713,-10.7021,-10.6405,-10.6405,-10.6405,-10.6405,-10.6405,-10.5905,-10.5097,-10.3982,-10.3405,-10.2597,-10.1404,-10.1289,-10.1289,-10.1289,-10.1289,-10.1096,-10.0481,-10.0481,-10.0096,-9.9211,-9.8365,-9.775,-9.7519,-9.6711,-9.6288,-9.6288,-9.6288,-9.6288,-9.6288,-9.6288,-9.6288,-12.0197,-12.4082,-12.6685,-12.6607,-11.7595,-10.8198,0.0,0.0,-9.0852,-9.0032,-8.9255,-8.8696,-8.8696,-8.8696,-8.8422,-8.7564,-8.9594,-9.2795,-9.7089,-9.9197,0.0,0.0,0.0,0.0,0.0,0.0,0.0,0.0,0.0,0.0,0.0,-12.0512,-11.9497,-11.9497,-11.9497,-11.9107,-11.8287,-11.8287,-11.8112,-11.7807,-11.8118,-11.8112,-11.7807,-11.8079,-11.8106,0.0,0.0,0.0,0.0,-11.6603,-11.6484,-11.6484,-11.6484,-11.6484,-11.6484,-11.6484,-11.6484,-11.6484,-11.6484,-11.6484,-11.6484,-11.6484,-11.5984,-11.5291,-11.5291,-11.5291,-11.5291,-11.5291,-11.3984,-11.2522,-11.1714,-11.0906,-11.0214,-11.0214,-10.9483,-10.8906,-10.8906,-10.829,-10.7713,-10.7713,-10.7021,-10.6405,-10.6405,-10.6405,-10.6405,-10.6405,-10.6405,-10.579,-10.4097,-10.3905,-10.3212,-10.152,-10.1289,-10.1289,-10.1289,-10.1289,-10.1289,-10.1289,-10.1289,-10.0904,-10.0096,-9.925,-9.8365,-9.7519,-9.6711,-9.6288,-9.6288,-9.6288,-9.6288,-9.6288,-9.6288,-9.6288,-11.1184,-11.4797,-11.6611,-11.4886,-10.9422,-10.3803,-10.1315,0.0,-9.1057,-9.0894,-9.0172,-8.9398,-8.8813,-8.9203,-8.9516,-8.9203,-9.0843,-9.2795,0.0,0.0,0.0,-10.7786,0.0,0.0,0.0,0.0,0.0,0.0,0.0,0.0,0.0,-12.0083,-11.981,-12.0395,-11.9302,-11.8599,-11.8287,-11.8287,-11.8195,-11.8118,-11.8195,-11.8195,-11.8079,-11.8312,0.0,0.0,0.0,0.0,0.0,-11.6512,-11.6484,-11.6484,-11.6484,-11.6484,-11.6484,-11.6484,-11.6484,-11.6484,-11.6484,-11.6484,-11.6484,-11.6484,-11.6292,-11.6099,-11.6099,-11.5291,-11.4291,-11.3714,-11.3099,-11.2522,-11.1714,-11.1291,-11.1098,-11.1098,-11.0406,-10.979,-10.979,-10.9098,-10.8482,-10.8482,-10.7905,-10.729,-10.729,-10.679,-10.6405,-10.6405,-10.6405,-10.579,-10.4097,-10.4405,-10.3789,-10.152,-10.1789,-10.1904,-10.1404,-10.1289,-10.1289,-10.1289,-10.1289,-10.1212,-10.0904,-9.9558,-9.8673,-9.8404,-9.7019,-9.6288,-9.6288,-9.6288,-9.6288,-9.6288,-9.6288,-9.6288,-10.4386,-10.8191,-10.9987,-10.8994,-10.5097,0.0,0.0,-9.5075,-9.1631,-9.1737,-9.1077,-9.0335,-8.9789,-8.9867,-8.9906,-8.9555,-9.0648,-9.1975,0.0,0.0,0.0,-10.7395,0.0,0.0,0.0,0.0,0.0,0.0,0.0,0.0,0.0,0.0,-11.9419,-12.0317,-11.899,-11.8287,-11.8287,-11.8287,-11.8287,-11.8287,-11.8287,-11.8287,-11.8287,-11.8287,0.0,0.0,0.0,0.0,0.0,-11.6611,-11.6484,-11.6484,-11.6484,-11.6484,-11.6484,-11.6484,-11.6484,-11.6484,-11.6484,-11.6484,-11.6484,-11.6484,-11.6099,-11.5484,-11.5215,-11.4599,-11.3791,-11.2906,-11.2522,-11.2099,-11.1598,-11.1522,-11.1522,-11.1522,-11.1098,-11.0714,-11.0714,-10.9713,-10.8906,-10.8906,-10.829,-10.7598,-10.729,-10.7021,-10.679,-10.6405,-10.6097,-10.5482,-10.4482,-10.4482,-10.3982,-10.252,-10.252,-10.2404,-10.1789,-10.152,-10.1289,-10.1289,-10.1289,-10.1289,-10.1289,-9.9981,-9.9135,-9.8788,-9.7442,-9.6596,-9.6288,-9.6288,-9.6288,-9.6288,-9.6288,-9.6288,0.0,-10.33,-10.5485,-10.708,-10.3395,-9.9176,-9.8369,-9.5139,0.0,-9.2326,-9.178,-9.1272,-9.1155,-9.0492,-8.9711,-8.893,-8.9516,0.0,0.0,-9.6699,0.0,0.0,-11.29,0.0,0.0,0.0,0.0,0.0,0.0,0.0,0.0,0.0,-11.8599,-11.9419,-11.8716,-11.8287,-11.8287,-11.8287,-11.8287,-11.8287,-11.8287,-11.8287,-11.8287,-11.8287,0.0,0.0,0.0,0.0,0.0,-11.6603,-11.6484,-11.6484,-11.6484,-11.6484,-11.6484,-11.6484,-11.6484,-11.6484,-11.6484,-11.6484,-11.6484,-11.6484,-11.5407,-11.3907,-11.3099,-11.3291,-11.3714,-11.2791,-11.2099,-11.1522,-11.1522,-11.1522,-11.1522,-11.1522,-11.1522,-11.1522,-11.1522,-11.0214,-10.9098,-10.9098,-10.8406,-10.7598,-10.6713,-10.7213,-10.7405,-10.6521,-10.5713,-10.5213,-10.5097,-10.4482,-10.3982,-10.3789,-10.3097,-10.2597,-10.252,-10.1789,-10.1289,-10.1289,-10.1289,-10.1289,-10.1289,-10.0481,-9.9673,-9.8827,-9.7904,-9.7057,-9.6288,-9.6288,-9.6288,-9.6288,-9.6288,-9.6288,-9.2851,0.0,-9.3809,-9.4984,-9.3782,-9.2261,0.0,-9.1304,-9.057,-9.057,-9.096,-9.0882,-8.9555,-8.9672,-8.9945,-8.9711,0.0,-9.1819,-9.4161,0.0,0.0,-11.329,-11.6101,0.0,0.0,0.0,0.0,0.0,0.0,0.0,0.0,0.0,-11.8404,-11.8599,-11.8404,-11.8287,-11.8287,-11.8287,-11.8287,-11.8287,-11.8287,-11.8287,-11.8287,-11.8287,0.0,0.0,0.0,0.0,-11.6996,-11.6603,-11.6484,-11.6484,-11.6484,-11.6484,-11.6484,-11.6484,-11.6484,-11.6484,-11.6484,-11.6484,-11.6484,-11.6484,-11.5792,-11.4791,-11.3984,-11.2906,-11.2022,-11.1791,-11.1598,-11.1522,-11.1522,-11.1522,-11.1522,-11.1522,-11.1522,-11.1522,-11.1522,-11.1214,-11.0906,-11.0906,-11.0214,-10.929,-10.8482,-10.7982,-10.7405,-10.6521,-10.6213,-10.5905,-10.5213,-10.5482,-10.5097,-10.3097,-10.3289,-10.3097,-10.1712,-10.1404,-10.1289,-10.1289,-10.1289,-10.1289,-10.1289,-10.0481,-9.9673,-9.8827,-9.7326,-9.648,-9.6288,-9.6288,-9.6288,-9.6288,-9.6288,-9.6288,-9.0369,-9.0057,-8.9865,-9.0407,-9.0243,-8.9957,-8.9981,-8.9984,-9.0218,-9.0999,-9.1233,-9.1233,-9.1077,-9.0804,-9.0609,-9.0609,-9.1311,0.0,0.0,0.0,-10.841,0.0,0.0,0.0,0.0,0.0,0.0,0.0,0.0,0.0,0.0,0.0,-11.8287,-11.8287,-11.8287,-11.8287,-11.8287,-11.8287,-11.8287,-11.8287,-11.8287,-11.8287,-11.8287,-11.8287,0.0,0.0,0.0,0.0,-11.7197,-11.6904,-11.6603,-11.6484,-11.6484,-11.6484,-11.6484,-11.6484,-11.6484,-11.6484,-11.6484,-11.6484,-11.6407,-11.6099,-11.5407,-11.4484,-11.3714,-11.2522,-11.1522,-11.1522,-11.1522,-11.1522,-11.1522,-11.1522,-11.1522,-11.1522,-11.1522,-11.1522,-11.1522,-11.0906,-11.0406,-11.0791,-11.0214,-10.929,-10.8482,-10.829,-10.779,-10.6597,-10.6405,-10.6213,-10.579,-10.6097,-10.5905,-10.452,-10.4405,-10.3905,-10.2597,-10.2097,-10.1712,-10.1289,-10.1289,-10.1289,-10.1289,-10.0904,-10.0096,-9.8827,-9.7134,-9.6288,-9.6288,-9.6288,-9.6288,-9.6288,-9.6288,-9.6288,-9.0124,-9.0156,-9.0199,-8.9808,-8.9762,-8.9828,-8.9984,-8.9984,-9.0452,-9.2014,-9.178,-9.1702,-9.299,-9.2287,-9.1428,-9.1311,0.0,0.0,-10.2789,-10.4584,0.0,0.0,0.0,0.0,0.0,0.0,0.0,0.0,0.0,0.0,0.0,0.0,0.0,-11.8287,-11.8287,-11.8287,-11.8287,-11.8287,-11.8287,-11.8287,-11.8287,-11.8287,-11.8287,-11.8287,-11.8287,0.0,0.0,0.0,-11.7401,-11.7009,-11.6712,-11.6517,-11.6221,-11.6292,-11.6484,-11.6407,-11.6407,-11.6484,-11.6484,-11.6292,-11.5984,-11.5484,-11.4714,-11.3791,-11.2983,-11.2214,-11.1714,-11.1522,-11.1522,-11.1522,-11.1522,-11.1522,-11.1522,-11.1522,-11.1522,-11.1522,-11.1522,-11.0291,-10.9483,-11.0291,-10.979,-10.8983,-10.8213,-10.8598,-10.8598,-10.7021,-10.679,-10.6713,-10.6597,-10.6597,-10.6521,-10.6213,-10.5482,-10.4789,-10.3982,-10.3212,-10.2404,-10.1597,-10.1404,-10.1289,-10.1289,-10.1212,-10.0404,-9.9019,-9.7326,-9.648,-9.648,-9.6365,-9.6288,-9.6288,-9.6288,-9.6288,-9.0741,-9.1501,-9.1577,-8.9427,-8.8887,-8.9086,-8.9828,-8.9984,-9.0296,-9.1272,-9.1389,-9.1155,-9.0687,-9.1546,-9.2092,-9.1428,0.0,-10.0407,0.0,0.0,0.0,0.0,0.0,0.0,0.0,0.0,0.0,0.0,0.0,0.0,0.0,0.0,0.0,-11.8287,-11.8287,-11.8287,-11.8287,-11.8287,-11.8287,-11.8287,-11.8287,-11.8287,-11.8287,-11.8287,-11.8287,0.0,0.0,-11.778,-11.7605,-11.6407,-11.6282,-11.6788,-11.4981,-11.5291,-11.6407,-11.5676,-11.5907,-11.6484,-11.6484,-11.5599,-11.4484,-11.5099,-11.4714,-11.3791,-11.2983,-11.2599,-11.2406,-11.1714,-11.1522,-11.1522,-11.1522,-11.1522,-11.1522,-11.1522,-11.1522,-11.1522,-11.1522,-11.1291,-11.1098,-11.1291,-11.1214,-11.0791,-10.9983,-10.9906,-10.9713,-10.8713,-10.8482,-10.829,-10.7598,-10.7521,-10.6905,-10.5482,-10.5213,-10.4789,-10.3982,-10.3789,-10.3289,-10.252,-10.1712,-10.1289,-10.1289,-10.0596,-10.0173,-9.9904,-9.8211,-9.7326,-9.7326,-9.6634,-9.6288,-9.6288,-9.6288,-9.6288,-9.0446,-9.046,-9.0296,-8.9594,-9.0062,-9.0609,-9.0101,-9.0374,-9.0921,-9.178,-9.1936,-9.2092,-9.2678,-9.4161,-9.6113,-9.8533,0.0,-10.4584,-10.8684,0.0,0.0,0.0,0.0,0.0,0.0,0.0,0.0,0.0,0.0,0.0,0.0,0.0,0.0,0.0,-11.8287,-11.8287,-11.8287,-11.8287,-11.8287,-11.8287,-11.8287,-11.8287,-11.8287,-11.8287,-11.8287,-11.8287,0.0,-11.7693,-11.7001,-11.6221,-11.5808,-11.5508,-11.4386,-11.4484,-11.5099,-11.4714,-11.5407,-11.6407,-11.5484,-11.4984,-11.4599,-11.4099,-11.3599,-11.3099,-11.2291,-11.2099,-11.2022,-11.1598,-11.1522,-11.1522,-11.1522,-11.1522,-11.1522,-11.1522,-11.1522,-11.1522,-11.1522,-11.1098,-11.0906,-11.1406,-11.1098,-11.0714,-11.0291,-11.0214,-10.9906,-10.8983,-10.929,-10.929,-10.8482,-10.829,-10.7905,-10.6597,-10.6097,-10.5482,-10.4597,-10.4482,-10.3982,-10.2712,-10.1789,-10.1289,-10.1289,-10.0481,-10.0096,-10.0096,-9.8865,-9.8211,-9.8211,-9.7827,-9.7634,-9.7634,-9.7173,-9.6942,-9.0071,-8.9606,-8.9477,-9.014,-9.1272,-9.2131,-9.1858,-9.2326,-9.3146,-9.4356,-9.4317,-9.4356,-9.5488,-9.7284,0.0,-10.4702,-10.681,-10.8605,0.0,0.0,0.0,0.0,0.0,0.0,0.0,0.0,0.0,0.0,0.0,0.0,0.0,0.0,0.0,0.0,-11.8287,-11.8287,-11.8287,-11.8287,-11.8287,-11.8287,-11.8287,-11.8287,-11.8287,-11.8287,-11.8287,-11.8287,-11.8092,-11.7499,-11.6594,-11.5789,-11.51,-11.4414,-11.3695,-11.3483,-11.3714,-11.3907,-11.4791,-11.5715,-11.4407,-11.4407,-11.4714,-11.3214,-11.2714,-11.2522,-11.1714,-11.1522,-11.1522,-11.1522,-11.1522,-11.1522,-11.1522,-11.1522,-11.1522,-11.1522,-11.1522,-11.1522,-11.1522,-11.0983,-11.0714,-11.1406,-11.0983,-11.0483,-11.0483,-11.0483,-11.0291,-10.9598,-11.0098,-11.0214,-10.929,-10.9213,-10.879,-10.779,-10.7098,-10.6405,-10.5482,-10.4982,-10.4289,-10.2981,-10.1904,-10.1289,-10.1289,-10.0712,-10.0404,-10.0404,-9.9519,-9.9096,-9.9096,-9.8904,-9.8788,-9.8788,-9.8134,-9.7711,-9.0008,-9.0531,-9.1116,-9.1194,-9.1311,-9.2404,-9.6269,-9.7206,-9.7948,-10.0407,-9.9627,-9.8338,-9.7636,-9.9548,-10.2086,-10.4897,0.0,0.0,0.0,0.0,0.0,0.0,0.0,0.0,0.0,0.0,0.0,0.0,0.0,0.0,0.0,0.0,0.0,0.0,0.0,-11.8287,-11.8287,-11.8287,-11.8287,-11.8287,-11.8287,-11.8287,-11.8287,-11.8287,-11.8287,-11.8287,-11.7389,-11.6994,-11.6813,-11.47,-11.4214,-11.4585,-11.2504,-11.2099,-11.2906,-11.3714,-11.4099,-11.4214,-11.3984,-11.3984,-11.3907,-11.3022,-11.2714,-11.2522,-11.1714,-11.1522,-11.1522,-11.1522,-11.1522,-11.1522,-11.1522,-11.1522,-11.1522,-11.1522,-11.1522,-11.1522,-11.1522,-11.1522,-11.1406,-11.1522,-11.1406,-11.1406,-11.1406,-11.1406,-11.1406,-11.1291,-11.1406,-11.1098,-11.0214,-11.0098,-10.9483,-10.7905,-10.7598,-10.729,-10.6405,-10.4905,-10.3905,-10.3789,-10.2212,-10.1289,-10.1289,-10.1212,-10.1212,-10.1212,-10.0404,-9.9981,-9.9981,-9.9173,-9.8788,-9.8788,-9.875,-9.825,-8.931,-8.9828,-9.0726,-9.178,-9.2873,-9.4512,-9.7753,-9.9314,-10.029,-10.1305,-10.2281,-10.2711,-10.1813,-10.3804,-10.6419,-10.8996,0.0,0.0,0.0,0.0,0.0,0.0,0.0,0.0,0.0,0.0,0.0,0.0,0.0,0.0,0.0,0.0,0.0,0.0,0.0,-11.6882,-11.7506,-11.6999,-11.6686,-11.6686,-11.778,-11.8287,-11.8287,-11.7701,-11.7506,-11.7389,-11.6608,-11.5906,-11.5306,-11.4088,-11.3489,-11.3112,-11.2021,-11.2022,-11.2714,-11.2522,-11.3099,-11.3907,-11.2791,-11.2791,-11.3099,-11.2214,-11.2022,-11.1906,-11.1598,-11.1522,-11.1522,-11.1522,-11.1522,-11.1522,-11.1522,-11.1522,-11.1522,-11.1522,-11.1522,-11.1522,-11.1522,-11.1522,-11.1522,-11.1522,-11.1522,-11.1522,-11.1522,-11.1522,-11.1522,-11.1522,-11.1522,-11.1406,-11.1098,-11.0483,-10.9713,-10.8598,-10.7521,-10.679,-10.6405,-10.529,-10.4597,-10.4597,-10.252,-10.1289,-10.1289,-10.1289,-10.1289,-10.1289,-10.1019,-10.0789,-10.0789,-10.0519,-10.0404,-10.0289,-9.9827,-9.9135,-8.8494,-8.893,-8.9984,-9.1702,-9.3615,-9.6191,-10.0485,-10.2086,-10.3101,-10.4506,-10.5092,-10.5287,-10.5014,-10.6614,-10.8684,0.0,0.0,0.0,0.0,0.0,0.0,0.0,0.0,0.0,0.0,0.0,0.0,0.0,0.0,0.0,0.0,0.0,0.0,0.0,0.0,-11.5984,-11.6608,-11.5984,-11.571,-11.571,-11.6882,-11.7506,-11.7506,-11.6882,-11.6608,-11.6491,-11.571,-11.5008,-11.4291,-11.3613,-11.2891,-11.2297,-11.1805,-11.1999,-11.2403,-11.168,-11.2406,-11.3407,-11.2022,-11.2022,-11.2599,-11.1791,-11.1522,-11.1522,-11.1522,-11.1522,-11.1522,-11.1522,-11.1522,-11.1522,-11.1522,-11.1522,-11.1522,-11.1522,-11.1522,-11.1522,-11.1522,-11.1522,-11.1522,-11.1522,-11.1522,-11.1522,-11.1522,-11.1522,-11.1522,-11.1522,-11.1522,-11.1522,-11.1522,-11.0714,-10.9815,-10.8781,-10.7413,-10.6622,-10.6578,-10.5901,-10.5417,-10.5417,-10.3486,-10.2199,-10.1902,-10.1593,-10.1493,-10.1616,-10.1616,-10.1616,-10.1616,-10.1616,-10.1616,-10.15,-10.0998,-10.0127,-8.7642,-8.8032,-8.9164,-9.0882,-9.3263,-9.7206,-10.5014,-10.599,-10.6614,-11.0909,-10.841,-10.5717,-10.6614,-10.7512,-10.8605,-11.0284,0.0,0.0,0.0,0.0,0.0,0.0,0.0,0.0,0.0,0.0,0.0,0.0,0.0,0.0,0.0,0.0,0.0,0.0,0.0,0.0,-11.571,-11.571,-11.571,-11.571,-11.571,-11.571,-11.571,-11.571,-11.571,-11.5593,-11.4813,-11.4383,-11.4296,-11.3194,-11.2492,-11.2285,-11.2018,-11.1925,-11.1912,-11.1612,-11.1983,-11.2599,-11.1791,-11.1983,-11.2599,-11.1791,-11.1483,-11.1483,-11.1483,-11.1522,-11.1522,-11.1522,-11.1522,-11.1522,-11.1522,-11.1522,-11.1522,-11.1522,-11.1522,-11.1522,-11.1522,-11.1522,-11.1522,-11.1522,-11.1522,-11.1522,-11.1522,-11.1522,-11.1522,-11.1522,-11.1522,-11.1522,-11.1483,-11.0675,-10.9705,-10.8316,-10.7305,-10.6905,-10.7197,-10.6418,-10.5913,-10.5913,-10.5097,-10.4092,-10.2988,-10.2199,-10.1807,-10.2094,-10.2094,-10.2094,-10.2094,-10.2094,-10.2094,-10.2094,-10.2094,-10.12,-8.7954,-8.9359,-9.178,-9.3537,-9.7284,-10.1891,-10.7317,-10.6888,-10.681,-11.1689,-11.0714,-10.9308,-11.0089,-11.0987,0.0,-11.2197,0.0,0.0,0.0,0.0,0.0,0.0,0.0,0.0,0.0,0.0,0.0,0.0,0.0,0.0,0.0,0.0,0.0,0.0,0.0,0.0,-11.3915,-11.3915,-11.3915,-11.3915,-11.3915,-11.45,-11.571,-11.5086,-11.4813,-11.4695,-11.3915,-11.3485,-11.3403,-11.2882,-11.2492,-11.2298,-11.2217,-11.2189,-11.2214,-11.2111,-11.2075,-11.2094,-11.2118,-11.2113,-11.2094,-11.2079,-11.192,-11.1825,-11.1825,-11.1615,-11.1522,-11.1522,-11.1522,-11.1522,-11.1522,-11.1522,-11.1522,-11.1522,-11.1522,-11.1522,-11.1522,-11.1522,-11.1522,-11.1522,-11.1522,-11.1522,-11.1522,-11.1522,-11.1522,-11.1522,-11.1522,-11.1589,-11.1788,-11.0621,-10.9723,-10.9304,-10.8503,-10.8,-10.8115,-10.7894,-10.77,-10.77,-10.6301,-10.4789,-10.3303,-10.2992,-10.2604,-10.2094,-10.2094,-10.2094,-10.2094,-10.2094,-10.2094,-10.2094,-10.2094,-10.12,-8.8334,-9.0413,-9.3537,-9.5606,-9.9744,-10.4506,-10.8801,-10.9894,-11.0987,-11.45,-11.3212,-11.1885,-11.3095,-11.3212,0.0,0.0,0.0,0.0,0.0,0.0,0.0,0.0,0.0,0.0,0.0,0.0,0.0,0.0,0.0,0.0,0.0,0.0,0.0,0.0,0.0,0.0,-11.208,-11.208,-11.208,-11.208,-11.2392,-11.3095,-11.411,-11.3993,-11.3915,-11.3915,-11.329,-11.29,-11.2583,-11.2787,-11.2813,-11.2591,-11.25,-11.2506,-11.2417,-11.1999,-11.1685,-11.1592,-11.1701,-11.1685,-11.1592,-11.2103,-11.2189,-11.212,-11.212,-11.1898,-11.1784,-11.1784,-11.1784,-11.1784,-11.1784,-11.1784,-11.1788,-11.1606,-11.1522,-11.1522,-11.1522,-11.1522,-11.1522,-11.1522,-11.1591,-11.1712,-11.1712,-11.1712,-11.1674,-11.1805,-11.1784,-11.1796,-11.1585,-11.0806,-11.0107,-10.9888,-10.9394,-10.9202,-10.9281,-10.929,-10.9212,-10.8783,-10.781,-10.6485,-10.4811,-10.3919,-10.3209,-10.2387,-10.2396,-10.2396,-10.2396,-10.2396,-10.2396,-10.2396,-10.2396,-10.1617,-8.886,-9.146,-9.4825,-9.7597,-10.1696,-10.6185,-11.0284,-11.4305,-11.7311,-11.778,-11.5593,-11.411,-11.5593,-11.4617,0.0,0.0,0.0,0.0,0.0,0.0,0.0,0.0,0.0,0.0,0.0,0.0,0.0,0.0,0.0,0.0,0.0,0.0,0.0,0.0,0.0,0.0,-11.0401,-11.0518,-11.0518,0.0,-11.1416,-11.1807,-11.1689,-11.2704,-11.3095,-11.3017,-11.29,-11.2392,-11.1689,-11.2587,-11.3017,-11.3008,-11.2819,-11.2718,-11.2615,-11.16,-11.1118,-11.1015,-11.1079,-11.0989,-11.1093,-11.1985,-11.2206,-11.2193,-11.231,-11.2297,-11.2311,-11.2311,-11.2311,-11.2311,-11.2311,-11.2311,-11.2214,-11.1713,-11.1609,-11.1609,-11.1609,-11.1609,-11.1609,-11.1609,-11.1807,-11.1881,-11.1881,-11.1881,-11.1995,-11.231,-11.2297,-11.2116,-11.13,-11.1091,-11.0883,-11.0294,-11.031,-11.0401,-11.0588,-11.0596,-11.0284,-10.9581,-10.9386,-10.8605,-10.6888,-10.4883,-10.3583,-10.2984,-10.2906,-10.2789,-10.2906,-10.2789,-10.2789,-10.2789,-10.2789,-10.2281,-9.0411,-9.3564,-9.7792,-10.1696,-10.7981,-11.3798,-11.6101,-11.7311,-11.7506,-11.5593,-11.6296,-11.7311,-11.7701,0.0,0.0,0.0,0.0,0.0,0.0,0.0,0.0,0.0,0.0,0.0,0.0,0.0,0.0,0.0,0.0,0.0,0.0,0.0,0.0,0.0,0.0,-10.9581,-10.9581,-11.0206,-11.0518,0.0,-11.1416,-11.1416,-11.0792,-11.2392,-11.2704,-11.2002,-11.1416,-11.0987,-11.0792,-11.1689,-11.208,-11.2119,-11.2798,-11.2983,-11.2983,-11.2682,-11.2095,-11.1285,-11.1617,-11.0996,-11.0506,-11.1585,-11.1815,-11.1695,-11.2396,-11.2506,-11.2311,-11.2311,-11.2311,-11.2311,-11.2311,-11.2311,-11.2285,-11.2185,-11.2079,-11.2079,-11.2079,-11.2079,-11.2079,-11.2079,-11.2214,-11.2179,-11.2179,-11.2179,-11.2206,-11.2298,-11.2478,-11.2513,-11.2396,-11.19,-11.159,-11.1383,-11.1383,-11.151,-11.1494,-11.1494,-11.1416,-11.1299,-11.0011,-10.8801,-10.7786,-10.6012,-10.4992,-10.4819,-10.3491,-10.3101,-10.3804,-10.3101,-10.2789,-10.2789,-10.2789,-10.2281,-9.1233,-9.5069,-10.0314,-10.6801,-11.2392,-11.6686,-11.8014,-11.8287,-11.7897,-11.6491,-11.7389,-11.8287,0.0,0.0,0.0,0.0,0.0,0.0,0.0,0.0,0.0,0.0,0.0,0.0,0.0,0.0,0.0,0.0,0.0,0.0,0.0,0.0,0.0,0.0,-10.72,-10.7395,-10.7395,-10.7786,-10.8098,-10.8098,-10.8918,-10.9581,-11.0011,-11.1299,-11.1416,-11.0596,-11.0518,-11.0284,-11.0011,-11.0792,-11.1182,-11.1182,-11.1689,-11.1885,-11.1807,-11.1416,-11.111,-11.0987,-11.1086,-11.1105,-11.1104,-11.2105,-11.232,-11.2307,-11.2807,-11.2797,-11.2685,-11.2685,-11.2685,-11.2685,-11.2685,-11.2685,-11.2685,-11.2685,-11.2489,-11.2311,-11.2311,-11.2311,-11.2311,-11.2311,-11.241,-11.2606,-11.3006,-11.3204,-11.3116,-11.2588,-11.271,-11.2885,-11.2885,-11.2593,-11.2392,-11.2392,-11.2392,-11.2392,-11.2392,-11.2392,-11.2197,-11.1807,-11.0987,-10.9894,-10.8684,-10.7317,-10.6302,-10.5404,-10.4506,-10.4116,-10.4116,-10.3608,-10.3218,-10.2789,-10.2789,-10.2593,-9.1654,-9.6772,-10.3283,-11.1086,-11.5203,-11.7389,-11.8092,-11.8287,-11.8287,-11.8092,-11.8209,0.0,0.0,0.0,0.0,0.0,0.0,0.0,0.0,0.0,0.0,0.0,0.0,0.0,0.0,0.0,0.0,0.0,0.0,0.0,0.0,0.0,-10.5092,-10.5404,-10.5287,-10.5209,-10.5404,-10.5404,-10.5404,-10.5404,-10.6185,-10.7395,-10.8918,-10.9699,-10.9816,-10.9308,-10.9816,-10.9699,-10.9113,-11.0011,-11.0284,-11.0284,-11.0401,-11.0518,-11.0401,-10.9816,-10.9816,-11.0284,-11.0284,-11.0714,-11.1299,-11.2197,-11.2509,-11.2704,-11.2783,-11.3017,-11.3095,-11.3095,-11.3095,-11.3095,-11.3095,-11.3095,-11.3095,-11.3095,-11.2813,-11.2405,-11.2405,-11.2405,-11.2405,-11.2405,-11.2591,-11.3015,-11.3912,-11.4087,-11.3886,-11.3109,-11.3117,-11.3095,-11.3095,-11.3095,-11.3095,-11.3095,-11.3095,-11.3095,-11.3095,-11.3095,-11.2783,-11.208,-11.1885,-11.1182,-10.9816,-10.8801,-10.7512,-10.6107,-10.5599,-10.5092,-10.4506,-10.4389,-10.3999,-10.3218,-10.3101,-10.2984,-9.1851,-10.0094,-10.8586,-11.2218,-11.5593,-11.8209,0.0,0.0,-11.8092,0.0,0.0,0.0,0.0,0.0,0.0,0.0,0.0,0.0,0.0,0.0,0.0,0.0,0.0,0.0,0.0,0.0,0.0,0.0,0.0,0.0,0.0,-10.3999,-10.3804,-10.5404,-10.4702,-10.4584,-10.5404,-10.5404,-10.5404,-10.5404,-10.599,-10.6614,-10.7083,-10.7903,-10.8684,-10.9308,-10.8605,-10.8293,-10.8215,-10.9113,-10.9503,-10.9503,-11.0206,-11.0518,-11.0518,-11.0401,-11.0011,-10.9503,-10.9503,-10.8996,-10.8684,-10.9503,-11.0284,-11.0987,-11.1689,-11.2509,-11.3095,-11.3095,-11.3095,-11.3095,-11.3095,-11.3095,-11.3095,-11.3095,-11.2998,-11.3017,-11.3017,-11.3017,-11.3017,-11.3017,-11.2989,-11.3311,-11.4208,-11.3711,-11.3481,-11.4091,-11.3593,-11.3095,-11.3095,-11.3095,-11.3095,-11.3095,-11.3095,-11.3095,-11.3095,-11.3095,-11.3095,-11.29,-11.2197,-11.1689,-11.1494,-11.0011,-10.8996,-10.8801,-10.6614,-10.5717,-10.638,-10.5599,-10.5209,-10.5014,-10.4311,-10.3882,-9.508,-10.1195,-10.7306,0.0,-11.5008,-11.6413,-11.7311,0.0,0.0,0.0,0.0,0.0,0.0,0.0,0.0,0.0,0.0,0.0,0.0,0.0,0.0,0.0,0.0,0.0,0.0,0.0,0.0,0.0,0.0,0.0,-10.4702,-10.3491,-10.3218,-10.3882,-10.3608,-10.3608,-10.3882,-10.3882,-10.3882,-10.3882,-10.4194,-10.4389,-10.4506,-10.5404,-10.6614,-10.7786,-10.7395,-10.7512,-10.802,-10.7903,-10.8098,-10.8605,-10.8996,-10.9113,-10.9113,-10.9113,-10.9191,-10.9308,-10.9308,-10.9308,-10.9503,-10.9816,-11.0518,-11.1299,-11.1689,-11.2392,-11.3095,-11.3095,-11.3095,-11.3095,-11.3095,-11.3095,-11.3095,-11.3095,-11.3095,-11.3095,-11.3095,-11.3095,-11.3095,-11.3095,-11.3485,-11.3798,-11.368,-11.3798,-11.3798,-11.368,-11.329,-11.3095,-11.3095,-11.3095,-11.3095,-11.3095,-11.3095,-11.3095,-11.3095,-11.3095,-11.3095,-11.3095,-11.2314,-11.1611,-11.1104,-10.9894,-10.9113,-10.8605,-10.7395,-10.681,-10.6693,-10.6302,-10.5912,-10.5404,-10.5014,-10.4584,-9.5932,0.0,-10.4118,-11.0185,-11.2515,-11.3808,0.0,0.0,0.0,0.0,0.0,0.0,0.0,0.0,0.0,0.0,0.0,0.0,0.0,0.0,0.0,0.0,0.0,0.0,0.0,0.0,0.0,0.0,0.0,0.0,-10.3804,-10.3218,-10.2789,-10.2789,-10.2789,-10.2789,-10.2789,-10.2789,-10.2789,-10.2789,-10.2789,-10.2789,-10.2789,-10.3882,-10.5014,-10.6107,-10.6302,-10.6888,-10.759,-10.6693,-10.7005,-10.802,-10.7786,-10.7786,-10.802,-10.802,-10.841,-10.8996,-10.8996,-10.9386,-10.9894,-11.0089,-11.0792,-11.1494,-11.1689,-11.2392,-11.3095,-11.3095,-11.3095,-11.3095,-11.3095,-11.3095,-11.3095,-11.3095,-11.3095,-11.3095,-11.3095,-11.3095,-11.3095,-11.3095,-11.3602,-11.3915,-11.3485,-11.3798,-11.3915,-11.3485,-11.3212,-11.3095,-11.3095,-11.3095,-11.3095,-11.3095,-11.3095,-11.3095,-11.3095,-11.3095,-11.3095,-11.3095,-11.2314,-11.1494,-11.0909,-10.9816,-10.8996,-10.8293,-10.8098,-10.7708,-10.7005,-10.7005,-10.6693,-10.6107,-10.5795,-10.5287,0.0,-9.5645,0.0,-10.3503,-10.7394,0.0,0.0,0.0,0.0,0.0,0.0,0.0,0.0,0.0,0.0,0.0,0.0,0.0,0.0,0.0,0.0,0.0,0.0,0.0,0.0,0.0,0.0,0.0,0.0,0.0,-10.2906,-10.2789,-10.2789,-10.2789,-10.2789,-10.2789,-10.2789,-10.2789,-10.2789,-10.2789,-10.2789,-10.2789,-10.2906,-10.4584,-10.4901,-10.4311,-10.5092,-10.599,-10.6693,-10.5795,-10.6497,-10.7903,-10.7083,-10.7317,-10.802,-10.802,-10.802,-10.8098,-10.8098,-10.8098,-10.8293,-10.9113,-10.9894,-11.0714,-11.1494,-11.2392,-11.3095,-11.3095,-11.3095,-11.3095,-11.3095,-11.3095,-11.3095,-11.3095,-11.3095,-11.3095,-11.3095,-11.3095,-11.3095,-11.3095,-11.3095,-11.3407,-11.4188,-11.368,-11.3407,-11.4188,-11.3602,-11.3095,-11.3095,-11.3095,-11.3095,-11.3095,-11.3095,-11.3095,-11.3095,-11.3095,-11.3095,-11.3095,-11.2314,-11.1807,-11.1689,-11.0206,-10.9308,-10.9191,-10.841,-10.802,-10.7903,-10.7903,-10.7903,-10.7786,-10.7005,-10.6185,0.0,0.0,0.0,-10.1388,-10.4001,-10.5998,0.0,0.0,0.0,0.0,0.0,0.0,0.0,0.0,0.0,0.0,0.0,0.0,0.0,0.0,0.0,0.0,0.0,0.0,0.0,0.0,0.0,0.0,0.0,0.0,-10.2789,-10.2789,-10.2789,-10.2789,-10.2789,-10.2789,-10.2789,-10.2789,-10.2789,-10.2789,-10.2789,-10.2789,-10.2789,-10.3413,-10.3608,-10.3296,-10.3608,-10.4506,-10.5795,-10.4897,-10.5287,-10.6419,-10.6614,-10.6888,-10.72,-10.7786,-10.802,-10.802,-10.802,-10.802,-10.8098,-10.8996,-10.9816,-11.0714,-11.1494,-11.2392,-11.3095,-11.3095,-11.3095,-11.3095,-11.3095,-11.3095,-11.3095,-11.3095,-11.3095,-11.3095,-11.3095,-11.3095,-11.3095,-11.3095,-11.3095,-11.3212,-11.3485,-11.329,-11.3212,-11.3485,-11.329,-11.3095,-11.3095,-11.3095,-11.3095,-11.3095,-11.3095,-11.3095,-11.3095,-11.3095,-11.3095,-11.3095,-11.1807,-11.0987,-11.0987,-10.9386,-10.8488,-10.8488,-10.8215,-10.802,-10.802,-10.802,-10.802,-10.802,-10.7708,-10.7083,-9.0535,-9.102,0.0,0.0,0.0,0.0,0.0,0.0,0.0,0.0,0.0,0.0,0.0,0.0,0.0,0.0,0.0,0.0,0.0,0.0,0.0,0.0,0.0,0.0,0.0,0.0,0.0,0.0,0.0,0.0,-10.2789,-10.2789,-10.2789,-10.2789,-10.2789,-10.2789,-10.2789,-10.2789,-10.2789,-10.2789,-10.2789,-10.2789,-10.2789,-10.2789,-10.2789,-10.2789,-10.2789,-10.3608,-10.4897,-10.3999,-10.4506,-10.5912,-10.6185,-10.6614,-10.72,-10.7786,-10.802,-10.802,-10.802,-10.802,-10.8098,-10.8996,-10.9699,-11.0284,-11.1494,-11.2197,-11.2704,-11.3017,-11.3095,-11.3095,-11.3095,-11.3095,-11.3095,-11.3095,-11.3095,-11.3095,-11.3095,-11.3095,-11.3095,-11.3095,-11.3095,-11.3212,-11.3485,-11.329,-11.3212,-11.3485,-11.329,-11.3095,-11.3095,-11.3095,-11.3095,-11.3095,-11.3095,-11.3095,-11.3095,-11.3095,-11.3095,-11.3095,-11.1689,-11.0792,-11.0518,-10.9191,-10.8293,-10.802,-10.802,-10.802,-10.802,-10.802,-10.802,-10.802,-10.802,-10.7512,0.0,0.0,0.0,0.0,0.0,0.0,0.0,0.0,0.0,0.0,0.0,0.0,0.0,0.0,0.0,0.0,0.0,0.0,0.0,0.0,0.0,0.0,0.0,0.0,0.0,0.0,0.0,0.0,0.0,-10.2711,-10.2711,-10.2711,-10.2711,-10.2789,-10.2789,-10.2789,-10.2789,-10.2789,-10.2789,-10.2789,-10.2789,-10.2789,-10.2789,-10.2789,-10.2789,-10.2789,-10.2789,-10.3296,-10.3999,-10.3101,-10.4311,-10.6497,-10.5717,-10.6419,-10.802,-10.802,-10.802,-10.802,-10.802,-10.802,-10.8098,-10.8996,-10.9308,-10.9581,-11.1299,-11.1807,-11.2002,-11.29,-11.3095,-11.3095,-11.3095,-11.3095,-11.3095,-11.3095,-11.3095,-11.3095,-11.3095,-11.3095,-11.3095,-11.3095,-11.3095,-11.3407,-11.4188,-11.368,-11.3407,-11.4188,-11.3602,-11.3095,-11.3095,-11.3095,-11.3095,-11.3095,-11.3095,-11.3095,-11.3095,-11.3095,-11.3095,-11.3095,-11.2314,-11.1416,-11.0518,-10.9699,-10.8918,-10.802,-10.802,-10.802,-10.802,-10.802,-10.802,-10.802,-10.802,-10.7512,-8.932,0.0,0.0,0.0,0.0,0.0,0.0,0.0,0.0,0.0,0.0,0.0,0.0,0.0,0.0,0.0,0.0,0.0,0.0,0.0,0.0,0.0,0.0,0.0,0.0,0.0,0.0,0.0,-10.0993,-10.0993,-10.0993,-10.0993,-10.15,-10.2789,-10.2789,-10.2789,-10.2789,-10.2789,-10.2789,-10.2789,-10.2789,-10.2789,-10.2789,-10.2789,-10.2789,-10.2789,-10.2789,-10.2906,-10.3101,-10.2906,-10.3608,-10.4897,-10.5209,-10.6107,-10.7083,-10.7786,-10.802,-10.802,-10.802,-10.802,-10.8098,-10.8996,-10.9699,-11.0401,-11.1494,-11.2197,-11.2783,-11.3017,-11.3095,-11.3095,-11.3095,-11.3095,-11.3095,-11.3095,-11.3095,-11.3095,-11.3095,-11.3095,-11.3095,-11.3095,-11.3095,-11.3212,-11.3407,-11.329,-11.3212,-11.3407,-11.329,-11.3095,-11.3095,-11.3095,-11.3095,-11.3095,-11.3095,-11.3095,-11.3095,-11.3095,-11.3095,-11.3095,-11.2314,-11.1416,-11.0518,-10.9699,-10.8918,-10.802,-10.802,-10.802,-10.802,-10.802,-10.802,-10.802,-10.802,-10.7512,-9.0259,-8.9088,-8.8367,-9.0475,0.0,0.0,0.0,-9.3084,0.0,0.0,0.0,0.0,0.0,0.0,0.0,0.0,0.0,0.0,0.0,0.0,0.0,0.0,0.0,0.0,0.0,0.0,0.0,0.0,-10.029,-10.029,-10.029,-10.0603,-10.111,-10.1696,-10.2398,-10.2789,-10.2789,-10.2789,-10.2789,-10.2789,-10.2789,-10.2789,-10.2789,-10.2789,-10.2789,-10.2789,-10.2789,-10.2789,-10.2789,-10.2789,-10.3296,-10.4194,-10.5092,-10.5912,-10.681,-10.7708,-10.802,-10.802,-10.802,-10.802,-10.8098,-10.8605,-10.9113,-10.9699,-11.0909,-11.1611,-11.2197,-11.29,-11.3095,-11.3095,-11.3095,-11.3095,-11.3095,-11.3095,-11.3095,-11.3095,-11.3095,-11.3095,-11.3095,-11.3095,-11.3407,-11.3602,-11.3602,-11.3915,-11.411,-11.368,-11.3602,-11.3485,-11.3095,-11.3095,-11.3095,-11.3095,-11.3095,-11.3095,-11.3095,-11.3095,-11.3095,-11.3095,-11.2587,-11.2002,-11.1104,-11.0206,-10.9386,-10.8605,-10.8215,-10.802,-10.802,-10.802,-10.802,-10.802,-10.802,-10.7708,-9.0921,-9.0727,-9.0903,-9.2096,-9.0196,0.0,-9.1855,-9.1558,-9.169,0.0,0.0,0.0,0.0,0.0,0.0,0.0,0.0,0.0,0.0,0.0,0.0,0.0,0.0,0.0,0.0,0.0,-10.0017,-10.0017,-10.0017,-10.0095,-10.0212,-10.0681,-10.0915,-10.0603,-10.1696,-10.2398,-10.2789,-10.2789,-10.2789,-10.2789,-10.2789,-10.2789,-10.2789,-10.2789,-10.2789,-10.2789,-10.2789,-10.2789,-10.2789,-10.2789,-10.3296,-10.4194,-10.5014,-10.5795,-10.681,-10.759,-10.7903,-10.802,-10.802,-10.802,-10.802,-10.802,-10.8098,-10.8605,-11.0011,-11.0596,-11.1104,-11.2704,-11.3095,-11.3095,-11.3095,-11.3095,-11.3095,-11.3095,-11.3095,-11.3095,-11.3095,-11.3095,-11.3095,-11.3095,-11.368,-11.4305,-11.4305,-11.4891,-11.5086,-11.4383,-11.4305,-11.3993,-11.3212,-11.3095,-11.3095,-11.3095,-11.3095,-11.3095,-11.3095,-11.3095,-11.3095,-11.3095,-11.3095,-11.2704,-11.1807,-11.0987,-11.0089,-10.9308,-10.841,-10.802,-10.802,-10.802,-10.802,-10.802,-10.802,-10.802,-9.3549,-9.3299,-9.2487,-9.1846,-9.189,0.0,-8.9447,-8.9999,-9.1561,0.0,0.0,0.0,0.0,0.0,0.0,0.0,0.0,0.0,0.0,0.0,0.0,0.0,0.0,0.0,0.0,0.0,-9.8221,-9.8221,-9.8221,-9.8494,-9.9236,-9.8729,-9.9627,-10.2207,-9.9978,-10.0017,-10.2789,-10.2789,-10.2789,-10.2789,-10.2789,-10.2789,-10.2789,-10.2789,-10.2789,-10.2789,-10.2789,-10.2789,-10.2789,-10.2789,-10.3296,-10.4116,-10.4311,-10.5287,-10.6693,-10.6888,-10.7395,-10.802,-10.802,-10.802,-10.802,-10.802,-10.8918,-11.0089,-11.0401,-11.1494,-11.2704,-11.3017,-11.3095,-11.3095,-11.3095,-11.3095,-11.3095,-11.3095,-11.3095,-11.3095,-11.3095,-11.3095,-11.3095,-11.3095,-11.3212,-11.3407,-11.3407,-11.3485,-11.3485,-11.3407,-11.3407,-11.329,-11.3095,-11.3095,-11.3095,-11.3095,-11.3095,-11.3095,-11.3095,-11.3095,-11.3095,-11.3095,-11.3095,-11.2704,-11.1807,-11.0987,-11.0089,-10.9308,-10.841,-10.802,-10.802,-10.802,-10.802,-10.802,-10.802,-10.802,-9.5377,-9.4723,-9.392,-9.3652,-9.2972,0.0,0.0,-8.9783,-9.0329,0.0,0.0,0.0,0.0,0.0,0.0,0.0,0.0,0.0,0.0,0.0,0.0,0.0,0.0,0.0,0.0,0.0,-9.7714,-9.7714,-9.7714,-9.7909,-9.8338,-9.8338,-9.8924,-10.0212,-10.0212,-10.111,-10.2789,-10.2789,-10.2789,-10.2789,-10.2789,-10.2789,-10.2789,-10.2789,-10.2789,-10.2789,-10.2789,-10.2789,-10.2789,-10.2789,-10.3101,-10.3491,-10.3882,-10.4897,-10.6107,-10.6497,-10.7005,-10.7395,-10.7786,-10.802,-10.802,-10.802,-10.8918,-11.0011,-11.0401,-11.1689,-11.3095,-11.3095,-11.3095,-11.3095,-11.3095,-11.3095,-11.3095,-11.3095,-11.3095,-11.3095,-11.3095,-11.3095,-11.3095,-11.3095,-11.3095,-11.3095,-11.3095,-11.3798,-11.411,-11.3212,-11.3485,-11.3602,-11.3212,-11.3095,-11.3095,-11.3095,-11.3095,-11.3095,-11.3095,-11.3095,-11.3095,-11.3095,-11.3095,-11.2704,-11.1807,-11.0987,-10.9894,-10.8684,-10.8215,-10.802,-10.802,-10.802,-10.802,-10.802,-10.802,-10.802,-9.7415,0.0,0.0,0.0,0.0,-9.3204,0.0,0.0,0.0,0.0,0.0,0.0,0.0,0.0,0.0,0.0,0.0,0.0,0.0,0.0,0.0,0.0,0.0,0.0,0.0,0.0,-9.7714,-9.7714,-9.7714,-9.7714,-9.7714,-9.8377,-9.8416,-9.771,-10.0407,-10.2012,-10.2285,-10.2398,-10.2515,-10.2515,-10.2711,-10.2789,-10.2789,-10.2789,-10.2789,-10.2789,-10.2789,-10.2789,-10.2789,-10.2789,-10.2906,-10.3101,-10.3608,-10.4389,-10.5209,-10.5912,-10.638,-10.681,-10.7512,-10.7903,-10.802,-10.802,-10.8605,-10.9503,-11.0518,-11.1689,-11.2783,-11.2783,-11.3017,-11.3095,-11.29,-11.3017,-11.3095,-11.3095,-11.3095,-11.3095,-11.3095,-11.3095,-11.3095,-11.3095,-11.3095,-11.3095,-11.3095,-11.4305,-11.4695,-11.329,-11.368,-11.3915,-11.3212,-11.3095,-11.3095,-11.3095,-11.3095,-11.3095,-11.3095,-11.3095,-11.3095,-11.3095,-11.3095,-11.2704,-11.1807,-11.0792,-10.9581,-10.802,-10.802,-10.802,-10.802,-10.802,-10.802,-10.802,-10.802,-10.802,0.0,0.0,0.0,0.0,-9.8741,0.0,0.0,0.0,-9.3791,0.0,0.0,0.0,0.0,0.0,0.0,0.0,0.0,0.0,0.0,0.0,0.0,0.0,0.0,0.0,0.0,0.0,0.0,-9.7714,-9.7714,-9.7714,-9.7714,-9.7792,-9.7792,-9.771,-9.8065,-9.9002,-10.0603,-10.111,-10.1305,-10.1305,-10.2281,-10.2789,-10.2789,-10.2789,-10.2789,-10.2789,-10.2789,-10.2789,-10.2789,-10.2789,-10.3296,-10.3882,-10.3218,-10.3491,-10.4311,-10.4389,-10.5404,-10.6693,-10.681,-10.7395,-10.802,-10.802,-10.8605,-10.9581,-11.1182,-11.1807,-11.1885,-11.1885,-11.2509,-11.29,-11.208,-11.2509,-11.3095,-11.3095,-11.3095,-11.3095,-11.3095,-11.3095,-11.3095,-11.3095,-11.3095,-11.3095,-11.3095,-11.329,-11.329,-11.3095,-11.3212,-11.3212,-11.3095,-11.3095,-11.3095,-11.3095,-11.3095,-11.3095,-11.3095,-11.3095,-11.3095,-11.3095,-11.3095,-11.2704,-11.1807,-11.0284,-10.8996,-10.802,-10.802,-10.802,-10.802,-10.802,-10.802,-10.802,-10.802,-10.802,0.0,0.0,0.0,0.0,0.0,0.0,-9.6056,0.0,-9.3432,0.0,0.0,0.0,0.0,0.0,0.0,0.0,0.0,0.0,0.0,0.0,0.0,0.0,0.0,0.0,0.0,0.0,0.0,0.0,0.0,-9.6933,-9.6933,-9.744,-9.7714,-9.7714,-9.8182,-9.8885,-9.9783,-10.0798,-10.1305,-10.1305,-10.2281,-10.2789,-10.2789,-10.2789,-10.2789,-10.2789,-10.2789,-10.2789,-10.2789,-10.2789,-10.2984,-10.3296,-10.2906,-10.3296,-10.4194,-10.4702,-10.5287,-10.6107,-10.7083,-10.7708,-10.8098,-10.8605,-10.8996,-10.9581,-11.1299,-11.1807,-11.1885,-11.2392,-11.2783,-11.3017,-11.2587,-11.2783,-11.3095,-11.3095,-11.3095,-11.3095,-11.3095,-11.3095,-11.3095,-11.3095,-11.3095,-11.3095,-11.3095,-11.3095,-11.3095,-11.3095,-11.3095,-11.3095,-11.3095,-11.3095,-11.3095,-11.3095,-11.3095,-11.3095,-11.3095,-11.3095,-11.3095,-11.3095,-11.2197,-11.1182,-11.0401,-10.9191,-10.841,-10.802,-10.802,-10.802,-10.802,-10.802,-10.802,-10.802,-10.802,-10.802,-10.2906,0.0,0.0,0.0,0.0,0.0,0.0,0.0,0.0,0.0,0.0,0.0,0.0,0.0,0.0,0.0,0.0,0.0,0.0,0.0,0.0,0.0,0.0,0.0,0.0,0.0,0.0,0.0,-9.5918,0.0,-9.6074,-9.6855,-9.7558,-9.8026,-9.8455,-9.8846,-9.9275,-10.029,-10.0915,-10.1188,-10.2008,-10.2593,-10.2789,-10.2789,-10.2789,-10.2789,-10.2789,-10.2789,-10.2789,-10.2789,-10.2789,-10.2789,-10.2789,-10.3218,-10.3804,-10.4702,-10.5209,-10.5599,-10.7083,-10.7786,-10.8098,-10.8684,-10.8918,-10.9191,-11.0714,-11.1104,-11.1299,-11.208,-11.2587,-11.2704,-11.2704,-11.29,-11.3095,-11.3095,-11.3095,-11.3095,-11.3095,-11.3095,-11.3095,-11.3095,-11.3095,-11.3095,-11.3095,-11.3095,-11.3095,-11.3095,-11.3095,-11.3095,-11.3095,-11.3095,-11.3095,-11.3095,-11.3095,-11.3095,-11.3095,-11.3095,-11.3017,-11.2783,-11.1299,-11.0089,-10.9308,-10.8488,-10.802,-10.802,-10.802,-10.802,-10.802,-10.802,-10.802,-10.802,-10.802,-10.802,0.0,0.0,0.0,-10.1305,0.0,0.0,0.0,0.0,-9.7046,0.0,0.0,0.0,0.0,0.0,-9.3146,-9.1546,0.0,0.0,0.0,0.0,0.0,0.0,0.0,0.0,0.0,0.0,0.0,0.0,-9.5918,0.0,-9.5176,-9.5957,-9.7206,-9.8924,-9.8182,-9.8143,-9.9002,-9.908,-9.9509,-10.029,-10.1188,-10.2008,-10.2789,-10.2789,-10.2789,-10.2789,-10.2789,-10.2789,-10.2789,-10.2789,-10.2789,-10.2789,-10.2789,-10.2789,-10.2906,-10.3804,-10.4702,-10.5482,-10.638,-10.7317,-10.802,-10.802,-10.802,-10.8215,-10.9113,-10.9386,-10.9503,-11.0401,-11.1182,-11.1807,-11.1807,-11.2509,-11.3095,-11.3095,-11.3095,-11.3095,-11.3095,-11.3095,-11.3095,-11.3095,-11.3095,-11.3095,-11.3095,-11.3095,-11.3095,-11.3095,-11.3095,-11.3095,-11.3095,-11.3095,-11.3095,-11.3095,-11.3095,-11.3095,-11.3095,-11.3095,-11.2704,-11.1885,-11.0987,-11.0089,-10.9308,-10.8488,-10.802,-10.802,-10.802,-10.802,-10.802,-10.802,-10.802,-10.802,-10.802,-10.802,0.0,0.0,-10.8215,-10.3882,0.0,0.0,0.0,0.0,0.0,0.0,0.0,0.0,0.0,0.0,-9.5996,-9.4864,-9.5371,0.0,0.0,0.0,0.0,0.0,0.0,0.0,0.0,0.0,0.0,-9.1819,-9.2014,-9.2522,0.0,-9.4747,-9.6074,-9.7245,-9.7558,-9.7831,-9.8143,-9.8729,-9.9158,-9.947,-10.0798,-10.1696,-10.2008,-10.2515,-10.2789,-10.2789,-10.2789,-10.2789,-10.2789,-10.2789,-10.2789,-10.2789,-10.2789,-10.2789,-10.2984,-10.4389,-10.5092,-10.5599,-10.7083,-10.7786,-10.802,-10.802,-10.802,-10.8215,-10.8996,-10.9308,-10.9503,-11.0284,-11.1104,-11.1807,-11.1807,-11.2392,-11.3095,-11.3095,-11.3095,-11.3095,-11.3095,-11.3095,-11.3095,-11.3095,-11.3095,-11.3095,-11.3095,-11.3095,-11.3095,-11.3095,-11.3095,-11.3095,-11.3095,-11.3095,-11.3095,-11.3095,-11.3095,-11.3095,-11.3095,-11.2587,-11.1885,-11.0987,-11.0206,-10.9308,-10.8488,-10.8215,-10.802,-10.802,-10.802,-10.802,-10.802,-10.802,-10.802,-10.802,-10.802,-10.802,-11.0401,-11.0596,0.0,-10.6497,-10.5092,0.0,-10.1383,0.0,0.0,0.0,0.0,0.0,0.0,0.0,0.0,-9.7479,-9.7011,0.0,0.0,0.0,0.0,0.0,0.0,0.0,0.0,0.0,-9.1897,-9.014,-9.0296,-9.0921,0.0,0.0,-9.5332,-9.6816,-9.7401,-9.7987,-9.8612,-9.8572,-9.9002,-9.99,-10.0681,-10.1383,-10.2008,-10.2515,-10.2789,-10.2789,-10.2789,-10.2789,-10.2789,-10.2789,-10.2789,-10.2789,-10.2789,-10.2789,-10.2984,-10.4819,-10.5795,-10.6497,-10.759,-10.802,-10.802,-10.802,-10.802,-10.8098,-10.8684,-10.8801,-10.8996,-10.9816,-11.0518,-11.0987,-11.1611,-11.2197,-11.2704,-11.3017,-11.3095,-11.3095,-11.3095,-11.3095,-11.3095,-11.3095,-11.3095,-11.3095,-11.3095,-11.3095,-11.3095,-11.3095,-11.3095,-11.3095,-11.3095,-11.3095,-11.3095,-11.3095,-11.3095,-11.3095,-11.3095,-11.2587,-11.1885,-11.0987,-11.0206,-10.9308,-10.8488,-10.8215,-10.8684,-11.0206,-10.8801,-10.8801,-11.0284,-10.8684,-10.802,-10.802,-10.802,-10.802]},{"header":{"parameterUnit":"m.s-1","parameterCategory":1,"la1":30.6,"la2":29.2853,"lo1":-89.7004,"lo2":-87.6739,"dy":0.0162,"dx":0.0183,"nx":112,"ny":82,"refTime":"2023-03-14T06:00:00:Z","depth":0,"parameterNumber":3,"parameterNumberName":"V-component_of_WINDS"},"data":[0.0,0.0,0.0,0.0,0.0,0.0,0.0,0.0,0.0,0.0,0.0,0.0,0.0,0.0,0.0,0.0,0.0,0.0,0.0,0.0,0.0,0.0,0.0,0.0,0.0,0.0,0.0,0.0,0.0,0.0,0.0,0.0,0.0,0.0,0.0,0.0,0.0,0.0,0.0,0.0,0.0,0.0,0.0,0.0,0.0,0.0,0.0,0.0,0.0,0.0,0.0,0.0,0.0,0.0,0.0,0.0,0.0,0.0,0.0,0.0,0.0,0.0,0.0,0.0,0.0,0.0,0.0,0.0,0.0,0.0,0.0,0.0,0.0,0.0,0.0,0.0,0.0,0.0,0.0,0.0,0.0,0.0,0.0,0.0,0.0,0.0,0.0,0.0,0.0,0.0,-1.4,-1.4889,-1.6198,-1.7012,-1.7012,-1.6558,-1.5778,-1.4618,0.0,0.0,0.0,0.0,0.0,0.0,0.0,0.0,0.0,0.0,0.0,0.0,0.0,0.0,0.0,0.0,0.0,0.0,0.0,0.0,0.0,0.0,0.0,0.0,0.0,0.0,0.0,0.0,0.0,0.0,0.0,0.0,0.0,0.0,0.0,0.0,0.0,0.0,0.0,0.0,0.0,0.0,0.0,0.0,0.0,0.0,0.0,0.0,0.0,0.0,0.0,0.0,0.0,0.0,0.0,0.0,0.0,0.0,0.0,0.0,0.0,0.0,0.0,0.0,0.0,0.0,0.0,0.0,0.0,0.0,0.0,0.0,0.0,0.0,0.0,0.0,0.0,0.0,0.0,0.0,0.0,0.0,0.0,0.0,0.0,0.0,0.0,0.0,0.0,0.0,0.0,0.0,0.0,0.0,0.0,0.0,0.0,0.0,0.0,0.0,0.0,0.0,0.0,0.0,-1.4387,-1.5906,-1.6727,-1.7161,-1.7161,-1.6517,-1.571,-1.4767,0.0,0.0,0.0,0.0,0.0,0.0,0.0,0.0,0.0,0.0,0.0,0.0,0.0,0.0,0.0,0.0,0.0,0.0,0.0,0.0,0.0,0.0,0.0,0.0,0.0,0.0,0.0,0.0,0.0,0.0,0.0,0.0,0.0,0.0,0.0,0.0,0.0,0.0,0.0,0.0,0.0,0.0,0.0,0.0,0.0,0.0,0.0,0.0,0.0,0.0,0.0,0.0,0.0,0.0,0.0,0.0,0.0,0.0,0.0,0.0,0.0,0.0,0.0,0.0,0.0,0.0,0.0,0.0,0.0,0.0,0.0,0.0,0.0,0.0,0.0,0.0,0.0,0.0,0.0,0.0,0.0,0.0,0.0,0.0,0.0,0.0,0.0,0.0,0.0,0.0,0.0,0.0,0.0,0.0,0.0,0.0,0.0,0.0,0.0,0.0,0.0,0.0,0.0,-1.415,-1.4957,-1.6286,-1.6815,-1.708,-1.708,-1.6388,-1.5608,-1.4794,-1.4102,0.0,0.0,0.0,0.0,0.0,0.0,0.0,0.0,0.0,0.0,0.0,0.0,0.0,0.0,0.0,0.0,0.0,0.0,0.0,0.0,0.0,0.0,0.0,0.0,0.0,0.0,0.0,0.0,0.0,0.0,0.0,0.0,0.0,0.0,0.0,0.0,0.0,0.0,0.0,0.0,0.0,0.0,0.0,0.0,0.0,0.0,0.0,0.0,0.0,0.0,0.0,0.0,0.0,0.0,0.0,0.0,0.0,0.0,0.0,0.0,0.0,0.0,0.0,0.0,0.0,0.0,0.0,0.0,0.0,0.0,0.0,0.0,0.0,0.0,0.0,0.0,0.0,0.0,0.0,0.0,0.0,0.0,0.0,0.0,0.0,0.0,0.0,0.0,0.0,0.0,0.0,0.0,0.0,0.0,0.0,0.0,0.0,0.0,0.0,0.0,0.0,0.0,-1.4943,-1.5499,-1.6469,-1.6849,-1.7019,-1.6985,-1.632,-1.5588,-1.4841,-1.4095,0.0,0.0,0.0,0.0,0.0,0.0,0.0,0.0,0.0,0.0,0.0,0.0,0.0,0.0,0.0,0.0,0.0,0.0,0.0,0.0,0.0,0.0,0.0,0.0,0.0,0.0,0.0,0.0,0.0,0.0,0.0,0.0,0.0,0.0,0.0,0.0,0.0,0.0,0.0,0.0,0.0,0.0,0.0,0.0,0.0,0.0,0.0,0.0,0.0,0.0,0.0,0.0,0.0,0.0,0.0,0.0,0.0,0.0,0.0,0.0,0.0,0.0,0.0,0.0,0.0,0.0,0.0,0.0,0.0,0.0,0.0,0.0,0.0,0.0,0.0,0.0,0.0,0.0,0.0,0.0,0.0,0.0,0.0,0.0,0.0,0.0,0.0,0.0,0.0,0.0,0.0,0.0,0.0,0.0,0.0,0.0,0.0,0.0,0.0,0.0,0.0,0.0,-1.5153,-1.5886,-1.6653,-1.6998,-1.7121,-1.6992,-1.6415,-1.575,-1.5004,-1.4245,0.0,0.0,0.0,0.0,0.0,0.0,0.0,0.0,0.0,0.0,0.0,0.0,0.0,0.0,0.0,0.0,0.0,0.0,0.0,0.0,0.0,0.0,0.0,0.0,0.0,0.0,0.0,0.0,0.0,0.0,0.0,0.0,0.0,0.0,0.0,0.0,0.0,0.0,0.0,0.0,0.0,0.0,0.0,0.0,0.0,0.0,0.0,0.0,0.0,0.0,0.0,0.0,0.0,0.0,0.0,0.0,0.0,0.0,0.0,0.0,0.0,0.0,0.0,0.0,0.0,0.0,0.0,0.0,0.0,0.0,0.0,0.0,0.0,0.0,0.0,0.0,0.0,0.0,0.0,0.0,0.0,0.0,0.0,0.0,0.0,0.0,0.0,0.0,0.0,0.0,0.0,0.0,0.0,0.0,0.0,0.0,0.0,0.0,0.0,0.0,0.0,0.0,-1.5147,-1.5893,0.0,-1.7046,-1.7073,-1.7107,-1.6476,-1.5764,-1.5018,0.0,0.0,0.0,0.0,0.0,0.0,0.0,0.0,0.0,0.0,0.0,0.0,0.0,0.0,0.0,0.0,0.0,0.0,0.0,0.0,0.0,0.0,0.0,0.0,0.0,0.0,0.0,0.0,0.0,0.0,0.0,0.0,0.0,0.0,0.0,0.0,0.0,0.0,0.0,0.0,0.0,0.0,0.0,0.0,0.0,0.0,0.0,0.0,0.0,0.0,0.0,0.0,0.0,0.0,0.0,0.0,0.0,0.0,0.0,0.0,0.0,0.0,0.0,0.0,0.0,0.0,0.0,0.0,0.0,0.0,0.0,0.0,0.0,0.0,0.0,0.0,0.0,0.0,0.0,0.0,0.0,0.0,0.0,0.0,0.0,0.0,0.0,0.0,0.0,0.0,0.0,0.0,0.0,0.0,0.0,0.0,0.0,0.0,0.0,0.0,0.0,0.0,-1.4685,-1.5242,-1.5954,0.0,-1.708,-1.7046,-1.7053,-1.6408,-1.573,-1.5079,0.0,0.0,0.0,0.0,0.0,0.0,0.0,0.0,0.0,0.0,0.0,0.0,0.0,0.0,0.0,0.0,0.0,0.0,0.0,0.0,0.0,0.0,0.0,0.0,0.0,0.0,0.0,0.0,0.0,0.0,0.0,0.0,0.0,0.0,0.0,0.0,0.0,0.0,0.0,0.0,0.0,0.0,0.0,0.0,0.0,0.0,0.0,0.0,0.0,0.0,0.0,0.0,0.0,0.0,0.0,0.0,0.0,0.0,0.0,0.0,0.0,0.0,0.0,0.0,0.0,0.0,0.0,0.0,0.0,0.0,0.0,0.0,0.0,0.0,0.0,0.0,0.0,0.0,0.0,0.0,0.0,0.0,0.0,0.0,0.0,0.0,0.0,0.0,0.0,0.0,0.0,0.0,0.0,0.0,0.0,0.0,0.0,0.0,0.0,0.0,0.0,0.0,-1.4855,-1.5486,-1.6144,-1.6904,-1.7107,-1.7073,-1.6781,-1.6198,-1.5662,0.0,0.0,0.0,0.0,0.0,0.0,0.0,0.0,0.0,0.0,0.0,0.0,0.0,0.0,0.0,0.0,0.0,0.0,0.0,0.0,0.0,0.0,0.0,0.0,0.0,0.0,0.0,0.0,0.0,0.0,0.0,0.0,0.0,0.0,0.0,0.0,0.0,0.0,0.0,0.0,0.0,0.0,0.0,0.0,0.0,0.0,0.0,0.0,0.0,0.0,0.0,0.0,0.0,0.0,0.0,0.0,0.0,0.0,0.0,0.0,0.0,0.0,0.0,0.0,0.0,0.0,0.0,0.0,0.0,0.0,0.0,0.0,0.0,0.0,0.0,0.0,0.0,0.0,0.0,0.0,0.0,0.0,0.0,0.0,0.0,0.0,0.0,0.0,0.0,0.0,0.0,0.0,0.0,0.0,0.0,0.0,0.0,0.0,0.0,0.0,0.0,0.0,0.0,-1.4869,-1.5486,-1.6178,-1.7039,-1.708,-1.7046,-1.706,-1.632,-1.571,-1.5364,0.0,0.0,0.0,0.0,0.0,0.0,0.0,0.0,0.0,0.0,0.0,0.0,0.0,0.0,0.0,0.0,0.0,0.0,0.0,0.0,0.0,0.0,0.0,0.0,0.0,0.0,0.0,0.0,0.0,0.0,0.0,0.0,0.0,0.0,0.0,0.0,0.0,0.0,0.0,0.0,0.0,0.0,0.0,0.0,0.0,0.0,0.0,0.0,0.0,0.0,0.0,0.0,0.0,0.0,0.0,0.0,0.0,0.0,0.0,0.0,0.0,0.0,0.0,0.0,0.0,0.0,0.0,0.0,0.0,0.0,0.0,0.0,0.0,0.0,0.0,0.0,0.0,0.0,0.0,0.0,0.0,0.0,0.0,0.0,0.0,0.0,0.0,0.0,0.0,0.0,0.0,0.0,0.0,0.0,0.0,0.0,0.0,0.0,0.0,0.0,0.0,0.0,-1.5038,-1.5615,-1.6246,-1.7026,-1.7032,-1.6992,-1.7012,-1.6246,-1.5662,-1.5425,0.0,0.0,0.0,0.0,0.0,0.0,0.0,0.0,0.0,0.0,0.0,0.0,0.0,0.0,0.0,0.0,0.0,0.0,0.0,0.0,0.0,0.0,0.0,0.0,0.0,0.0,0.0,0.0,0.0,0.0,0.0,0.0,0.0,0.0,0.0,0.0,0.0,0.0,0.0,0.0,0.0,0.0,0.0,0.0,0.0,0.0,0.0,0.0,0.0,0.0,0.0,0.0,0.0,0.0,0.0,0.0,0.0,0.0,0.0,0.0,0.0,0.0,0.0,0.0,0.0,0.0,0.0,0.0,0.0,0.0,0.0,0.0,0.0,0.0,0.0,0.0,0.0,0.0,0.0,0.0,0.0,0.0,0.0,0.0,0.0,0.0,0.0,0.0,0.0,0.0,0.0,0.0,0.0,0.0,0.0,0.0,0.0,0.0,0.0,0.0,0.0,0.0,-1.5296,-1.5818,-1.6327,-1.6917,-1.6978,-1.6924,-1.6781,-1.6103,-1.5608,-1.5445,0.0,0.0,0.0,0.0,0.0,0.0,0.0,0.0,0.0,0.0,0.0,0.0,0.0,0.0,0.0,0.0,0.0,0.0,0.0,0.0,0.0,0.0,0.0,0.0,0.0,0.0,0.0,0.0,0.0,0.0,0.0,0.0,0.0,0.0,0.0,0.0,0.0,0.0,0.0,0.0,0.0,0.0,0.0,0.0,0.0,0.0,0.0,0.0,0.0,0.0,0.0,0.0,0.0,0.0,0.0,0.0,0.0,0.0,0.0,0.0,-0.2887,0.0,0.0,0.0,0.0,0.0,0.0,0.0,0.0,0.0,0.0,0.0,0.0,0.0,0.0,0.0,0.0,0.0,0.0,0.0,0.0,0.0,0.0,0.0,0.0,0.0,0.0,0.0,0.0,0.0,0.0,0.0,0.0,0.0,0.0,0.0,0.0,0.0,0.0,0.0,0.0,0.0,-1.5323,-1.5906,-1.6449,-1.6931,-1.6978,-1.6965,-1.6937,-1.6354,-1.5872,-1.5608,-1.4964,0.0,0.0,0.0,0.0,0.0,0.0,0.0,0.0,0.0,0.0,0.0,0.0,0.0,0.0,0.0,0.0,0.0,0.0,0.0,0.0,0.0,0.0,0.0,0.0,0.0,0.0,0.0,0.0,0.0,0.0,0.0,0.0,0.0,0.0,0.0,0.0,0.0,0.0,0.0,0.0,0.0,0.0,0.0,0.0,0.0,0.0,0.0,0.0,0.0,0.0,0.0,0.0,0.0,0.0,0.0,0.0,0.0,0.0,0.0,0.0,-0.2951,0.0,0.0,0.0,0.0,0.0,0.0,0.0,0.0,0.0,0.0,0.0,0.0,0.0,0.0,0.0,0.0,0.0,0.0,0.0,0.0,0.0,0.0,0.0,0.0,0.0,0.0,0.0,0.0,0.0,0.0,0.0,0.0,0.0,0.0,0.0,0.0,0.0,0.0,0.0,0.0,-1.5445,-1.5981,-1.651,-1.7026,-1.7019,-1.7012,-1.7073,-1.6537,-1.6062,-1.5757,-1.5181,0.0,0.0,0.0,0.0,0.0,0.0,0.0,0.0,0.0,0.0,0.0,0.0,0.0,0.0,0.0,0.0,0.0,0.0,0.0,0.0,0.0,0.0,0.0,0.0,0.0,0.0,0.0,0.0,0.0,0.0,0.0,0.0,0.0,0.0,0.0,0.0,0.0,0.0,0.0,0.0,0.0,0.0,0.0,0.0,0.0,0.0,0.0,0.0,0.0,0.0,0.0,0.0,0.0,-0.313,-0.3176,-0.3236,-0.3265,-0.3277,-0.327,-0.3152,-0.3253,-0.375,0.0,0.0,0.0,0.0,0.0,0.0,0.0,0.0,0.0,0.0,0.0,0.0,0.0,0.0,0.0,0.0,0.0,0.0,0.0,0.0,0.0,0.0,0.0,0.0,0.0,-1.4855,-1.4821,0.0,0.0,0.0,0.0,0.0,0.0,0.0,0.0,0.0,0.0,0.0,0.0,-1.5567,-1.6076,-1.6592,-1.7134,-1.7087,-1.7066,-1.7182,-1.672,-1.6273,-1.592,-1.5384,-1.4923,0.0,0.0,0.0,0.0,0.0,0.0,0.0,0.0,0.0,0.0,0.0,0.0,0.0,0.0,0.0,0.0,0.0,0.0,0.0,0.0,0.0,0.0,0.0,0.0,0.0,0.0,0.0,0.0,0.0,0.0,0.0,0.0,-0.2728,-0.2731,0.0,0.0,0.0,0.0,0.0,0.0,0.0,0.0,0.0,0.0,0.0,0.0,0.0,-0.3103,-0.3164,-0.3185,-0.3225,-0.3285,-0.3317,-0.3363,-0.3423,-0.3453,-0.3467,-0.3467,-0.3471,0.0,-0.6,-0.6058,0.0,0.0,0.0,0.0,0.0,0.0,0.0,0.0,0.0,0.0,0.0,0.0,0.0,0.0,0.0,0.0,0.0,0.0,0.0,0.0,0.0,0.0,-1.5099,-1.512,-1.533,-1.5472,0.0,-1.4957,-1.4645,-1.4509,0.0,0.0,0.0,0.0,0.0,0.0,0.0,0.0,-1.5594,-1.6252,-1.6822,-1.7154,-1.7175,-1.7168,-1.7188,-1.7005,-1.6653,-1.609,-1.5737,-1.5296,-1.4733,-1.4543,0.0,0.0,0.0,0.0,0.0,0.0,0.0,0.0,0.0,0.0,0.0,0.0,0.0,0.0,0.0,0.0,0.0,0.0,0.0,0.0,0.0,0.0,0.0,0.0,0.0,0.0,0.0,0.0,0.0,-0.275,-0.2789,-0.2789,-0.2815,-0.2827,0.0,0.0,0.0,0.0,0.0,0.0,0.0,0.0,0.0,-0.32,-0.3232,-0.3277,-0.3339,-0.3369,-0.3414,-0.3472,-0.3502,-0.3558,-0.3636,-0.3649,-0.3663,-0.3681,-0.3674,-0.4812,-0.6524,-0.5172,-0.6888,-1.0408,0.0,0.0,0.0,0.0,-1.5045,-1.5126,-1.5215,-1.5296,0.0,0.0,0.0,0.0,0.0,0.0,0.0,0.0,0.0,0.0,0.0,0.0,0.0,-1.5649,-1.5791,-1.5893,-1.5913,-1.5696,-1.535,0.0,-1.4631,-1.4489,-1.4428,0.0,0.0,0.0,0.0,-1.5418,-1.5716,-1.6341,-1.6863,-1.7161,-1.7121,-1.7107,-1.7182,-1.706,-1.6795,-1.6354,-1.6049,-1.5655,-1.514,-1.4896,-1.4631,0.0,0.0,0.0,0.0,0.0,0.0,0.0,0.0,0.0,0.0,0.0,0.0,0.0,0.0,0.0,0.0,0.0,0.0,0.0,0.0,0.0,0.0,0.0,0.0,0.0,0.0,0.0,0.0,-0.2803,-0.2848,-0.2841,-0.2894,-0.2913,0.0,0.0,0.0,0.0,0.0,0.0,-0.315,-0.317,-0.3239,-0.3374,-0.3415,-0.3468,-0.3538,-0.3569,-0.3611,-0.367,-0.3701,-0.3754,-0.3827,-0.3838,-0.3851,-0.3873,-0.4558,-0.5665,-0.6903,-0.5667,-0.7063,-1.0184,-1.0848,-1.278,-1.5215,-1.5404,-1.5567,-1.571,-1.5784,-1.5879,-1.5947,-1.5798,0.0,-1.5418,-1.5113,0.0,0.0,0.0,0.0,-1.5282,-1.5384,-1.5669,-1.5967,-1.6151,-1.6279,-1.6374,-1.6415,-1.63,-1.5995,0.0,-1.4984,-1.4774,-1.4699,0.0,0.0,0.0,0.0,-1.5676,-1.594,-1.6497,-1.6951,-1.7168,-1.7134,-1.7121,-1.7188,-1.7093,-1.6904,-1.6598,-1.63,-1.5954,-1.554,-1.5201,-1.4882,-1.4577,0.0,0.0,0.0,0.0,0.0,0.0,0.0,0.0,0.0,0.0,0.0,0.0,0.0,0.0,0.0,0.0,0.0,0.0,0.0,0.0,0.0,0.0,0.0,0.0,0.0,0.0,0.0,0.0,0.0,-0.2875,-0.2999,0.0,0.0,0.0,0.0,-0.3086,-0.3167,-0.3243,-0.3306,-0.3365,-0.3438,-0.3531,-0.3589,-0.3663,-0.3754,-0.3786,-0.3831,-0.3891,-0.3918,-0.3949,-0.3985,-0.4012,-0.4026,-0.4153,-0.6609,-0.7757,-0.7848,-0.9169,-1.1051,-1.319,-1.534,-1.6245,-1.6415,-1.63,-1.6341,-1.6449,-1.632,-1.6279,-1.6334,-1.6598,-1.649,-1.6198,-1.5893,-1.5798,0.0,0.0,-1.5906,-1.6029,-1.6035,-1.6361,-1.6659,-1.653,-1.6822,-1.706,-1.6788,-1.6605,-1.6361,0.0,-1.5689,-1.5493,-1.5201,0.0,-1.514,-1.5147,-1.5662,-1.6103,-1.6266,-1.6802,-1.7175,-1.7188,-1.7317,-1.7344,-1.7202,-1.7182,-1.7053,-1.6754,-1.6463,-1.6157,-1.5845,-1.5404,-1.5031,-1.4733,-1.4577,0.0,0.0,0.0,0.0,0.0,0.0,0.0,0.0,0.0,0.0,0.0,0.0,0.0,0.0,0.0,0.0,0.0,0.0,0.0,0.0,0.0,0.0,0.0,0.0,0.0,0.0,0.0,0.0,-0.31,-0.3219,0.0,-0.3227,-0.3269,-0.3299,-0.3299,-0.3366,-0.344,-0.352,-0.3562,-0.3636,-0.3744,-0.3806,-0.3862,-0.3915,-0.3947,-0.397,-0.3992,-0.4003,-0.4899,-0.6697,-0.6686,-0.7578,-0.9377,-1.0304,-1.0707,-1.0831,-1.2814,-1.3838,-1.4124,-1.4772,-1.576,-1.6944,-1.6897,-1.691,-1.6958,-1.7005,-1.6958,-1.6863,-1.6781,-1.6612,-1.6429,-1.6313,-1.6286,-1.6286,-1.6286,-1.6395,-1.6537,-1.6632,-1.6849,-1.7046,-1.7087,-1.7222,-1.7311,-1.7202,-1.7141,-1.7026,-1.6768,-1.6205,-1.5744,-1.5635,-1.554,-1.5506,-1.5601,-1.5967,-1.6279,-1.6429,-1.6802,-1.706,-1.706,-1.7107,-1.7114,-1.706,-1.706,-1.6971,-1.6761,-1.6558,-1.6266,-1.5866,-1.5608,-1.5242,-1.4746,-1.4685,-1.4563,0.0,0.0,0.0,0.0,0.0,0.0,0.0,0.0,0.0,0.0,0.0,0.0,0.0,0.0,0.0,0.0,0.0,0.0,0.0,0.0,0.0,0.0,0.0,0.0,0.0,0.0,-0.3236,-0.3285,-0.3426,-0.3493,-0.3433,-0.3482,-0.3516,-0.3516,-0.3576,-0.3643,-0.3723,-0.3754,-0.3813,-0.39,-0.3953,-0.3994,-0.4026,-0.4048,-0.4061,-0.4072,-0.4072,-0.4972,-0.6778,-0.6742,-0.7763,-0.9577,-1.1394,-1.2203,-1.2391,-1.5767,-1.6857,-1.6377,-1.5996,-1.6624,-1.7724,-1.767,-1.765,-1.7629,-1.7589,-1.7507,-1.7372,-1.7073,-1.691,-1.6815,-1.6761,-1.6781,-1.6815,-1.6761,-1.6856,-1.7005,-1.71,-1.7236,-1.7358,-1.7405,-1.746,-1.7487,-1.7433,-1.7419,-1.7392,-1.729,-1.6707,-1.6198,-1.6096,-1.6001,-1.5967,-1.6062,-1.6341,-1.6585,-1.6727,-1.6971,-1.7107,-1.706,-1.7053,-1.7032,-1.6985,-1.6978,-1.689,-1.6686,-1.6483,-1.6198,-1.5798,-1.5588,-1.5276,-1.4828,-1.4821,-1.4645,-1.4299,0.0,0.0,0.0,0.0,0.0,0.0,0.0,0.0,0.0,0.0,0.0,0.0,0.0,0.0,0.0,0.0,0.0,0.0,0.0,0.0,0.0,0.0,0.0,-0.311,-0.3262,-0.3388,-0.342,-0.3607,-0.3688,-0.3569,-0.3667,-0.3737,-0.3737,-0.3793,-0.3851,-0.3911,-0.3938,-0.397,-0.4003,-0.403,-0.4061,-0.409,-0.409,-0.4103,-0.4135,-0.4135,-0.4135,-0.439,-0.439,-0.4519,-0.4903,-1.0083,-1.2331,-1.2833,-1.8024,-2.0119,-2.0031,-1.9305,-1.8918,-1.8782,-1.862,-1.8552,-1.8477,-1.8036,-1.788,-1.7826,-1.7541,-1.7446,-1.7419,-1.727,-1.7331,-1.7419,-1.7263,-1.7324,-1.7439,-1.7439,-1.7541,-1.7616,-1.7467,-1.7548,-1.7616,-1.7467,-1.7433,-1.7433,-1.7433,-1.7195,-1.6897,-1.6592,-1.6537,-1.6537,-1.6537,-1.6788,0.0,-1.7175,-1.7324,-1.7358,-1.7209,-1.7195,-1.7134,-1.6992,-1.6971,-1.6836,-1.6524,-1.6232,-1.5934,-1.5628,-1.5337,-1.5106,-1.4964,-1.495,-1.4733,-1.4299,0.0,0.0,0.0,0.0,0.0,0.0,0.0,0.0,0.0,0.0,0.0,0.0,0.0,0.0,0.0,0.0,0.0,0.0,0.0,0.0,0.0,0.0,-0.3276,-0.3291,-0.3467,-0.3621,-0.3699,-0.3813,-0.3876,-0.3842,-0.3907,-0.3953,-0.3953,-0.4009,-0.4061,-0.4097,-0.4106,-0.4124,-0.4155,-0.4166,-0.4173,-0.4184,-0.4184,-0.4187,-0.4193,-0.4193,-0.6284,-1.0315,-1.0141,-1.2312,-1.6308,-1.7587,-1.8176,-1.8303,-1.9798,-2.0363,-2.0227,-1.98,-1.9535,-1.94,-1.9237,-1.8972,-1.8674,-1.8423,-1.8287,-1.8179,-1.8091,-1.807,-1.807,-1.8023,-1.8036,-1.8036,-1.788,-1.788,-1.788,-1.7772,-1.7772,-1.7792,-1.7758,-1.7772,-1.7792,-1.7758,-1.7738,-1.7704,-1.7609,-1.7433,-1.7236,-1.7039,-1.6924,-1.6856,-1.6856,-1.6924,0.0,-1.7175,-1.7229,-1.7243,-1.7195,-1.7195,-1.7134,-1.6992,-1.6775,-1.6517,-1.6218,-1.5927,-1.5581,-1.5174,-1.5072,-1.4903,-1.4645,-1.4536,-1.4421,0.0,0.0,0.0,0.0,0.0,0.0,0.0,0.0,0.0,0.0,0.0,0.0,0.0,0.0,0.0,0.0,0.0,0.0,0.0,0.0,0.0,0.0,-0.4707,-0.4024,-0.3673,-0.3677,-0.3788,-0.388,-0.3981,-0.4037,-0.4026,-0.4079,-0.4113,-0.4113,-0.4148,-0.4177,-0.4191,-0.4191,-0.4202,-0.4218,-0.4218,-0.4218,-0.4218,-0.4218,-0.4218,-0.4218,-0.4218,-0.6584,-1.0903,-1.0857,-1.3164,0.0,-1.8479,-1.8923,-1.8873,-2.0037,-2.0485,0.0,0.0,0.0,0.0,0.0,-1.9271,-1.9006,-1.8728,-1.8565,-1.8477,-1.8355,-1.8355,-1.8389,-1.8335,-1.8355,-1.8375,-1.8145,-1.8091,-1.8057,-1.7901,-1.786,-1.786,-1.786,-1.786,-1.786,-1.786,-1.786,-1.7846,-1.7758,0.0,0.0,-1.7399,-1.7209,-1.7046,-1.6992,-1.7087,-1.7195,-1.7277,-1.729,-1.7311,-1.7378,-1.727,-1.7161,-1.7073,-1.6788,0.0,0.0,0.0,-1.5316,-1.4801,-1.478,0.0,0.0,0.0,-1.436,0.0,0.0,0.0,0.0,-1.4319,-1.4306,0.0,0.0,0.0,0.0,0.0,0.0,0.0,0.0,0.0,0.0,0.0,0.0,0.0,0.0,0.0,0.0,-0.5718,-0.487,-0.4103,-0.3891,-0.3925,-0.4005,-0.411,-0.417,-0.4146,-0.4191,-0.4222,-0.4222,-0.4225,-0.4229,-0.4229,0.0,0.0,0.0,0.0,-0.4229,-0.4233,-0.4229,-0.4229,-0.4233,-0.4229,-0.594,-0.8962,-0.8948,-1.0613,-1.3656,-1.6087,-1.7051,-1.7078,-1.9509,-2.0539,-2.0526,-2.0383,-2.0153,-1.9875,-1.959,-1.9468,0.0,0.0,0.0,0.0,-1.8477,-1.8477,-1.8552,-1.8409,-1.8464,-1.8498,-1.8213,-1.8124,-1.8077,-1.7935,-1.788,-1.786,-1.786,-1.786,-1.786,-1.786,-1.786,-1.786,-1.786,-1.7758,-1.765,-1.765,-1.7412,-1.7175,-1.7046,-1.7256,-1.7426,-1.7446,-1.7446,-1.75,-1.7629,0.0,0.0,-1.7195,-1.6904,-1.6544,-1.6137,-1.5669,-1.5167,-1.4611,-1.457,-1.4563,-1.4563,-1.455,-1.4475,-1.4346,-1.4346,-1.434,-1.4326,-1.4434,-1.4421,0.0,0.0,0.0,0.0,0.0,0.0,0.0,0.0,0.0,0.0,0.0,0.0,0.0,0.0,0.0,-0.6683,-0.5278,-0.4082,-0.4016,-0.4082,-0.4117,-0.4137,-0.418,-0.4208,-0.4202,-0.4233,-0.4253,-0.4253,-0.4278,-0.4292,-0.4292,-0.4292,-0.4292,-0.4292,-0.4292,-0.4302,-0.4327,-0.4302,-0.4305,-0.4327,0.0,0.0,-1.2015,-1.1757,-1.4435,-1.9364,-1.9664,-1.979,-1.977,-2.0278,-2.0539,-2.0526,-2.0383,-2.0227,-2.0031,-1.9854,-1.9644,-1.9413,-1.9325,-1.9217,-1.9094,-1.8918,-1.8884,-1.8871,-1.8728,-1.8694,0.0,-1.8498,-1.8355,-1.8233,-1.8091,-1.7948,-1.786,-1.786,-1.786,-1.786,-1.786,-1.786,-1.786,-1.786,-1.7758,-1.765,-1.765,-1.75,-1.7365,-1.7338,-1.7385,-1.7467,-1.7589,-1.7602,-1.7616,-1.765,-1.7487,-1.7324,-1.7202,-1.6809,-1.6476,-1.6279,-1.573,-1.5303,-1.5065,-1.4943,-1.4882,-1.4882,-1.476,-1.4679,-1.4658,-1.4658,-1.459,-1.4468,-1.438,-1.4326,0.0,0.0,0.0,0.0,0.0,0.0,0.0,0.0,0.0,0.0,0.0,-0.955,0.0,0.0,-0.8265,-0.7275,-0.6331,-0.5437,-0.4364,-0.418,-0.4218,-0.4218,-0.426,-0.4289,-0.4289,-0.4313,-0.4334,-0.4334,-0.4334,-0.4337,-0.4354,-0.4327,-0.4316,-0.433,-0.4316,-0.4316,-0.433,-0.4334,-0.4334,-0.433,-0.5815,-0.8756,-1.2874,-1.4056,-1.6984,-2.098,-2.0756,-2.0614,-2.0539,-2.0539,-2.0539,-2.0526,-2.0383,-2.0275,-2.0187,-1.9963,-1.9786,-1.9624,-1.9481,-1.9325,-1.9183,-1.904,-1.8938,-1.8871,-1.8782,-1.8762,-1.8708,-1.8498,-1.8423,-1.8375,-1.8145,-1.8036,-1.7989,-1.7989,-1.7914,-1.786,-1.786,-1.786,-1.786,-1.786,-1.7812,-1.7758,-1.7758,-1.7684,-1.7595,-1.7446,-1.7487,-1.7561,-1.7629,-1.765,-1.7684,-1.7758,-1.7555,-1.7392,-1.7311,-1.6822,-1.6429,-1.6212,-1.5839,-1.5533,-1.5303,-1.5228,-1.5153,-1.5079,-1.4997,-1.4964,-1.4964,-1.4889,-1.4855,-1.4841,-1.4543,-1.4407,0.0,0.0,0.0,0.0,0.0,0.0,0.0,-0.9261,-0.9391,-0.9718,-0.9885,-1.0081,-1.0445,-1.0568,-1.0,-0.787,-0.7576,-0.6742,-0.4576,-0.4253,-0.4292,-0.4298,-0.4337,-0.4361,-0.4354,-0.4383,-0.4401,-0.4401,-0.4372,-0.4365,-0.439,-0.4341,-0.4323,-0.4354,-0.433,-0.432,-0.4327,-0.4345,-0.4341,-0.432,-0.7171,-1.0119,-1.3012,-1.5674,-1.8338,-2.098,-2.0804,-2.0648,-2.0539,-2.0539,-2.0539,-2.0526,-2.0383,-2.0329,-2.0295,-1.9976,-1.9854,-1.98,-1.9556,-1.9393,-1.9257,-1.9094,-1.8959,-1.883,-1.8782,-1.8762,-1.8708,-1.8477,-1.8464,-1.8477,-1.8233,-1.8124,-1.8091,-1.8091,-1.7968,-1.786,-1.7901,-1.7914,-1.7914,-1.7948,-1.7948,-1.7948,-1.7948,-1.7948,-1.7846,-1.7555,-1.7609,-1.7684,-1.7684,-1.7684,-1.7738,-1.7846,-1.7595,-1.7399,-1.7338,-1.689,-1.6497,-1.6225,-1.6096,-1.5906,-1.5635,-1.5574,-1.5486,-1.5357,-1.5303,-1.5269,-1.5269,-1.5153,-1.5147,-1.5221,-1.4882,-1.4685,-0.9293,-0.9207,-0.9138,-0.9118,-0.9175,-0.9281,0.0,-0.9685,-0.9918,-1.0114,-1.0355,-1.0637,-1.1004,-1.0352,-0.933,-0.8189,-0.7099,-0.6062,-0.4552,-0.4347,-0.4392,-0.4417,-0.4407,-0.4386,-0.4358,-0.4383,-0.4401,-0.4401,-0.4372,-0.4354,-0.4358,-0.4327,-0.4323,-0.4354,-0.4352,-0.4361,-0.439,-0.4365,-0.4354,-0.4483,-0.7283,-1.0078,-1.2999,-1.5594,-1.8243,-2.098,-2.0702,-2.056,-2.0539,-2.0539,-2.0539,-2.0526,-2.0383,-2.0329,-2.0295,-1.9976,-1.9786,-1.9678,-1.9644,-1.9624,-1.9556,-1.9271,-1.9169,-1.9094,-1.885,-1.8762,-1.8762,-1.8728,-1.862,-1.8531,-1.8498,-1.8287,-1.8091,-1.8091,-1.7968,-1.7901,-1.8036,-1.8077,-1.8111,-1.8247,-1.8267,-1.8267,-1.8267,-1.8267,-1.8158,-1.786,-1.7826,-1.7846,-1.7846,-1.7846,-1.7846,-1.786,-1.7595,-1.7317,-1.7053,-1.6971,-1.6856,-1.6686,-1.6659,-1.6571,-1.6402,-1.6144,-1.6001,-1.5981,-1.5723,-1.5588,-1.5588,-1.5574,-1.5499,-1.5391,-1.5472,-1.5303,-0.9363,-0.9289,-0.9261,-0.9416,-0.9526,-0.9665,-0.9951,-1.0147,-1.0347,-1.0624,-1.0898,-1.1184,-1.1498,-1.1318,-1.0612,0.0,-0.791,-0.6816,-0.4576,-0.4361,-0.4379,-0.432,-0.4347,-0.439,-0.4428,-0.4428,-0.4424,-0.4424,-0.4397,-0.4383,-0.4383,-0.4334,-0.4323,-0.4354,-0.4337,-0.4334,-0.4347,-0.4352,-0.4345,-0.4462,-0.8913,-1.1689,-1.2925,-1.7262,-1.9728,-2.0716,-2.0594,-2.0539,-2.0539,-2.0539,-2.0539,-2.0526,-2.0383,-2.0275,-2.0173,-1.9963,-1.9841,-1.9766,-1.9698,-1.961,-1.9481,-1.9271,-1.9203,-1.9149,-1.885,-1.883,-1.885,-1.8674,-1.864,-1.864,-1.8552,-1.8443,-1.8355,-1.8355,-1.8165,-1.8023,-1.8077,-1.8023,-1.8002,-1.8158,-1.8179,-1.8213,-1.8301,-1.8321,-1.8287,-1.8145,-1.8057,-1.8002,-1.8002,-1.7914,-1.7792,-1.7623,-1.7494,-1.7304,-1.7005,-1.6978,-1.6951,-1.689,-1.6883,-1.6815,-1.6659,-1.6537,-1.6429,-1.6341,-1.6218,-1.6151,-1.6151,-1.5981,-1.5906,-1.5927,-1.5642,-1.5499,-0.9367,-0.9383,-0.9448,-0.9693,-0.9881,-1.0089,-1.0424,-1.0596,-1.0784,-1.1171,-1.1404,-1.1633,-1.1959,-1.2233,-1.1571,-0.8851,-0.8447,-0.7579,-0.474,-0.4365,-0.4345,-0.4233,-0.4257,-0.4313,-0.4392,-0.441,-0.4421,-0.4432,-0.441,-0.4397,-0.439,-0.4345,-0.433,-0.4354,-0.4334,-0.4323,-0.4323,-0.4345,-0.4341,-0.4309,-1.0119,-1.2761,-1.2859,-1.8391,-2.079,-2.0539,-2.0539,-2.0539,-2.0539,-2.0539,-2.0539,-2.0526,-2.0329,-2.0207,-2.0085,-1.9929,-1.9854,-1.98,-1.9698,-1.959,-1.9468,-1.9305,-1.9237,-1.9149,-1.8905,-1.8871,-1.8884,-1.8654,-1.8674,-1.8742,-1.862,-1.8565,-1.8531,-1.8531,-1.8335,-1.8165,-1.8199,-1.8124,-1.8091,-1.8253,-1.8267,-1.8301,-1.8423,-1.8443,-1.8443,-1.8443,-1.8301,-1.8179,-1.8111,-1.7948,-1.7758,-1.7507,-1.7487,-1.7365,-1.7066,-1.7039,-1.7026,-1.6985,-1.6978,-1.6931,-1.6815,-1.6775,-1.67,-1.6585,-1.6544,-1.6524,-1.6524,-1.6307,-1.6239,-1.63,-1.59,-1.5791,-0.9261,-0.9473,-0.9714,-0.9898,-1.0208,-1.0543,-1.0816,-1.1016,-1.1265,-1.1719,-1.1813,-1.1959,-1.24,-1.2498,-1.1677,-0.8976,-0.857,-0.7688,-0.4808,-0.4372,-0.4323,-0.4229,-0.4146,-0.4117,0.0,-0.4289,-0.4369,-0.4401,-0.4401,-0.4386,-0.4358,-0.4354,-0.4354,-0.4354,-0.4354,-0.4354,-0.4354,-0.4354,-0.4341,-0.4309,-1.0202,-1.2833,-1.2863,-1.8302,-2.0682,-2.0539,-2.0539,-2.0539,-2.0539,-2.0539,-2.0539,-2.0505,-2.0227,-2.0098,-2.0085,-1.9929,-1.9786,-1.9664,-1.9664,-1.9664,-1.9624,-1.9468,-1.9325,-1.9169,-1.9027,-1.8884,-1.8762,-1.8762,-1.8762,-1.8762,-1.8762,-1.864,-1.8531,-1.8531,-1.8423,-1.8355,-1.8498,-1.8511,-1.8552,-1.8708,-1.8742,-1.8742,-1.8742,-1.8742,-1.8742,-1.8742,-1.862,-1.8409,-1.8124,-1.7948,-1.7812,-1.765,-1.754,-1.7521,-1.7209,-1.7182,-1.7127,-1.6992,-1.6978,-1.6978,-1.6971,-1.6829,-1.6748,-1.6637,-1.6598,-1.6524,-1.6524,-1.651,-1.6442,-1.6313,-1.6429,-1.6341,-0.9579,-0.9832,-1.0122,-1.0485,-1.0751,-1.1024,-1.1351,-1.1519,-1.1666,-1.1878,-1.1825,-1.1772,-1.1866,-1.123,-1.0231,-0.8352,-0.7527,-0.6472,-0.4609,-0.4347,-0.4292,-0.4121,-0.411,0.0,0.0,0.0,0.0,-0.4334,-0.4358,-0.4358,-0.4327,-0.4345,-0.4345,-0.4327,-0.4323,-0.4323,-0.4323,-0.4323,-0.5261,-0.7253,-1.2748,-1.633,-1.8167,-1.9811,-2.0594,-2.0539,-2.0539,-2.0539,-2.0539,-2.0539,-2.0539,-2.0526,-2.0438,-2.0329,-2.0241,-2.0085,-1.9929,-1.98,-1.98,-1.9732,-1.9644,-1.9481,-1.9468,-1.9468,-1.9203,-1.9169,-1.9183,-1.9081,-1.9061,-1.9061,-1.9061,-1.9006,-1.8952,-1.8864,-1.8728,-1.8599,-1.8552,-1.8464,-1.8423,-1.8586,-1.8599,-1.864,-1.8742,-1.8762,-1.8762,-1.8762,-1.8552,-1.8321,-1.8111,-1.7948,-1.7812,-1.7663,-1.7555,-1.7412,-1.7209,-1.7107,-1.7032,-1.6985,-1.6978,-1.6978,-1.6978,-1.6931,-1.6904,-1.6904,-1.6849,-1.6829,-1.6822,-1.672,-1.6646,-1.6598,-1.6544,-1.6469,-0.9877,-1.0249,-1.0637,-1.0992,-1.1265,-1.1531,-1.1825,-1.1886,-1.1906,-1.1992,-1.1759,-1.1411,-1.0997,-1.0282,-0.9157,-0.736,-0.6564,-0.5827,-0.4483,-0.4229,-0.4177,-0.4041,-0.4041,-0.4023,0.0,0.0,0.0,-0.4249,-0.4309,-0.4327,-0.4296,-0.4334,-0.4341,-0.4309,-0.4309,-0.4309,-0.4309,-0.4309,-0.6178,-1.0027,-1.4519,-1.8167,-2.077,-2.0614,-2.0539,-2.0539,-2.0539,-2.0539,-2.0539,-2.0539,-2.0539,-2.0539,-2.0485,-2.0417,-2.0315,-2.0227,-2.0051,-1.9875,-1.982,-1.9732,-1.9644,-1.9535,-1.9535,-1.9535,-1.9345,-1.9305,-1.9325,-1.9237,-1.9203,-1.9183,-1.9128,-1.9128,-1.9094,-1.8938,-1.883,-1.8728,-1.864,-1.8552,-1.8498,-1.8599,-1.862,-1.864,-1.8742,-1.8762,-1.8762,-1.8762,-1.8552,-1.8335,-1.8199,-1.7989,-1.7826,-1.7738,-1.7629,-1.7521,-1.7365,-1.7222,-1.7114,-1.706,-1.7012,-1.6978,-1.6978,-1.6978,-1.6978,-1.6978,-1.6978,-1.6978,-1.6978,-1.6883,-1.6802,-1.6748,-1.6707,-1.6625,-1.0163,-1.0722,-1.1237,-1.1404,-1.171,-1.2013,-1.2192,-1.2086,-1.1972,-1.2045,-1.1625,-1.0891,0.0,0.0,-0.8444,-0.6205,-0.5854,-0.5512,-0.4326,-0.4043,-0.4005,-0.3998,-0.3949,0.0,-0.3947,0.0,0.0,-0.4159,0.0,-0.4292,-0.4267,-0.4323,-0.4341,-0.4309,-0.4309,-0.4309,-0.4309,-0.4441,-0.723,-1.2595,-1.5398,-1.8149,-2.0756,-2.0614,-2.0539,-2.0539,-2.0539,-2.0539,-2.0539,-2.0539,-2.0539,-2.0526,-2.0397,-2.0349,-2.0349,-2.0329,-2.0139,-1.9854,-1.9712,-1.9664,-1.9664,-1.9664,-1.9556,-1.9434,-1.9434,-1.9325,-1.9217,-1.9217,-1.9217,-1.9203,-1.9061,-1.9027,-1.8993,-1.8816,-1.8782,-1.8782,-1.8762,-1.8762,-1.8762,-1.8762,-1.8762,-1.8762,-1.8762,-1.8762,-1.8762,-1.8762,-1.862,-1.8477,-1.8335,-1.8057,-1.786,-1.786,-1.786,-1.7792,-1.765,-1.7494,-1.7344,-1.7188,-1.7053,-1.6978,-1.6978,-1.6978,-1.6978,-1.6978,-1.6978,-1.6978,-1.6978,-1.6978,-1.6904,-1.6768,-1.691,-1.6822,-1.0763,-1.1237,-1.1604,-1.1784,-1.1939,-1.2078,-1.2119,-1.1992,-1.1792,-1.1551,-1.0487,-0.9393,-0.8835,-0.7405,0.0,-0.5524,-0.4977,0.0,-0.417,-0.4191,0.0,-0.4041,-0.4054,-0.4041,-0.3956,-0.4012,0.0,0.0,-0.4204,-0.4257,-0.4296,-0.4334,-0.4341,-0.4309,-0.4309,-0.4309,-0.4309,-0.6425,-0.9138,-1.2539,-1.5378,-1.8013,-2.0594,-2.056,-2.0539,-2.0539,-2.0539,-2.0539,-2.0539,-2.0539,-2.0539,-2.0539,-2.0505,-2.0485,-2.0451,-2.0241,-2.0119,-2.001,-1.9752,-1.9664,-1.9664,-1.9664,-1.9556,-1.9434,-1.9434,-1.9393,-1.9379,-1.9379,-1.9447,-1.9535,-1.9501,-1.9488,-1.9413,-1.9149,-1.9094,-1.9027,-1.8816,-1.8762,-1.8762,-1.8762,-1.8762,-1.8762,-1.8762,-1.8762,-1.8762,-1.8762,-1.8531,-1.8355,-1.8321,-1.8145,-1.7989,-1.788,-1.7772,-1.765,-1.7494,-1.7338,-1.7188,-1.7046,-1.6998,-1.6978,-1.6978,-1.6978,-1.6978,-1.6978,-1.6978,-1.6978,-1.6978,-1.6978,-1.6958,-1.6924,-1.6965,-1.6937,-1.1331,-1.1772,-1.2119,-1.2139,-1.2213,-1.2225,-1.2025,-1.1784,-1.1359,-1.0506,-0.9466,-0.8318,-0.7167,-0.5819,-0.4809,0.0,0.0,0.0,-0.4079,-0.4128,-0.4128,-0.4086,-0.4121,-0.4124,-0.4054,-0.4093,-0.4142,0.0,-0.4208,-0.424,-0.4289,-0.432,-0.4327,-0.4309,-0.4309,-0.4302,-0.4289,-0.8257,-1.1073,-1.2474,-1.6608,-1.9138,-2.0539,-2.0539,-2.0539,-2.0539,0.0,-2.0539,-2.0539,-2.0539,-2.0539,-2.0539,-2.0539,-2.0539,-2.0526,-2.0349,-2.0261,-2.0173,-2.001,-1.9875,-1.9752,-1.9678,-1.961,-1.9535,-1.9535,-1.9481,-1.9447,-1.9522,-1.9535,-1.9556,-1.9556,-1.9556,-1.9481,-1.9183,-1.9115,-1.904,-1.8816,-1.8762,-1.8762,-1.8762,-1.8762,-1.8762,-1.8762,-1.8762,-1.8762,-1.8762,-1.8565,-1.8389,-1.8321,-1.8124,-1.7948,-1.788,-1.7792,-1.7704,-1.7623,-1.7419,-1.7256,-1.7182,-1.7053,-1.6978,-1.6978,-1.6978,-1.6978,-1.6978,-1.6978,-1.6978,-1.6978,-1.6978,-1.6978,-1.6978,-1.6978,-1.6978,-1.1878,-1.2307,-1.2621,-1.2454,-1.2433,-1.2351,-1.1886,-1.1367,-1.0625,-0.929,-0.8436,-0.7291,-0.5264,-0.4804,-0.4303,-0.352,0.0,-0.3739,-0.3949,-0.4005,-0.4054,-0.4131,-0.4166,-0.4184,-0.418,-0.4184,-0.4208,-0.426,-0.424,-0.424,-0.4267,-0.4296,-0.4309,-0.4309,-0.4309,-0.4296,-0.4264,-0.9162,-1.185,-1.2474,-1.7387,-2.0022,-2.0539,-2.0539,-2.0539,-2.0539,0.0,0.0,-2.0539,-2.0539,-2.0539,-2.0539,-2.0539,-2.0539,-2.0539,-2.0526,-2.0438,-2.0329,-2.0275,-2.0098,-1.9854,-1.9732,-1.9664,-1.9624,-1.9624,-1.9535,-1.9468,-1.959,-1.9556,-1.9468,-1.9468,-1.9468,-1.9393,-1.9115,-1.9027,-1.8972,-1.883,-1.8796,-1.8796,-1.8796,-1.8796,-1.8782,-1.8762,-1.8762,-1.8762,-1.8762,-1.862,-1.8464,-1.8335,-1.8077,-1.788,-1.786,-1.786,-1.786,-1.7826,-1.7582,-1.7412,-1.7392,-1.7134,-1.6978,-1.6978,-1.6978,-1.6978,-1.6978,-1.6978,-1.6978,-1.6978,-1.6978,-1.6978,-1.6978,-1.6978,-1.6978,-1.2474,-1.2727,-1.2813,-1.2633,-1.2433,-1.2139,-1.1612,-1.046,0.0,-0.8608,-0.6916,-0.5354,-0.4825,-0.4074,-0.354,-0.3527,-0.3705,-0.3893,-0.4103,-0.4159,-0.4187,0.0,-0.4229,-0.424,-0.4211,-0.4233,0.0,0.0,0.0,-0.4271,-0.4298,-0.4305,-0.4309,-0.4309,-0.4309,-0.4296,-0.4264,-0.5163,-0.8002,-1.2345,-1.3301,-1.6195,-2.0539,-2.0539,-2.0539,-2.0539,0.0,0.0,-2.0539,-2.0539,-2.0539,-2.0539,-2.0539,-2.0539,-2.0526,-2.0417,-2.0349,-2.0295,-2.0051,-1.9922,-1.9875,-1.9841,-1.9678,-1.9468,-1.9468,-1.9447,-1.9434,-1.9468,-1.9535,-1.9624,-1.9624,-1.9624,-1.9576,-1.9393,-1.9257,-1.9128,-1.8993,-1.8959,-1.8959,-1.8959,-1.8959,-1.8905,-1.8782,-1.8762,-1.8762,-1.8762,-1.8531,-1.8355,-1.8321,-1.8158,-1.8002,-1.788,-1.786,-1.7812,-1.7704,-1.7521,-1.7365,-1.7243,-1.7073,-1.6978,-1.6978,-1.6978,-1.6978,-1.6978,-1.6978,-1.6978,-1.6978,-1.6978,-1.6978,-1.6978,-1.6978,-1.6978,-1.2866,-1.3119,-1.318,-1.2854,-1.2507,-1.2045,-1.131,0.0,0.0,-0.7437,-0.5896,-0.4554,-0.3919,-0.3458,-0.33,-0.3449,-0.3596,-0.3775,-0.4003,-0.4072,-0.4131,-0.4208,-0.426,-0.4281,-0.4267,-0.4278,-0.4289,0.0,0.0,-0.4296,-0.4309,-0.4309,-0.4302,-0.4285,-0.4285,-0.4264,-0.4218,-0.5641,-0.8344,-1.24,-1.3779,-1.5791,-1.837,-1.837,-1.837,-1.837,-1.837,0.0,-2.0539,-2.0539,-2.0539,-2.0539,-2.0539,-2.0539,-2.0539,-2.0471,-2.0438,-2.0417,-2.0275,-2.0119,-2.001,-2.0085,-1.9854,-1.9556,-1.9556,-1.9501,-1.9447,-1.9522,-1.9556,-1.9535,-1.9535,-1.9535,-1.9501,-1.9345,-1.9257,-1.9169,-1.9027,-1.8993,-1.8993,-1.8993,-1.8918,-1.885,-1.8782,-1.8762,-1.8762,-1.8762,-1.8511,-1.8321,-1.8321,-1.8111,-1.7948,-1.786,-1.786,-1.7826,-1.7772,-1.7623,-1.7473,-1.7317,-1.7175,-1.706,-1.6985,-1.6978,-1.6978,-1.6978,-1.6978,-1.6978,-1.6978,-1.6978,-1.6978,-1.6978,-1.6978,-1.6978,-1.3168,-1.3413,-1.3487,-1.3066,-1.2547,-1.1931,-1.1078,-0.9402,0.0,-0.6423,-0.5174,-0.4004,-0.3243,-0.3134,-0.3236,-0.334,-0.3452,-0.3614,-0.3869,-0.3956,-0.4054,0.0,-0.4271,0.0,-0.4309,-0.4309,0.0,0.0,0.0,0.0,-0.4309,-0.4309,-0.4296,-0.4264,-0.4264,-0.424,-0.4184,-0.6388,-0.9083,-1.2372,-1.3884,-1.5286,-1.644,-1.5807,-1.5546,-1.5546,-1.6185,0.0,0.0,-2.0278,-2.0539,-2.0539,-2.0539,-2.0539,-2.0539,-2.0539,-2.0539,-2.0539,-2.0505,-2.0349,-2.0173,-2.0261,-2.001,-1.9712,-1.9752,-1.9644,-1.9556,-1.9712,-1.9624,-1.9481,-1.9522,-1.9501,-1.9434,-1.9257,-1.9183,-1.9128,-1.9006,-1.8993,-1.8993,-1.8993,-1.8884,-1.8796,-1.8762,-1.8762,-1.8762,-1.8762,-1.8531,-1.8355,-1.8321,-1.8077,-1.7901,-1.786,-1.786,-1.786,-1.786,-1.7738,-1.7595,-1.7473,-1.7324,-1.7175,-1.7032,-1.7026,-1.7012,-1.6978,-1.6978,-1.6978,-1.6978,-1.6978,-1.6978,-1.6978,-1.6978,-1.6978,-1.3421,-1.356,-1.3507,-1.3221,-1.2507,-1.1698,-1.1037,0.0,-0.6603,-0.6155,-0.4577,-0.3243,-0.3148,-0.3084,-0.3157,-0.3302,-0.3404,-0.3569,-0.3862,-0.3956,-0.4061,-0.424,0.0,0.0,0.0,0.0,0.0,0.0,0.0,0.0,-0.4309,-0.4309,-0.4296,-0.4264,-0.4264,-0.4247,-0.4215,-0.445,-0.716,-1.2336,-1.0065,-1.1574,-1.6312,-1.3884,-1.2728,-1.2847,0.0,0.0,0.0,-1.9509,-2.0539,-2.0539,-2.0539,-2.0539,-2.0539,-2.0539,-2.0539,-2.0526,-2.0397,-2.0329,-2.0295,-2.0173,-1.9997,-1.9875,-2.001,-1.9963,-1.9875,-2.001,-1.9854,-1.9664,-1.98,-1.9732,-1.9576,-1.9271,-1.9094,-1.9006,-1.8993,-1.8993,-1.8993,-1.8993,-1.8972,-1.8918,-1.8782,-1.8762,-1.8762,-1.8762,-1.862,-1.8464,-1.8335,-1.8179,-1.8023,-1.788,-1.786,-1.786,-1.786,-1.7738,-1.754,-1.7629,-1.7487,-1.7331,-1.7182,-1.7175,-1.7114,-1.6985,-1.6978,-1.6978,-1.6978,-1.6978,-1.6978,-1.6978,-1.6978,-1.6978,-1.3327,-1.3654,-1.3715,-1.3274,-1.2498,-1.1423,-1.0227,0.0,-0.621,-0.5406,-0.4117,-0.3148,-0.3148,-0.3077,-0.3116,-0.3176,-0.3247,-0.3369,-0.358,-0.3674,-0.3817,-0.4072,-0.4135,0.0,0.0,0.0,0.0,0.0,0.0,0.0,-0.4281,-0.4281,-0.4267,-0.4236,-0.4218,-0.4193,-0.4166,-0.4155,-0.6086,-0.9821,-0.8763,-0.9393,-1.1442,-1.0288,-1.0677,-1.2339,0.0,0.0,0.0,-2.0037,-2.0539,-2.0539,-2.0539,-2.0539,-2.0539,-2.0539,-2.0539,-2.0539,-2.0471,-2.0397,-2.0329,-2.0363,-2.0261,-2.0139,-2.0119,-2.0064,-2.0031,-2.0085,-1.9942,-1.9786,-1.9752,-1.9644,-1.9468,-1.9257,-1.9237,-1.9237,-1.9128,-1.9047,-1.8993,-1.8993,-1.8918,-1.883,-1.8782,-1.8762,-1.8762,-1.8762,-1.864,-1.8477,-1.8335,-1.8179,-1.8036,-1.788,-1.786,-1.786,-1.786,-1.7812,-1.7738,-1.765,-1.7589,-1.7487,-1.7338,-1.7243,-1.7168,-1.7107,-1.7026,-1.6978,-1.6978,-1.6978,-1.6978,-1.6978,-1.6978,-1.6978,-1.3066,-1.3507,-1.3687,-1.3307,-1.2195,-1.0855,0.0,0.0,-0.5695,-0.4769,-0.3858,-0.3066,-0.3066,-0.3084,-0.3095,-0.3085,-0.3142,-0.324,-0.339,-0.3482,-0.3636,0.0,0.0,-0.4068,0.0,0.0,0.0,0.0,0.0,0.0,0.0,-0.4247,-0.4226,-0.4204,-0.4184,-0.4159,-0.4131,-0.4131,-0.5544,-0.8237,-0.734,-0.7469,-0.8109,-0.734,-0.8494,-1.1182,0.0,0.0,0.0,-2.0151,-2.0539,-2.0539,-2.0539,-2.0539,-2.0539,-2.0539,-2.0539,-2.0539,-2.0539,-2.0471,-2.0397,-2.0505,-2.0451,-2.0309,-2.0207,-2.0173,-2.0173,-2.0173,-2.0031,-1.9841,-1.9698,-1.9556,-1.9393,-1.9291,-1.9325,-1.9325,-1.9217,-1.9094,-1.8993,-1.8993,-1.8871,-1.8762,-1.8762,-1.8762,-1.8762,-1.8762,-1.8674,-1.8531,-1.8335,-1.8233,-1.8091,-1.788,-1.786,-1.786,-1.786,-1.786,-1.7826,-1.7717,-1.7717,-1.765,-1.7494,-1.7344,-1.7236,-1.7195,-1.7053,-1.6978,-1.6978,-1.6978,-1.6978,-1.6978,-1.6978,-1.6978,-1.2633,-1.3042,-1.3315,-1.3307,-1.1582,-0.9704,0.0,0.0,-0.4761,-0.4718,-0.3799,-0.3097,-0.3097,-0.3097,-0.3088,-0.3058,-0.3129,-0.324,-0.339,-0.3464,0.0,0.0,0.0,0.0,0.0,0.0,0.0,0.0,0.0,0.0,0.0,-0.4208,-0.4173,-0.4173,-0.4173,-0.4159,-0.4131,-0.4131,-0.5544,-0.8109,-0.5415,-0.5544,-0.8109,-0.5414,-0.5673,0.0,0.0,0.0,0.0,-1.9382,-2.0539,-2.0539,-2.0539,-2.0539,-2.0539,-2.0539,-2.0539,-2.0539,-2.0539,-2.0539,-2.0539,-2.0539,-2.0451,-2.0329,-2.0329,-2.0329,-2.0329,-2.0329,-2.0098,-1.9841,-1.9698,-1.9556,-1.9434,-1.9434,-1.9305,-1.9203,-1.9203,-1.9094,-1.8993,-1.8993,-1.8871,-1.8762,-1.8762,-1.8762,-1.8762,-1.8762,-1.8762,-1.8654,-1.8355,-1.8321,-1.8199,-1.7901,-1.786,-1.786,-1.786,-1.786,-1.786,-1.786,-1.786,-1.7792,-1.765,-1.75,-1.7344,-1.7195,-1.7053,-1.6978,-1.6978,-1.6978,-1.6978,-1.6978,-1.6978,-1.6978,-1.1686,-1.2066,-1.1999,-1.1189,-1.0054,-0.8853,-0.7085,0.0,-0.4573,-0.3869,-0.3346,-0.3122,-0.3101,-0.3115,-0.3126,-0.3115,-0.3172,-0.324,0.0,0.0,0.0,-0.3764,0.0,0.0,0.0,0.0,0.0,0.0,0.0,0.0,0.0,-0.4193,-0.4184,-0.4204,-0.4166,-0.4142,-0.4131,-0.4131,-0.4515,-0.5415,-0.4515,-0.4515,-0.5414,-0.4519,0.0,0.0,0.0,0.0,0.0,-2.0151,-2.0539,-2.0539,-2.0539,-2.0539,-2.0539,-2.0539,-2.0539,-2.0539,-2.0539,-2.0539,-2.0539,-2.0539,-2.0505,-2.0471,-2.0471,-2.0329,-2.0153,-2.0051,-1.9942,-1.9841,-1.9698,-1.9624,-1.959,-1.959,-1.9468,-1.9359,-1.9359,-1.9237,-1.9128,-1.9128,-1.9027,-1.8918,-1.8918,-1.883,-1.8762,-1.8762,-1.8762,-1.8654,-1.8355,-1.8409,-1.8301,-1.7901,-1.7948,-1.7968,-1.788,-1.786,-1.786,-1.786,-1.786,-1.7846,-1.7792,-1.7555,-1.7399,-1.7351,-1.7107,-1.6978,-1.6978,-1.6978,-1.6978,-1.6978,-1.6978,-1.6978,-1.0971,-1.1013,-1.0712,-1.0015,-0.8848,0.0,0.0,-0.4775,-0.4001,-0.3304,-0.318,-0.3155,-0.3135,-0.3138,-0.314,-0.3127,-0.3165,-0.3212,0.0,0.0,0.0,-0.375,0.0,0.0,0.0,0.0,0.0,0.0,0.0,0.0,0.0,0.0,-0.417,-0.4202,-0.4155,-0.4131,-0.4131,-0.4131,-0.4131,-0.4131,-0.4131,-0.4131,-0.4131,-0.4131,0.0,0.0,0.0,0.0,0.0,-2.0037,-2.0539,-2.0539,-2.0539,-2.0539,-2.0539,-2.0539,-2.0539,-2.0539,-2.0539,-2.0539,-2.0539,-2.0539,-2.0471,-2.0363,-2.0315,-2.0207,-2.0064,-1.9908,-1.9841,-1.9766,-1.9678,-1.9664,-1.9664,-1.9664,-1.959,-1.9522,-1.9522,-1.9345,-1.9203,-1.9203,-1.9094,-1.8972,-1.8918,-1.8871,-1.883,-1.8762,-1.8708,-1.8599,-1.8423,-1.8423,-1.8335,-1.8077,-1.8077,-1.8057,-1.7948,-1.7901,-1.786,-1.786,-1.786,-1.786,-1.786,-1.7629,-1.748,-1.7419,-1.7182,-1.7032,-1.6978,-1.6978,-1.6978,-1.6978,-1.6978,-1.6978,0.0,-1.006,-0.9345,-0.9486,-0.757,-0.5632,-0.5371,-0.4258,0.0,-0.3224,-0.3205,-0.3187,-0.3183,-0.316,-0.3133,-0.3106,-0.3126,0.0,0.0,-0.3377,0.0,0.0,-0.3943,0.0,0.0,0.0,0.0,0.0,0.0,0.0,0.0,0.0,-0.4142,-0.417,-0.4146,-0.4131,-0.4131,-0.4131,-0.4131,-0.4131,-0.4131,-0.4131,-0.4131,-0.4131,0.0,0.0,0.0,0.0,0.0,-1.9382,-2.0539,-2.0539,-2.0539,-2.0539,-2.0539,-2.0539,-2.0539,-2.0539,-2.0539,-2.0539,-2.0539,-2.0539,-2.0349,-2.0085,-1.9942,-1.9976,-2.0051,-1.9888,-1.9766,-1.9664,-1.9664,-1.9664,-1.9664,-1.9664,-1.9664,-1.9664,-1.9664,-1.9434,-1.9237,-1.9237,-1.9115,-1.8972,-1.8816,-1.8905,-1.8938,-1.8782,-1.864,-1.8552,-1.8531,-1.8423,-1.8335,-1.8301,-1.8179,-1.8091,-1.8077,-1.7948,-1.786,-1.786,-1.786,-1.786,-1.786,-1.7717,-1.7575,-1.7426,-1.7263,-1.7114,-1.6978,-1.6978,-1.6978,-1.6978,-1.6978,-1.6978,-0.8532,0.0,-0.7898,-0.633,-0.5531,-0.4734,0.0,-0.3388,-0.3163,-0.3163,-0.3176,-0.3174,-0.3127,-0.3131,-0.3141,-0.3133,0.0,-0.3206,-0.3288,0.0,0.0,-0.3956,-0.4054,0.0,0.0,0.0,0.0,0.0,0.0,0.0,0.0,0.0,-0.4135,-0.4142,-0.4135,-0.4131,-0.4131,-0.4131,-0.4131,-0.4131,-0.4131,-0.4131,-0.4131,-0.4131,0.0,0.0,0.0,0.0,-1.6573,-1.9382,-2.0539,-2.0539,-2.0539,-2.0539,-2.0539,-2.0539,-2.0539,-2.0539,-2.0539,-2.0539,-2.0539,-2.0539,-2.0417,-2.0241,-2.0098,-1.9908,-1.9752,-1.9712,-1.9678,-1.9664,-1.9664,-1.9664,-1.9664,-1.9664,-1.9664,-1.9664,-1.9664,-1.961,-1.9556,-1.9556,-1.9434,-1.9271,-1.9128,-1.904,-1.8938,-1.8782,-1.8728,-1.8674,-1.8552,-1.8599,-1.8531,-1.8179,-1.8213,-1.8179,-1.7935,-1.788,-1.786,-1.786,-1.786,-1.786,-1.786,-1.7717,-1.7575,-1.7426,-1.7161,-1.7012,-1.6978,-1.6978,-1.6978,-1.6978,-1.6978,-1.6978,-0.7311,-0.6791,-0.6185,-0.5035,-0.4433,-0.3829,-0.324,-0.3142,-0.315,-0.3178,-0.3186,-0.3186,-0.318,-0.3171,-0.3164,-0.3164,-0.3189,0.0,0.0,0.0,-0.3786,0.0,0.0,0.0,0.0,0.0,0.0,0.0,0.0,0.0,0.0,0.0,-0.4131,-0.4131,-0.4131,-0.4131,-0.4131,-0.4131,-0.4131,-0.4131,-0.4131,-0.4131,-0.4131,-0.4131,0.0,0.0,0.0,0.0,-1.4779,-1.7471,-1.9382,-2.0539,-2.0539,-2.0539,-2.0539,-2.0539,-2.0539,-2.0539,-2.0539,-2.0539,-2.0526,-2.0471,-2.0349,-2.0187,-2.0051,-1.9841,-1.9664,-1.9664,-1.9664,-1.9664,-1.9664,-1.9664,-1.9664,-1.9664,-1.9664,-1.9664,-1.9664,-1.9556,-1.9468,-1.9535,-1.9434,-1.9271,-1.9128,-1.9094,-1.9006,-1.8796,-1.8762,-1.8728,-1.8654,-1.8708,-1.8674,-1.843,-1.8409,-1.8321,-1.8091,-1.8002,-1.7935,-1.786,-1.786,-1.786,-1.786,-1.7792,-1.765,-1.7426,-1.7127,-1.6978,-1.6978,-1.6978,-1.6978,-1.6978,-1.6978,-1.6978,-0.6401,-0.5317,-0.453,-0.451,-0.3821,-0.3137,-0.3142,-0.3142,-0.3159,-0.3213,-0.3205,-0.3202,-0.3247,-0.3223,-0.3193,-0.3189,0.0,0.0,-0.3589,-0.3652,0.0,0.0,0.0,0.0,0.0,0.0,0.0,0.0,0.0,0.0,0.0,0.0,0.0,-0.4131,-0.4131,-0.4131,-0.4131,-0.4131,-0.4131,-0.4131,-0.4131,-0.4131,-0.4131,-0.4131,-0.4131,0.0,0.0,0.0,-1.1951,-1.5015,-1.7703,-1.9891,-2.0232,-2.0505,-2.0539,-2.0526,-2.0526,-2.0539,-2.0539,-2.0505,-2.0451,-2.0363,-2.0227,-2.0064,-1.9922,-1.9786,-1.9698,-1.9664,-1.9664,-1.9664,-1.9664,-1.9664,-1.9664,-1.9664,-1.9664,-1.9664,-1.9664,-1.9447,-1.9305,-1.9447,-1.9359,-1.9217,-1.9081,-1.9149,-1.9149,-1.8871,-1.883,-1.8816,-1.8796,-1.8796,-1.8782,-1.8728,-1.8599,-1.8477,-1.8335,-1.8199,-1.8057,-1.7914,-1.788,-1.786,-1.786,-1.7846,-1.7704,-1.746,-1.7161,-1.7012,-1.7012,-1.6992,-1.6978,-1.6978,-1.6978,-1.6978,-0.5351,-0.4295,-0.3398,-0.3416,-0.3201,-0.3111,-0.3137,-0.3142,-0.3153,-0.3187,-0.3191,-0.3183,-0.3167,-0.3197,-0.3216,-0.3193,0.0,-0.3506,0.0,0.0,0.0,0.0,0.0,0.0,0.0,0.0,0.0,0.0,0.0,0.0,0.0,0.0,0.0,-0.4131,-0.4131,-0.4131,-0.4131,-0.4131,-0.4131,-0.4131,-0.4131,-0.4131,-0.4131,-0.4131,-0.4131,0.0,0.0,-0.8494,-0.9256,-1.4164,-1.6601,-1.7194,-1.937,-2.0329,-2.0526,-2.0397,-2.0438,-2.0539,-2.0539,-2.0383,-2.0187,-2.0295,-2.0227,-2.0064,-1.9922,-1.9854,-1.982,-1.9698,-1.9664,-1.9664,-1.9664,-1.9664,-1.9664,-1.9664,-1.9664,-1.9664,-1.9664,-1.9624,-1.959,-1.9624,-1.961,-1.9535,-1.9393,-1.9379,-1.9345,-1.9169,-1.9128,-1.9094,-1.8972,-1.8959,-1.885,-1.8599,-1.8552,-1.8477,-1.8335,-1.8301,-1.8213,-1.8077,-1.7935,-1.786,-1.786,-1.7738,-1.7663,-1.7616,-1.7317,-1.7161,-1.7161,-1.7039,-1.6978,-1.6978,-1.6978,-1.6978,-0.5037,-0.395,-0.3153,-0.3129,-0.3145,-0.3164,-0.3146,-0.3156,-0.3175,-0.3205,-0.321,-0.3216,-0.3236,-0.3288,-0.3356,-0.3441,0.0,-0.3652,-0.3795,0.0,0.0,0.0,0.0,0.0,0.0,0.0,0.0,0.0,0.0,0.0,0.0,0.0,0.0,0.0,-0.4131,-0.4131,-0.4131,-0.4131,-0.4131,-0.4131,-0.4131,-0.4131,-0.4131,-0.4131,-0.4131,-0.4131,0.0,-0.6812,-0.8438,-1.2344,-1.4861,-1.6491,-1.9142,-2.0187,-2.0295,-2.0227,-2.0349,-2.0526,-2.0363,-2.0275,-2.0207,-2.0119,-2.0031,-1.9942,-1.98,-1.9766,-1.9752,-1.9678,-1.9664,-1.9664,-1.9664,-1.9664,-1.9664,-1.9664,-1.9664,-1.9664,-1.9664,-1.959,-1.9556,-1.9644,-1.959,-1.9522,-1.9447,-1.9434,-1.9379,-1.9217,-1.9271,-1.9271,-1.9128,-1.9094,-1.9027,-1.8796,-1.8708,-1.8599,-1.8443,-1.8423,-1.8335,-1.8111,-1.7948,-1.786,-1.786,-1.7717,-1.765,-1.765,-1.7433,-1.7317,-1.7317,-1.7249,-1.7216,-1.7216,-1.7134,-1.7093,-0.472,-0.3814,-0.3125,-0.3148,-0.3187,-0.3217,-0.3208,-0.3224,-0.3253,-0.3295,-0.3294,-0.3295,-0.3335,-0.3397,0.0,-0.3656,-0.373,-0.3793,0.0,0.0,0.0,0.0,0.0,0.0,0.0,0.0,0.0,0.0,0.0,0.0,0.0,0.0,0.0,0.0,-0.4131,-0.4131,-0.4131,-0.4131,-0.4131,-0.4131,-0.4131,-0.4131,-0.4131,-0.4131,-0.4131,-0.4131,-0.4124,-0.5259,-0.7514,-1.0767,-1.3241,-1.5571,-1.8771,-2.001,-2.0051,-2.0085,-2.0241,-2.0404,-2.0173,-2.0173,-2.0227,-1.9963,-1.9875,-1.9841,-1.9698,-1.9664,-1.9664,-1.9664,-1.9664,-1.9664,-1.9664,-1.9664,-1.9664,-1.9664,-1.9664,-1.9664,-1.9664,-1.9569,-1.9522,-1.9644,-1.9569,-1.9481,-1.9481,-1.9481,-1.9447,-1.9325,-1.9413,-1.9434,-1.9271,-1.9257,-1.9183,-1.9006,-1.8884,-1.8762,-1.8599,-1.8511,-1.8389,-1.8158,-1.7968,-1.786,-1.786,-1.7758,-1.7704,-1.7704,-1.7548,-1.7473,-1.7473,-1.7439,-1.7419,-1.7419,-1.7304,-1.7229,-0.3536,-0.3161,-0.3182,-0.3185,-0.3189,-0.3227,-0.3362,-0.3395,-0.342,-0.3506,-0.3479,-0.3434,-0.341,-0.3476,-0.3565,-0.3663,0.0,0.0,0.0,0.0,0.0,0.0,0.0,0.0,0.0,0.0,0.0,0.0,0.0,0.0,0.0,0.0,0.0,0.0,0.0,-0.4131,-0.4131,-0.4131,-0.4131,-0.4131,-0.4131,-0.4131,-0.4131,-0.4131,-0.4131,-0.4131,-0.4099,-0.4213,-0.4845,-0.9783,-1.2004,-1.2929,-1.7819,-1.9766,-1.9908,-2.0051,-2.0119,-2.0139,-2.0098,-2.0098,-2.0085,-1.9929,-1.9875,-1.9841,-1.9698,-1.9664,-1.9664,-1.9664,-1.9664,-1.9664,-1.9664,-1.9664,-1.9664,-1.9664,-1.9664,-1.9664,-1.9664,-1.9664,-1.9644,-1.9664,-1.9644,-1.9644,-1.9644,-1.9644,-1.9644,-1.9624,-1.9644,-1.959,-1.9434,-1.9413,-1.9305,-1.9027,-1.8972,-1.8918,-1.8762,-1.8498,-1.8321,-1.8301,-1.8023,-1.786,-1.786,-1.7846,-1.7846,-1.7846,-1.7704,-1.7629,-1.7629,-1.7487,-1.7419,-1.7419,-1.7412,-1.7324,-0.3411,-0.3137,-0.3168,-0.3205,-0.3243,-0.33,-0.3414,-0.3468,-0.3502,-0.3538,-0.3572,-0.3587,-0.3555,-0.3625,-0.3716,-0.3806,0.0,0.0,0.0,0.0,0.0,0.0,0.0,0.0,0.0,0.0,0.0,0.0,0.0,0.0,0.0,0.0,0.0,0.0,0.0,-0.4082,-0.4103,-0.4086,-0.4075,-0.4075,-0.4113,-0.4131,-0.4131,-0.411,-0.4103,-0.4099,-0.4072,-0.4048,-0.4404,-0.9605,-1.1803,-1.2388,-1.7617,-1.9752,-1.9875,-1.9841,-1.9942,-2.0085,-1.9888,-1.9888,-1.9942,-1.9786,-1.9752,-1.9732,-1.9678,-1.9664,-1.9664,-1.9664,-1.9664,-1.9664,-1.9664,-1.9664,-1.9664,-1.9664,-1.9664,-1.9664,-1.9664,-1.9664,-1.9664,-1.9664,-1.9664,-1.9664,-1.9664,-1.9664,-1.9664,-1.9664,-1.9664,-1.9644,-1.959,-1.9481,-1.9345,-1.9149,-1.8959,-1.883,-1.8762,-1.8565,-1.8443,-1.8443,-1.8077,-1.786,-1.786,-1.786,-1.786,-1.786,-1.7812,-1.7772,-1.7772,-1.7724,-1.7704,-1.7684,-1.7602,-1.748,-0.3284,-0.3106,-0.3142,-0.3202,-0.3269,-0.3359,-0.3509,-0.3565,-0.36,-0.3649,-0.367,-0.3677,-0.3667,-0.3723,-0.3795,0.0,0.0,0.0,0.0,0.0,0.0,0.0,0.0,0.0,0.0,0.0,0.0,0.0,0.0,0.0,0.0,0.0,0.0,0.0,0.0,-0.405,-0.4072,-0.405,-0.4041,-0.4041,-0.4082,-0.4103,-0.4103,-0.4082,-0.4072,-0.4068,-0.4041,-0.4016,-0.4366,-0.8692,-1.1119,-1.2299,-1.6709,-1.8491,-1.8684,-1.9441,-1.982,-1.9997,-1.9752,-1.9752,-1.9854,-1.9712,-1.9664,-1.9664,-1.9664,-1.9664,-1.9664,-1.9664,-1.9664,-1.9664,-1.9664,-1.9664,-1.9664,-1.9664,-1.9664,-1.9664,-1.9664,-1.9664,-1.9664,-1.9664,-1.9664,-1.9664,-1.9664,-1.9664,-1.9664,-1.9664,-1.9664,-1.9664,-1.9664,-1.9522,-1.8993,-1.8082,-1.7734,-1.7245,-1.6523,-1.63,-1.6108,-1.6108,-1.5813,-1.5958,-1.6824,-1.6773,-1.6416,-1.564,-1.564,-1.564,-1.564,-1.564,-1.564,-1.5622,-1.5545,-1.5299,-0.3061,-0.3074,-0.3114,-0.3174,-0.3257,-0.3395,-0.3667,-0.3701,-0.3723,-0.3873,-0.3786,-0.3692,-0.3723,-0.3754,-0.3793,-0.3851,0.0,0.0,0.0,0.0,0.0,0.0,0.0,0.0,0.0,0.0,0.0,0.0,0.0,0.0,0.0,0.0,0.0,0.0,0.0,0.0,-0.4041,-0.4041,-0.4041,-0.4041,-0.4041,-0.4041,-0.4041,-0.4041,-0.4041,-0.4037,-0.4009,-0.3994,-0.4241,-0.6799,-0.9471,-1.2049,-1.4623,-1.5606,-1.5977,-1.8677,-1.9746,-1.9854,-1.9712,-1.9746,-1.9854,-1.9712,-1.9657,-1.9657,-1.9657,-1.9664,-1.9664,-1.9664,-1.9664,-1.9664,-1.9664,-1.9664,-1.9664,-1.9664,-1.9664,-1.9664,-1.9664,-1.9664,-1.9664,-1.9664,-1.9664,-1.9664,-1.9664,-1.9664,-1.9664,-1.9664,-1.9664,-1.9664,-1.9657,-1.9515,-1.8235,-1.5464,-1.5081,-1.3956,-1.1503,-1.1068,-1.1015,-1.1015,-1.093,-1.186,-1.4359,-1.4363,-1.3177,-1.073,-1.073,-1.073,-1.073,-1.073,-1.073,-1.073,-1.073,-1.0637,-0.3071,-0.312,-0.3205,-0.3266,-0.3397,-0.3558,-0.3748,-0.3733,-0.373,-0.39,-0.3866,-0.3817,-0.3844,-0.3876,0.0,-0.3918,0.0,0.0,0.0,0.0,0.0,0.0,0.0,0.0,0.0,0.0,0.0,0.0,0.0,0.0,0.0,0.0,0.0,0.0,0.0,0.0,-0.3978,-0.3978,-0.3978,-0.3978,-0.3978,-0.3998,-0.4041,-0.4019,-0.4009,-0.4005,-0.3978,-0.3963,-0.4084,-0.6781,-0.9471,-1.1927,-1.2662,-1.2906,-1.3033,-1.389,-1.5377,-1.6628,-1.4761,-1.5383,-1.6628,-1.4756,-1.5356,-1.6837,-1.6837,-1.8178,-1.9664,-1.9664,-1.9664,-1.9664,-1.9664,-1.9664,-1.9664,-1.9664,-1.9664,-1.9664,-1.9664,-1.9664,-1.9664,-1.9664,-1.9664,-1.9664,-1.9664,-1.9664,-1.9664,-1.9664,-1.9664,-1.9049,-1.7081,-1.5055,-1.3472,-1.2695,-1.2482,-1.2066,-1.1363,-1.1221,-1.1201,-1.1201,-1.1056,-1.1245,-1.1884,-1.1848,-1.1464,-1.073,-1.073,-1.073,-1.073,-1.073,-1.073,-1.073,-1.073,-1.0637,-0.3374,-0.3157,-0.3266,-0.3339,-0.3483,-0.3649,-0.3799,-0.3838,-0.3876,-0.3998,-0.3953,-0.3907,-0.3949,-0.3953,0.0,0.0,0.0,0.0,0.0,0.0,0.0,0.0,0.0,0.0,0.0,0.0,0.0,0.0,0.0,0.0,0.0,0.0,0.0,0.0,0.0,0.0,-0.3914,-0.3914,-0.3914,-0.3914,-0.3925,-0.3949,-0.3985,-0.3981,-0.3978,-0.3978,-0.3956,-0.3943,-0.4054,-0.5664,-0.7271,-0.8738,-0.9842,-1.0214,-1.033,-1.1401,-1.2848,-1.3949,-1.2357,-1.2848,-1.3949,-1.2277,-1.2906,-1.4139,-1.4139,-1.5229,-1.6582,-1.6582,-1.6582,-1.6582,-1.6582,-1.6582,-1.7081,-1.9177,-1.9664,-1.9664,-1.9664,-1.9664,-1.9664,-1.9664,-1.8799,-1.8068,-1.8068,-1.8068,-1.7812,-1.6709,-1.6582,-1.5961,-1.4319,-1.2625,-1.1087,-1.0097,-0.9932,-0.9434,-0.8481,-0.8361,-0.8355,-0.8323,-0.8248,-0.8147,-0.8019,-0.8863,-0.8916,-0.7946,-0.7834,-0.7834,-0.7834,-0.7834,-0.7834,-0.7834,-0.7834,-0.7774,-0.388,-0.3394,-0.3311,-0.3408,-0.3551,-0.3708,-0.3851,-0.3992,-0.4097,-0.4113,-0.4037,-0.3985,-0.4037,-0.4003,0.0,0.0,0.0,0.0,0.0,0.0,0.0,0.0,0.0,0.0,0.0,0.0,0.0,0.0,0.0,0.0,0.0,0.0,0.0,0.0,0.0,0.0,-0.3855,-0.3859,-0.3859,0.0,-0.3891,-0.3904,-0.39,-0.3936,-0.3949,-0.3947,-0.3943,-0.3925,-0.39,-0.3932,-0.3947,-0.4193,-0.653,-0.7511,-0.7875,-1.0255,-1.1189,-1.1423,-1.1185,-1.1298,-1.1431,-1.1153,-1.1299,-1.1421,-1.1433,-1.1555,-1.1804,-1.1804,-1.1804,-1.1804,-1.1804,-1.1804,-1.3033,-1.7818,-1.8927,-1.8927,-1.8927,-1.8927,-1.8927,-1.8927,-1.6959,-1.5351,-1.5351,-1.5351,-1.4496,-1.2176,-1.1555,-1.1413,-1.133,-1.1064,-0.9945,-0.7471,-0.723,-0.639,-0.4103,-0.3862,-0.3851,-0.3827,-0.382,-0.3793,-0.3733,-0.5726,-0.5882,-0.3596,-0.3594,-0.3589,-0.3594,-0.3589,-0.3589,-0.3589,-0.3589,-0.3572,-0.5629,-0.4494,-0.3415,-0.3551,-0.3771,-0.3974,-0.4054,-0.4097,-0.4103,-0.4037,-0.4061,-0.4097,-0.411,0.0,0.0,0.0,0.0,0.0,0.0,0.0,0.0,0.0,0.0,0.0,0.0,0.0,0.0,0.0,0.0,0.0,0.0,0.0,0.0,0.0,0.0,-0.3827,-0.3827,-0.3848,-0.3859,0.0,-0.3891,-0.3891,-0.3869,-0.3925,-0.3936,-0.3911,-0.3891,-0.3876,-0.3869,-0.39,-0.3914,-0.3915,-0.4555,-0.4809,-0.4809,-0.5413,-0.6856,-0.8392,-0.6338,-0.691,-0.8333,-0.6214,-0.6961,-0.8668,-0.8722,-1.0214,-1.1804,-1.1804,-1.1804,-1.1804,-1.1804,-1.1804,-1.2049,-1.3278,-1.3513,-1.3513,-1.3513,-1.3513,-1.3513,-1.3513,-1.3033,-1.2657,-1.2657,-1.2657,-1.2412,-1.1927,-1.0088,-0.8731,-0.8722,-0.6844,-0.536,-0.4741,-0.4741,-0.4503,-0.3893,-0.3893,-0.3891,-0.3887,-0.3842,-0.3799,-0.3764,-0.4165,-0.424,-0.366,-0.3614,-0.36,-0.3625,-0.36,-0.3589,-0.3589,-0.3589,-0.3572,-0.678,-0.5607,-0.4818,-0.3963,-0.3925,-0.4075,-0.4121,-0.4131,-0.4117,-0.4068,-0.4099,-0.4131,0.0,0.0,0.0,0.0,0.0,0.0,0.0,0.0,0.0,0.0,0.0,0.0,0.0,0.0,0.0,0.0,0.0,0.0,0.0,0.0,0.0,0.0,-0.3744,-0.375,-0.375,-0.3764,-0.3775,-0.3775,-0.3803,-0.3827,-0.3842,-0.3887,-0.3891,-0.3862,-0.3859,-0.3851,-0.3842,-0.3869,-0.3883,-0.3883,-0.39,-0.3907,-0.3904,-0.3891,-0.473,-0.5695,-0.4365,-0.4851,-0.5701,-0.4282,-0.4781,-0.5886,-0.6035,-0.6899,-0.8003,-0.8003,-0.8003,-0.8003,-0.8003,-0.8003,-0.8003,-0.8003,-0.9965,-1.1804,-1.1804,-1.1804,-1.1804,-1.1804,-1.0824,-0.9976,-0.9887,-0.8909,-0.853,-0.9726,-0.7634,-0.604,-0.604,-0.4793,-0.3925,-0.3925,-0.3925,-0.3925,-0.3925,-0.3925,-0.3918,-0.3904,-0.3876,-0.3838,-0.3795,-0.3748,-0.3712,-0.3681,-0.3649,-0.3636,-0.3636,-0.3618,-0.3604,-0.3589,-0.3589,-0.3583,-0.8321,-0.7085,-0.6317,-0.4365,-0.4023,-0.4099,-0.4124,-0.4131,-0.4131,-0.4124,-0.4128,0.0,0.0,0.0,0.0,0.0,0.0,0.0,0.0,0.0,0.0,0.0,0.0,0.0,0.0,0.0,0.0,0.0,0.0,0.0,0.0,0.0,-0.367,-0.3681,-0.3677,-0.3674,-0.3681,-0.3681,-0.3681,-0.3681,-0.3708,-0.375,-0.3803,-0.3831,-0.3835,-0.3817,-0.3835,-0.3831,-0.381,-0.3842,-0.3851,-0.3851,-0.3855,-0.3859,-0.3855,-0.3835,-0.3835,-0.3851,-0.3851,-0.3866,-0.3887,-0.3918,-0.3929,-0.3936,-0.3938,-0.3947,-0.3949,-0.3949,-0.3949,-0.3949,-0.3949,-0.3949,-0.3949,-0.3949,-0.7271,-1.0452,-1.0452,-1.0452,-1.0452,-1.0452,-0.8738,-0.716,-0.7217,-0.548,-0.4723,-0.6918,-0.531,-0.3949,-0.3949,-0.3949,-0.3949,-0.3949,-0.3949,-0.3949,-0.3949,-0.3949,-0.3938,-0.3914,-0.3907,-0.3883,-0.3835,-0.3799,-0.3754,-0.3705,-0.3688,-0.367,-0.3649,-0.3645,-0.3632,-0.3604,-0.36,-0.3596,-1.1889,-0.9528,-0.6641,-0.4409,-0.4037,-0.4128,0.0,0.0,-0.4124,0.0,0.0,0.0,0.0,0.0,0.0,0.0,0.0,0.0,0.0,0.0,0.0,0.0,0.0,0.0,0.0,0.0,0.0,0.0,0.0,0.0,0.0,-0.3632,-0.3625,-0.3681,-0.3656,-0.3652,-0.3681,-0.3681,-0.3681,-0.3681,-0.3701,-0.3723,-0.3739,-0.3768,-0.3795,-0.3817,-0.3793,-0.3782,-0.3779,-0.381,-0.3824,-0.3824,-0.3848,-0.3859,-0.3859,-0.3855,-0.3842,-0.3824,-0.3824,-0.3806,-0.3795,-0.3824,-0.3851,-0.3876,-0.39,-0.3929,-0.3949,-0.3949,-0.3949,-0.3949,-0.3949,-0.3949,-0.3949,-0.3949,-0.444,-0.4934,-0.4934,-0.4934,-0.4934,-0.4934,-0.4686,-0.4452,-0.4487,-0.4219,-0.4087,-0.4483,-0.4215,-0.3949,-0.3949,-0.3949,-0.3949,-0.3949,-0.3949,-0.3949,-0.3949,-0.3949,-0.3949,-0.3943,-0.3918,-0.39,-0.3893,-0.3842,-0.3806,-0.3799,-0.3723,-0.3692,-0.3715,-0.3688,-0.3674,-0.3667,-0.3643,-0.3628,-1.1569,-0.9076,-0.6446,0.0,-0.4016,-0.4065,-0.4097,0.0,0.0,0.0,0.0,0.0,0.0,0.0,0.0,0.0,0.0,0.0,0.0,0.0,0.0,0.0,0.0,0.0,0.0,0.0,0.0,0.0,0.0,0.0,-0.3656,-0.3614,-0.3604,-0.3628,-0.3618,-0.3618,-0.3628,-0.3628,-0.3628,-0.3628,-0.3639,-0.3645,-0.3649,-0.3681,-0.3723,-0.3764,-0.375,-0.3754,-0.3772,-0.3768,-0.3775,-0.3793,-0.3806,-0.381,-0.381,-0.381,-0.3813,-0.3817,-0.3817,-0.3817,-0.3824,-0.3835,-0.3859,-0.3887,-0.39,-0.3925,-0.3949,-0.3949,-0.3949,-0.3949,-0.3949,-0.3949,-0.3949,-0.3949,-0.3949,-0.3949,-0.3949,-0.3949,-0.3949,-0.3949,-0.3963,-0.3974,-0.397,-0.3974,-0.3974,-0.397,-0.3956,-0.3949,-0.3949,-0.3949,-0.3949,-0.3949,-0.3949,-0.3949,-0.3949,-0.3949,-0.3949,-0.3949,-0.3922,-0.3898,-0.388,-0.3838,-0.381,-0.3793,-0.375,-0.373,-0.3726,-0.3712,-0.3699,-0.3681,-0.3667,-0.3652,-1.1354,0.0,-0.7852,-0.5293,-0.479,-0.472,0.0,0.0,0.0,0.0,0.0,0.0,0.0,0.0,0.0,0.0,0.0,0.0,0.0,0.0,0.0,0.0,0.0,0.0,0.0,0.0,0.0,0.0,0.0,0.0,-0.3625,-0.3604,-0.3589,-0.3589,-0.3589,-0.3589,-0.3589,-0.3589,-0.3589,-0.3589,-0.3589,-0.3589,-0.3589,-0.3628,-0.3667,-0.3705,-0.3712,-0.3733,-0.3757,-0.3726,-0.3737,-0.3772,-0.3764,-0.3764,-0.3772,-0.3772,-0.3786,-0.3806,-0.3806,-0.382,-0.3838,-0.3844,-0.3869,-0.3893,-0.39,-0.3925,-0.3949,-0.3949,-0.3949,-0.3949,-0.3949,-0.3949,-0.3949,-0.3949,-0.3949,-0.3949,-0.3949,-0.3949,-0.3949,-0.3949,-0.3967,-0.3978,-0.3963,-0.3974,-0.3978,-0.3963,-0.3953,-0.3949,-0.3949,-0.3949,-0.3949,-0.3949,-0.3949,-0.3949,-0.3949,-0.3949,-0.3949,-0.3949,-0.3922,-0.3893,-0.3873,-0.3835,-0.3806,-0.3782,-0.3775,-0.3761,-0.3737,-0.3737,-0.3726,-0.3705,-0.3694,-0.3677,0.0,-1.2698,0.0,-0.7692,-0.6921,0.0,0.0,0.0,0.0,0.0,0.0,0.0,0.0,0.0,0.0,0.0,0.0,0.0,0.0,0.0,0.0,0.0,0.0,0.0,0.0,0.0,0.0,0.0,0.0,0.0,-0.3594,-0.3589,-0.3589,-0.3589,-0.3589,-0.3589,-0.3589,-0.3589,-0.3589,-0.3589,-0.3589,-0.3589,-0.3594,-0.3652,-0.3549,-0.3643,-0.367,-0.3701,-0.3726,-0.3694,-0.3719,-0.3768,-0.3739,-0.3748,-0.3772,-0.3772,-0.3772,-0.3775,-0.3775,-0.3775,-0.3782,-0.381,-0.3838,-0.3866,-0.3893,-0.3925,-0.3949,-0.3949,-0.3949,-0.3949,-0.3949,-0.3949,-0.3949,-0.3949,-0.3949,-0.3949,-0.3949,-0.3949,-0.3949,-0.3949,-0.3949,-0.396,-0.3988,-0.397,-0.396,-0.3988,-0.3967,-0.3949,-0.3949,-0.3949,-0.3949,-0.3949,-0.3949,-0.3949,-0.3949,-0.3949,-0.3949,-0.3949,-0.3922,-0.3904,-0.39,-0.3848,-0.3817,-0.3813,-0.3786,-0.3772,-0.3768,-0.3768,-0.3768,-0.3764,-0.3737,-0.3708,0.0,0.0,0.0,-0.9539,-0.7843,-0.6715,0.0,0.0,0.0,0.0,0.0,0.0,0.0,0.0,0.0,0.0,0.0,0.0,0.0,0.0,0.0,0.0,0.0,0.0,0.0,0.0,0.0,0.0,0.0,0.0,-0.3589,-0.3589,-0.3589,-0.3589,-0.3589,-0.3589,-0.3589,-0.3589,-0.3589,-0.3589,-0.3589,-0.3589,-0.3589,-0.3611,-0.3618,-0.3607,-0.3618,-0.3649,-0.3694,-0.3663,-0.3677,-0.3716,-0.3723,-0.3733,-0.3744,-0.3764,-0.3772,-0.3772,-0.3772,-0.3772,-0.3775,-0.3806,-0.3835,-0.3866,-0.3893,-0.3925,-0.3949,-0.3949,-0.3949,-0.3949,-0.3949,-0.3949,-0.3949,-0.3949,-0.3949,-0.3949,-0.3949,-0.3949,-0.3949,-0.3949,-0.3949,-0.3953,-0.3963,-0.3956,-0.3953,-0.3963,-0.3956,-0.3949,-0.3949,-0.3949,-0.3949,-0.3949,-0.3949,-0.3949,-0.3949,-0.3949,-0.3949,-0.3949,-0.3904,-0.3876,-0.3876,-0.382,-0.3788,-0.3788,-0.3779,-0.3772,-0.3772,-0.3772,-0.3772,-0.3772,-0.3761,-0.3739,-1.3935,-1.3603,0.0,0.0,0.0,0.0,0.0,0.0,0.0,0.0,0.0,0.0,0.0,0.0,0.0,0.0,0.0,0.0,0.0,0.0,0.0,0.0,0.0,0.0,0.0,0.0,0.0,0.0,0.0,0.0,-0.3589,-0.3589,-0.3589,-0.3589,-0.3589,-0.3589,-0.3589,-0.3589,-0.3589,-0.3589,-0.3589,-0.3589,-0.3589,-0.3589,-0.3589,-0.3589,-0.3589,-0.3618,-0.3663,-0.3632,-0.3649,-0.3699,-0.3708,-0.3723,-0.3744,-0.3764,-0.3772,-0.3772,-0.3772,-0.3772,-0.3775,-0.3806,-0.3831,-0.3851,-0.3893,-0.3918,-0.3936,-0.3947,-0.3949,-0.3949,-0.3949,-0.3949,-0.3949,-0.3949,-0.3949,-0.3949,-0.3949,-0.3949,-0.3949,-0.3949,-0.3949,-0.3953,-0.3963,-0.3956,-0.3953,-0.3963,-0.3956,-0.3949,-0.3949,-0.3949,-0.3949,-0.3949,-0.3949,-0.3949,-0.3949,-0.3949,-0.3949,-0.3949,-0.39,-0.3869,-0.3859,-0.3813,-0.3782,-0.3772,-0.3772,-0.3772,-0.3772,-0.3772,-0.3772,-0.3772,-0.3772,-0.3754,0.0,0.0,0.0,0.0,0.0,0.0,0.0,0.0,0.0,0.0,0.0,0.0,0.0,0.0,0.0,0.0,0.0,0.0,0.0,0.0,0.0,0.0,0.0,0.0,0.0,0.0,0.0,0.0,0.0,-0.3587,-0.3587,-0.3587,-0.3587,-0.3589,-0.3589,-0.3589,-0.3589,-0.3589,-0.3589,-0.3589,-0.3589,-0.3589,-0.3589,-0.3589,-0.3589,-0.3589,-0.3589,-0.3607,-0.3632,-0.36,-0.3643,-0.3719,-0.3692,-0.3716,-0.3772,-0.3772,-0.3772,-0.3772,-0.3772,-0.3772,-0.3775,-0.3806,-0.3817,-0.3827,-0.3887,-0.3904,-0.3911,-0.3943,-0.3949,-0.3949,-0.3949,-0.3949,-0.3949,-0.3949,-0.3949,-0.3949,-0.3949,-0.3949,-0.3949,-0.3949,-0.3949,-0.396,-0.3988,-0.397,-0.396,-0.3988,-0.3967,-0.3949,-0.3949,-0.3949,-0.3949,-0.3949,-0.3949,-0.3949,-0.3949,-0.3949,-0.3949,-0.3949,-0.3922,-0.3891,-0.3859,-0.3831,-0.3803,-0.3772,-0.3772,-0.3772,-0.3772,-0.3772,-0.3772,-0.3772,-0.3772,-0.3754,-1.3349,0.0,0.0,0.0,0.0,0.0,0.0,0.0,0.0,0.0,0.0,0.0,0.0,0.0,0.0,0.0,0.0,0.0,0.0,0.0,0.0,0.0,0.0,0.0,0.0,0.0,0.0,0.0,-0.3527,-0.3527,-0.3527,-0.3527,-0.3544,-0.3589,-0.3589,-0.3589,-0.3589,-0.3589,-0.3589,-0.3589,-0.3589,-0.3589,-0.3589,-0.3589,-0.3589,-0.3589,-0.3589,-0.3594,-0.36,-0.3594,-0.3618,-0.3663,-0.3674,-0.3705,-0.3739,-0.3764,-0.3772,-0.3772,-0.3772,-0.3772,-0.3775,-0.3806,-0.3831,-0.3855,-0.3893,-0.3918,-0.3938,-0.3947,-0.3949,-0.3949,-0.3949,-0.3949,-0.3949,-0.3949,-0.3949,-0.3949,-0.3949,-0.3949,-0.3949,-0.3949,-0.3949,-0.3953,-0.396,-0.3956,-0.3953,-0.396,-0.3956,-0.3949,-0.3949,-0.3949,-0.3949,-0.3949,-0.3949,-0.3949,-0.3949,-0.3949,-0.3949,-0.3949,-0.3922,-0.3891,-0.3859,-0.3831,-0.3803,-0.3772,-0.3772,-0.3772,-0.3772,-0.3772,-0.3772,-0.3772,-0.3772,-0.3754,-1.2585,-1.3314,-1.4391,-1.575,0.0,0.0,0.0,-0.8553,0.0,0.0,0.0,0.0,0.0,0.0,0.0,0.0,0.0,0.0,0.0,0.0,0.0,0.0,0.0,0.0,0.0,0.0,0.0,0.0,-0.3502,-0.3502,-0.3502,-0.3513,-0.3531,-0.3551,-0.3576,-0.3589,-0.3589,-0.3589,-0.3589,-0.3589,-0.3589,-0.3589,-0.3589,-0.3589,-0.3589,-0.3589,-0.3589,-0.3589,-0.3589,-0.3589,-0.3607,-0.3639,-0.367,-0.3699,-0.373,-0.3761,-0.3772,-0.3772,-0.3772,-0.3772,-0.3775,-0.3793,-0.381,-0.3831,-0.3873,-0.3898,-0.3918,-0.3943,-0.3949,-0.3949,-0.3949,-0.3949,-0.3949,-0.3949,-0.3949,-0.3949,-0.3949,-0.3949,-0.3949,-0.3949,-0.396,-0.3967,-0.3967,-0.3978,-0.3985,-0.397,-0.3967,-0.3963,-0.3949,-0.3949,-0.3949,-0.3949,-0.3949,-0.3949,-0.3949,-0.3949,-0.3949,-0.3949,-0.3932,-0.3911,-0.388,-0.3848,-0.382,-0.3793,-0.3779,-0.3772,-0.3772,-0.3772,-0.3772,-0.3772,-0.3772,-0.3761,-1.2071,-1.2045,-1.2776,-1.5308,-1.5296,0.0,-1.0567,-0.932,-0.7921,0.0,0.0,0.0,0.0,0.0,0.0,0.0,0.0,0.0,0.0,0.0,0.0,0.0,0.0,0.0,0.0,0.0,-0.3493,-0.3493,-0.3493,-0.3495,-0.3499,-0.3516,-0.3524,-0.3513,-0.3551,-0.3576,-0.3589,-0.3589,-0.3589,-0.3589,-0.3589,-0.3589,-0.3589,-0.3589,-0.3589,-0.3589,-0.3589,-0.3589,-0.3589,-0.3589,-0.3607,-0.3639,-0.3667,-0.3694,-0.373,-0.3757,-0.3768,-0.3772,-0.3772,-0.3772,-0.3772,-0.3772,-0.3775,-0.3793,-0.3842,-0.3862,-0.388,-0.3936,-0.3949,-0.3949,-0.3949,-0.3949,-0.3949,-0.3949,-0.3949,-0.3949,-0.3949,-0.3949,-0.3949,-0.3949,-0.397,-0.3992,-0.3992,-0.4012,-0.4019,-0.3994,-0.3992,-0.3981,-0.3953,-0.3949,-0.3949,-0.3949,-0.3949,-0.3949,-0.3949,-0.3949,-0.3949,-0.3949,-0.3949,-0.3936,-0.3904,-0.3876,-0.3844,-0.3817,-0.3786,-0.3772,-0.3772,-0.3772,-0.3772,-0.3772,-0.3772,-0.3772,-0.8184,-0.8778,-1.0538,-1.2806,-1.1894,0.0,-0.9599,-0.7973,-0.6001,0.0,0.0,0.0,0.0,0.0,0.0,0.0,0.0,0.0,0.0,0.0,0.0,0.0,0.0,0.0,0.0,0.0,-0.343,-0.343,-0.343,-0.344,-0.3465,-0.3448,-0.3479,-0.3458,-0.3491,-0.3493,-0.3589,-0.3589,-0.3589,-0.3589,-0.3589,-0.3589,-0.3589,-0.3589,-0.3589,-0.3589,-0.3589,-0.3589,-0.3589,-0.3589,-0.3607,-0.3636,-0.3643,-0.3677,-0.3726,-0.3733,-0.375,-0.3772,-0.3772,-0.3772,-0.3772,-0.3772,-0.3803,-0.3844,-0.3855,-0.3893,-0.3936,-0.3947,-0.3949,-0.3949,-0.3949,-0.3949,-0.3949,-0.3949,-0.3949,-0.3949,-0.3949,-0.3949,-0.3949,-0.3949,-0.3953,-0.396,-0.396,-0.3963,-0.3963,-0.396,-0.396,-0.3956,-0.3949,-0.3949,-0.3949,-0.3949,-0.3949,-0.3949,-0.3949,-0.3949,-0.3949,-0.3949,-0.3949,-0.3936,-0.3904,-0.3876,-0.3844,-0.3817,-0.3786,-0.3772,-0.3772,-0.3772,-0.3772,-0.3772,-0.3772,-0.3772,-0.6879,-0.7247,-0.8423,-1.067,-1.1107,0.0,0.0,-0.7756,-0.6812,0.0,0.0,0.0,0.0,0.0,0.0,0.0,0.0,0.0,0.0,0.0,0.0,0.0,0.0,0.0,0.0,0.0,-0.3412,-0.3412,-0.3412,-0.3419,-0.3434,-0.3434,-0.3454,-0.3499,-0.3499,-0.3531,-0.3589,-0.3589,-0.3589,-0.3589,-0.3589,-0.3589,-0.3589,-0.3589,-0.3589,-0.3589,-0.3589,-0.3589,-0.3589,-0.3589,-0.36,-0.3614,-0.3628,-0.3663,-0.3705,-0.3719,-0.3737,-0.375,-0.3764,-0.3772,-0.3772,-0.3772,-0.3803,-0.3842,-0.3855,-0.39,-0.3949,-0.3949,-0.3949,-0.3949,-0.3949,-0.3949,-0.3949,-0.3949,-0.3949,-0.3949,-0.3949,-0.3949,-0.3949,-0.3949,-0.3949,-0.3949,-0.3949,-0.3974,-0.3985,-0.3953,-0.3963,-0.3967,-0.3953,-0.3949,-0.3949,-0.3949,-0.3949,-0.3949,-0.3949,-0.3949,-0.3949,-0.3949,-0.3949,-0.3936,-0.3904,-0.3876,-0.3838,-0.3795,-0.3779,-0.3772,-0.3772,-0.3772,-0.3772,-0.3772,-0.3772,-0.3772,-0.6278,0.0,0.0,0.0,0.0,-1.0105,0.0,0.0,0.0,0.0,0.0,0.0,0.0,0.0,0.0,0.0,0.0,0.0,0.0,0.0,0.0,0.0,0.0,0.0,0.0,0.0,-0.3412,-0.3412,-0.3412,-0.3412,-0.3412,-0.3435,-0.3437,-0.3519,-0.3506,-0.3451,-0.346,-0.3576,-0.358,-0.358,-0.3587,-0.3589,-0.3589,-0.3589,-0.3589,-0.3589,-0.3589,-0.3589,-0.3589,-0.3589,-0.3594,-0.36,-0.3618,-0.3645,-0.3674,-0.3699,-0.3715,-0.373,-0.3754,-0.3768,-0.3772,-0.3772,-0.3793,-0.3824,-0.3859,-0.39,-0.3938,-0.3938,-0.3947,-0.3949,-0.3943,-0.3947,-0.3949,-0.3949,-0.3949,-0.3949,-0.3949,-0.3949,-0.3949,-0.3949,-0.3949,-0.3949,-0.3949,-0.3992,-0.4005,-0.3956,-0.397,-0.3978,-0.3953,-0.3949,-0.3949,-0.3949,-0.3949,-0.3949,-0.3949,-0.3949,-0.3949,-0.3949,-0.3949,-0.3936,-0.3904,-0.3869,-0.3827,-0.3772,-0.3772,-0.3772,-0.3772,-0.3772,-0.3772,-0.3772,-0.3772,-0.3772,0.0,0.0,0.0,0.0,-0.5715,0.0,0.0,0.0,-0.3788,0.0,0.0,0.0,0.0,0.0,0.0,0.0,0.0,0.0,0.0,0.0,0.0,0.0,0.0,0.0,0.0,0.0,0.0,-0.3412,-0.3412,-0.3412,-0.3412,-0.3415,-0.3415,-0.3519,-0.3425,-0.3457,-0.3513,-0.3531,-0.3538,-0.3538,-0.3572,-0.3589,-0.3589,-0.3589,-0.3589,-0.3589,-0.3589,-0.3589,-0.3589,-0.3589,-0.3607,-0.3628,-0.3604,-0.3614,-0.3643,-0.3645,-0.3681,-0.3726,-0.373,-0.375,-0.3772,-0.3772,-0.3793,-0.3827,-0.3883,-0.3904,-0.3907,-0.3907,-0.3929,-0.3943,-0.3914,-0.3929,-0.3949,-0.3949,-0.3949,-0.3949,-0.3949,-0.3949,-0.3949,-0.3949,-0.3949,-0.3949,-0.3949,-0.3956,-0.3956,-0.3949,-0.3953,-0.3953,-0.3949,-0.3949,-0.3949,-0.3949,-0.3949,-0.3949,-0.3949,-0.3949,-0.3949,-0.3949,-0.3949,-0.3936,-0.3904,-0.3851,-0.3806,-0.3772,-0.3772,-0.3772,-0.3772,-0.3772,-0.3772,-0.3772,-0.3772,-0.3772,0.0,0.0,0.0,0.0,0.0,0.0,-0.4719,0.0,-0.4794,0.0,0.0,0.0,0.0,0.0,0.0,0.0,0.0,0.0,0.0,0.0,0.0,0.0,0.0,0.0,0.0,0.0,0.0,0.0,0.0,-0.3385,-0.3385,-0.3403,-0.3412,-0.3412,-0.3429,-0.3453,-0.3484,-0.352,-0.3538,-0.3538,-0.3572,-0.3589,-0.3589,-0.3589,-0.3589,-0.3589,-0.3589,-0.3589,-0.3589,-0.3589,-0.3596,-0.3607,-0.3594,-0.3607,-0.3639,-0.3656,-0.3677,-0.3705,-0.3739,-0.3761,-0.3775,-0.3793,-0.3806,-0.3827,-0.3887,-0.3904,-0.3907,-0.3925,-0.3938,-0.3947,-0.3932,-0.3938,-0.3949,-0.3949,-0.3949,-0.3949,-0.3949,-0.3949,-0.3949,-0.3949,-0.3949,-0.3949,-0.3949,-0.3949,-0.3949,-0.3949,-0.3949,-0.3949,-0.3949,-0.3949,-0.3949,-0.3949,-0.3949,-0.3949,-0.3949,-0.3949,-0.3949,-0.3949,-0.3918,-0.3883,-0.3855,-0.3813,-0.3786,-0.3772,-0.3772,-0.3772,-0.3772,-0.3772,-0.3772,-0.3772,-0.3772,-0.3772,-0.3594,0.0,0.0,0.0,0.0,0.0,0.0,0.0,0.0,0.0,0.0,0.0,0.0,0.0,0.0,0.0,0.0,0.0,0.0,0.0,0.0,0.0,0.0,0.0,0.0,0.0,0.0,0.0,-0.335,0.0,-0.3355,-0.3382,-0.3407,-0.3423,-0.3438,-0.3452,-0.3467,-0.3502,-0.3524,-0.3534,-0.3562,-0.3583,-0.3589,-0.3589,-0.3589,-0.3589,-0.3589,-0.3589,-0.3589,-0.3589,-0.3589,-0.3589,-0.3589,-0.3604,-0.3625,-0.3656,-0.3674,-0.3688,-0.3739,-0.3764,-0.3775,-0.3795,-0.3803,-0.3813,-0.3866,-0.388,-0.3887,-0.3914,-0.3932,-0.3936,-0.3936,-0.3943,-0.3949,-0.3949,-0.3949,-0.3949,-0.3949,-0.3949,-0.3949,-0.3949,-0.3949,-0.3949,-0.3949,-0.3949,-0.3949,-0.3949,-0.3949,-0.3949,-0.3949,-0.3949,-0.3949,-0.3949,-0.3949,-0.3949,-0.3949,-0.3949,-0.3947,-0.3938,-0.3887,-0.3844,-0.3817,-0.3788,-0.3772,-0.3772,-0.3772,-0.3772,-0.3772,-0.3772,-0.3772,-0.3772,-0.3772,-0.3772,0.0,0.0,0.0,-0.3538,0.0,0.0,0.0,0.0,-0.3495,0.0,0.0,0.0,0.0,0.0,-0.3253,-0.3197,0.0,0.0,0.0,0.0,0.0,0.0,0.0,0.0,0.0,0.0,0.0,0.0,-0.335,0.0,-0.3324,-0.3351,-0.3395,-0.3454,-0.3429,-0.3427,-0.3457,-0.346,-0.3475,-0.3502,-0.3534,-0.3562,-0.3589,-0.3589,-0.3589,-0.3589,-0.3589,-0.3589,-0.3589,-0.3589,-0.3589,-0.3589,-0.3589,-0.3589,-0.3594,-0.3625,-0.3656,-0.3684,-0.3715,-0.3748,-0.3772,-0.3772,-0.3772,-0.3779,-0.381,-0.382,-0.3824,-0.3855,-0.3883,-0.3904,-0.3904,-0.3929,-0.3949,-0.3949,-0.3949,-0.3949,-0.3949,-0.3949,-0.3949,-0.3949,-0.3949,-0.3949,-0.3949,-0.3949,-0.3949,-0.3949,-0.3949,-0.3949,-0.3949,-0.3949,-0.3949,-0.3949,-0.3949,-0.3949,-0.3949,-0.3949,-0.3936,-0.3907,-0.3876,-0.3844,-0.3817,-0.3788,-0.3772,-0.3772,-0.3772,-0.3772,-0.3772,-0.3772,-0.3772,-0.3772,-0.3772,-0.3772,0.0,0.0,-0.3779,-0.3628,0.0,0.0,0.0,0.0,0.0,0.0,0.0,0.0,0.0,0.0,-0.3352,-0.3313,-0.333,0.0,0.0,0.0,0.0,0.0,0.0,0.0,0.0,0.0,0.0,-0.3206,-0.3213,-0.3231,0.0,-0.3309,-0.3355,-0.3396,-0.3407,-0.3416,-0.3427,-0.3448,-0.3463,-0.3474,-0.352,-0.3551,-0.3562,-0.358,-0.3589,-0.3589,-0.3589,-0.3589,-0.3589,-0.3589,-0.3589,-0.3589,-0.3589,-0.3589,-0.3596,-0.3645,-0.367,-0.3688,-0.3739,-0.3764,-0.3772,-0.3772,-0.3772,-0.3779,-0.3806,-0.3817,-0.3824,-0.3851,-0.388,-0.3904,-0.3904,-0.3925,-0.3949,-0.3949,-0.3949,-0.3949,-0.3949,-0.3949,-0.3949,-0.3949,-0.3949,-0.3949,-0.3949,-0.3949,-0.3949,-0.3949,-0.3949,-0.3949,-0.3949,-0.3949,-0.3949,-0.3949,-0.3949,-0.3949,-0.3949,-0.3932,-0.3907,-0.3876,-0.3848,-0.3817,-0.3788,-0.3779,-0.3772,-0.3772,-0.3772,-0.3772,-0.3772,-0.3772,-0.3772,-0.3772,-0.3772,-0.3772,-0.3855,-0.3862,0.0,-0.3719,-0.367,0.0,-0.354,0.0,0.0,0.0,0.0,0.0,0.0,0.0,0.0,-0.3404,-0.3388,0.0,0.0,0.0,0.0,0.0,0.0,0.0,0.0,0.0,-0.3209,-0.3148,-0.3153,-0.3175,0.0,0.0,-0.3329,-0.3381,-0.3401,-0.3422,-0.3444,-0.3442,-0.3457,-0.3489,-0.3516,-0.354,-0.3562,-0.358,-0.3589,-0.3589,-0.3589,-0.3589,-0.3589,-0.3589,-0.3589,-0.3589,-0.3589,-0.3589,-0.3596,-0.366,-0.3694,-0.3719,-0.3757,-0.3772,-0.3772,-0.3772,-0.3772,-0.3775,-0.3795,-0.3799,-0.3806,-0.3835,-0.3859,-0.3876,-0.3898,-0.3918,-0.3936,-0.3947,-0.3949,-0.3949,-0.3949,-0.3949,-0.3949,-0.3949,-0.3949,-0.3949,-0.3949,-0.3949,-0.3949,-0.3949,-0.3949,-0.3949,-0.3949,-0.3949,-0.3949,-0.3949,-0.3949,-0.3949,-0.3949,-0.3932,-0.3907,-0.3876,-0.3848,-0.3817,-0.3788,-0.3779,-0.3795,-0.3848,-0.3799,-0.3799,-0.3851,-0.3795,-0.3772,-0.3772,-0.3772,-0.3772]}]]